[[{"header":{"parameterUnit":"m.s-1","parameterCategory":1,"la1":31.0,"la2":29.5877,"lo1":-88.7671,"lo2":-86.6584,"dy":0.0162,"dx":0.0185,"nx":115,"ny":88,"refTime":"2023-03-15T18:00:00:Z","depth":0,"parameterNumber":2,"parameterNumberName":"U-component_of_WINDS"},"data":[0.0,0.0,0.0,0.0,0.0,0.0,0.0,0.0,0.0,0.0,0.0,0.0,0.0,0.0,0.0,0.0,0.0,0.0,0.0,0.0,0.0,0.0,0.0,0.0,0.0,0.0,0.0,0.0,0.0,0.0,0.0,0.0,0.0,0.0,0.0,0.0,0.0,0.0,0.0,0.0,0.0,0.0,0.0,0.0,0.0,0.0,0.0,0.0,0.0,0.0,0.0,0.0,0.0,0.0,0.0,0.0,0.0,0.0,0.0,0.0,0.0,0.0,0.0,0.0,0.0,0.0,0.0,0.0,0.0,0.0,0.0,0.0,0.0,0.0,0.0,0.0,0.0,0.0,0.0,0.0,0.0,0.0,0.0,0.0,0.0,0.0,0.0,0.0,0.0,0.0,0.0,0.0,0.0,0.0,0.0,0.0,0.0,0.0,0.0,0.0,0.0,0.0,0.0,0.0,0.0,0.0,0.0,0.0,0.0,0.0,0.0,0.0,0.0,0.0,0.0,0.0,0.0,0.0,0.0,0.0,0.0,0.0,0.0,0.0,0.0,0.0,0.0,0.0,0.0,0.0,0.0,0.0,0.0,0.0,0.0,0.0,0.0,0.0,0.0,0.0,0.0,0.0,0.0,0.0,0.0,0.0,0.0,0.0,0.0,0.0,0.0,0.0,0.0,0.0,0.0,0.0,0.0,0.0,0.0,0.0,0.0,0.0,0.0,0.0,0.0,0.0,0.0,0.0,0.0,0.0,0.0,0.0,0.0,0.0,0.0,0.0,0.0,0.0,0.0,0.0,0.0,0.0,0.0,0.0,0.0,0.0,0.0,0.0,0.0,0.0,0.0,0.0,0.0,0.0,0.0,0.0,0.0,0.0,0.0,0.0,0.0,0.0,0.0,0.0,0.0,0.0,0.0,0.0,0.0,0.0,0.0,0.0,0.0,0.0,0.0,0.0,0.0,0.0,0.0,0.0,0.0,0.0,0.0,0.0,0.0,0.0,0.0,0.0,0.0,0.0,0.0,0.0,0.0,0.0,0.0,0.0,0.0,0.0,0.0,0.0,0.0,0.0,0.0,0.0,0.0,0.0,0.0,0.0,0.0,0.0,0.0,0.0,0.0,0.0,0.0,0.0,0.0,0.0,0.0,0.0,0.0,0.0,0.0,0.0,0.0,0.0,0.0,0.0,0.0,0.0,0.0,0.0,0.0,0.0,0.0,0.0,0.0,0.0,0.0,0.0,0.0,0.0,0.0,0.0,0.0,0.0,0.0,0.0,0.0,0.0,0.0,0.0,0.0,0.0,0.0,0.0,0.0,0.0,0.0,0.0,0.0,0.0,0.0,0.0,0.0,0.0,0.0,0.0,0.0,0.0,0.0,0.0,0.0,0.0,0.0,0.0,0.0,0.0,0.0,0.0,0.0,0.0,0.0,0.0,0.0,0.0,0.0,0.0,0.0,0.0,0.0,0.0,0.0,0.0,0.0,0.0,0.0,0.0,0.0,0.0,0.0,0.0,0.0,0.0,0.0,0.0,0.0,0.0,0.0,0.0,0.0,0.0,0.0,0.0,0.0,0.0,0.0,0.0,0.0,0.0,0.0,0.0,0.0,0.0,0.0,0.0,0.0,0.0,0.0,0.0,0.0,0.0,0.0,0.0,0.0,0.0,0.0,0.0,0.0,0.0,0.0,0.0,0.0,0.0,0.0,0.0,0.0,0.0,0.0,0.0,0.0,0.0,0.0,0.0,0.0,0.0,0.0,0.0,0.0,0.0,0.0,0.0,0.0,0.0,0.0,0.0,0.0,0.0,0.0,0.0,0.0,0.0,0.0,0.0,0.0,0.0,0.0,0.0,0.0,0.0,0.0,0.0,0.0,0.0,0.0,0.0,0.0,0.0,0.0,0.0,0.0,0.0,0.0,0.0,0.0,0.0,0.0,0.0,0.0,0.0,0.0,0.0,0.0,0.0,0.0,0.0,0.0,0.0,0.0,0.0,0.0,0.0,0.0,0.0,0.0,0.0,0.0,0.0,0.0,0.0,0.0,0.0,0.0,0.0,0.0,0.0,0.0,0.0,0.0,0.0,0.0,0.0,0.0,0.0,0.0,0.0,0.0,0.0,0.0,0.0,0.0,0.0,0.0,0.0,0.0,0.0,0.0,0.0,0.0,0.0,0.0,0.0,0.0,0.0,0.0,0.0,0.0,0.0,0.0,0.0,0.0,0.0,0.0,0.0,0.0,0.0,0.0,0.0,0.0,0.0,0.0,0.0,0.0,0.0,0.0,0.0,0.0,0.0,0.0,0.0,0.0,0.0,0.0,0.0,0.0,0.0,0.0,0.0,0.0,0.0,0.0,0.0,0.0,0.0,0.0,0.0,0.0,0.0,0.0,0.0,0.0,0.0,0.0,0.0,0.0,0.0,0.0,0.0,0.0,0.0,0.0,0.0,0.0,0.0,0.0,0.0,0.0,0.0,0.0,0.0,0.0,0.0,0.0,0.0,0.0,0.0,0.0,0.0,0.0,0.0,0.0,0.0,0.0,0.0,0.0,0.0,0.0,0.0,0.0,0.0,0.0,0.0,0.0,0.0,0.0,0.0,0.0,0.0,0.0,0.0,0.0,0.0,0.0,0.0,0.0,0.0,0.0,0.0,0.0,0.0,0.0,0.0,0.0,0.0,0.0,0.0,0.0,0.0,0.0,0.0,0.0,0.0,0.0,0.0,0.0,0.0,0.0,0.0,0.0,0.0,0.0,0.0,0.0,0.0,0.0,0.0,0.0,0.0,0.0,0.0,0.0,0.0,0.0,0.0,0.0,0.0,0.0,0.0,0.0,0.0,0.0,0.0,0.0,0.0,0.0,0.0,0.0,0.0,0.0,0.0,0.0,0.0,0.0,0.0,0.0,0.0,0.0,0.0,0.0,0.0,0.0,0.0,0.0,0.0,0.0,0.0,0.0,0.0,0.0,0.0,0.0,0.0,0.0,0.0,0.0,0.0,0.0,0.0,0.0,0.0,0.0,0.0,0.0,0.0,0.0,0.0,0.0,0.0,0.0,0.0,0.0,0.0,0.0,0.0,0.0,0.0,0.0,0.0,0.0,0.0,0.0,0.0,0.0,0.0,0.0,0.0,0.0,0.0,0.0,0.0,0.0,0.0,0.0,0.0,0.0,0.0,0.0,0.0,0.0,0.0,0.0,0.0,0.0,0.0,0.0,0.0,0.0,0.0,0.0,0.0,0.0,0.0,0.0,0.0,0.0,0.0,0.0,0.0,0.0,0.0,0.0,0.0,0.0,0.0,0.0,0.0,0.0,0.0,0.0,0.0,0.0,0.0,0.0,0.0,0.0,0.0,0.0,0.0,0.0,0.0,0.0,0.0,0.0,0.0,0.0,0.0,0.0,0.0,0.0,0.0,0.0,0.0,0.0,0.0,0.0,0.0,0.0,0.0,0.0,0.0,0.0,0.0,0.0,0.0,0.0,0.0,0.0,0.0,0.0,0.0,0.0,0.0,0.0,0.0,0.0,0.0,0.0,0.0,0.0,0.0,0.0,0.0,0.0,0.0,0.0,0.0,0.0,0.0,0.0,0.0,0.0,0.0,0.0,0.0,0.0,0.0,0.0,0.0,0.0,0.0,0.0,0.0,0.0,0.0,0.0,0.0,0.0,0.0,0.0,0.0,0.0,0.0,0.0,0.0,0.0,0.0,0.0,0.0,0.0,0.0,0.0,0.0,0.0,0.0,0.0,0.0,0.0,0.0,0.0,0.0,0.0,0.0,0.0,0.0,0.0,0.0,0.0,0.0,0.0,0.0,0.0,0.0,0.0,0.0,0.0,0.0,0.0,0.0,0.0,0.0,0.0,0.0,0.0,0.0,0.0,0.0,0.0,0.0,0.0,0.0,0.0,0.0,0.0,0.0,0.0,0.0,0.0,0.0,0.0,0.0,0.0,0.0,0.0,0.0,0.0,0.0,0.0,0.0,0.0,0.0,0.0,0.0,0.0,0.0,0.0,0.0,0.0,0.0,0.0,0.0,0.0,0.0,0.0,0.0,0.0,0.0,0.0,0.0,0.0,0.0,0.0,0.0,0.0,0.0,0.0,0.0,0.0,0.0,0.0,0.0,0.0,0.0,0.0,0.0,0.0,0.0,0.0,0.0,0.0,0.0,0.0,0.0,0.0,0.0,0.0,0.0,0.0,0.0,0.0,0.0,0.0,0.0,0.0,0.0,0.0,0.0,0.0,0.0,0.0,0.0,0.0,0.0,0.0,0.0,0.0,0.0,-7.0566,0.0,0.0,0.0,0.0,0.0,0.0,0.0,0.0,0.0,0.0,0.0,0.0,0.0,0.0,0.0,0.0,0.0,0.0,0.0,0.0,0.0,0.0,0.0,0.0,0.0,0.0,0.0,0.0,0.0,0.0,0.0,0.0,0.0,0.0,0.0,0.0,0.0,0.0,0.0,0.0,0.0,0.0,0.0,0.0,0.0,0.0,0.0,0.0,0.0,0.0,0.0,0.0,0.0,0.0,0.0,0.0,0.0,0.0,0.0,0.0,0.0,0.0,0.0,0.0,0.0,0.0,0.0,0.0,0.0,0.0,0.0,0.0,0.0,0.0,0.0,0.0,0.0,0.0,0.0,0.0,0.0,0.0,0.0,0.0,0.0,0.0,0.0,0.0,0.0,0.0,0.0,0.0,0.0,0.0,0.0,0.0,0.0,0.0,0.0,0.0,0.0,0.0,0.0,0.0,0.0,0.0,0.0,0.0,0.0,0.0,-6.6261,-6.7561,-6.7168,-6.8266,-7.0962,0.0,0.0,0.0,0.0,0.0,0.0,0.0,0.0,0.0,0.0,0.0,0.0,0.0,0.0,0.0,0.0,0.0,0.0,0.0,0.0,0.0,0.0,0.0,0.0,0.0,0.0,0.0,0.0,0.0,0.0,0.0,0.0,0.0,0.0,0.0,0.0,0.0,0.0,0.0,0.0,0.0,0.0,0.0,0.0,0.0,0.0,0.0,0.0,0.0,0.0,0.0,0.0,0.0,0.0,0.0,0.0,0.0,0.0,0.0,0.0,0.0,0.0,0.0,0.0,0.0,0.0,0.0,0.0,0.0,0.0,0.0,0.0,0.0,0.0,0.0,0.0,0.0,0.0,0.0,0.0,0.0,0.0,0.0,0.0,0.0,0.0,0.0,0.0,0.0,0.0,0.0,0.0,0.0,0.0,0.0,0.0,0.0,0.0,0.0,0.0,0.0,0.0,0.0,0.0,0.0,0.0,0.0,0.0,0.0,0.0,0.0,0.0,-6.7141,-6.8187,-7.0454,0.0,0.0,0.0,0.0,0.0,0.0,0.0,0.0,0.0,0.0,0.0,0.0,0.0,0.0,0.0,0.0,0.0,0.0,0.0,0.0,0.0,0.0,0.0,0.0,0.0,0.0,0.0,0.0,0.0,0.0,0.0,0.0,0.0,0.0,0.0,0.0,0.0,0.0,0.0,0.0,0.0,0.0,0.0,0.0,0.0,0.0,0.0,0.0,0.0,0.0,0.0,0.0,0.0,0.0,0.0,0.0,0.0,0.0,0.0,0.0,0.0,0.0,0.0,0.0,0.0,0.0,0.0,0.0,0.0,0.0,0.0,0.0,0.0,0.0,0.0,0.0,0.0,0.0,0.0,0.0,0.0,0.0,0.0,0.0,0.0,0.0,0.0,0.0,0.0,0.0,0.0,0.0,0.0,0.0,0.0,0.0,0.0,0.0,0.0,0.0,0.0,0.0,0.0,0.0,0.0,0.0,0.0,0.0,0.0,0.0,-6.6268,-6.7234,-6.7305,0.0,-6.8904,0.0,0.0,0.0,0.0,0.0,0.0,0.0,0.0,0.0,0.0,0.0,0.0,0.0,0.0,0.0,0.0,0.0,0.0,0.0,0.0,0.0,0.0,0.0,0.0,0.0,0.0,0.0,0.0,0.0,0.0,0.0,0.0,0.0,0.0,0.0,0.0,0.0,0.0,0.0,0.0,0.0,0.0,0.0,0.0,0.0,0.0,0.0,0.0,0.0,0.0,0.0,0.0,0.0,0.0,0.0,0.0,0.0,0.0,0.0,0.0,0.0,0.0,0.0,0.0,0.0,0.0,0.0,0.0,0.0,0.0,0.0,0.0,0.0,0.0,0.0,0.0,0.0,0.0,0.0,0.0,0.0,0.0,0.0,0.0,0.0,0.0,0.0,0.0,0.0,0.0,0.0,0.0,0.0,0.0,0.0,0.0,0.0,0.0,0.0,0.0,0.0,0.0,0.0,0.0,0.0,0.0,0.0,0.0,0.0,0.0,-6.4752,-6.6594,-6.8111,-6.9153,0.0,0.0,0.0,0.0,0.0,0.0,0.0,0.0,0.0,0.0,0.0,0.0,0.0,0.0,0.0,0.0,0.0,0.0,0.0,0.0,0.0,0.0,0.0,0.0,0.0,0.0,0.0,0.0,0.0,0.0,0.0,0.0,0.0,0.0,0.0,0.0,0.0,0.0,0.0,0.0,0.0,0.0,0.0,0.0,0.0,0.0,0.0,0.0,0.0,0.0,0.0,0.0,0.0,0.0,0.0,0.0,0.0,0.0,0.0,0.0,0.0,0.0,0.0,0.0,0.0,0.0,0.0,0.0,0.0,0.0,0.0,0.0,0.0,0.0,0.0,0.0,0.0,0.0,0.0,0.0,0.0,0.0,0.0,0.0,0.0,0.0,0.0,0.0,0.0,0.0,0.0,0.0,0.0,0.0,0.0,0.0,0.0,0.0,0.0,0.0,0.0,0.0,0.0,0.0,0.0,0.0,0.0,0.0,0.0,0.0,-6.2893,-6.425,-6.6535,-6.8444,-6.9449,-6.9412,0.0,0.0,0.0,0.0,0.0,0.0,0.0,0.0,0.0,0.0,0.0,0.0,0.0,0.0,0.0,0.0,0.0,0.0,0.0,0.0,0.0,0.0,0.0,0.0,0.0,0.0,0.0,0.0,0.0,0.0,0.0,0.0,0.0,0.0,0.0,0.0,0.0,0.0,0.0,0.0,0.0,0.0,0.0,0.0,0.0,0.0,0.0,0.0,0.0,0.0,0.0,0.0,0.0,0.0,0.0,0.0,0.0,0.0,0.0,0.0,0.0,0.0,0.0,0.0,0.0,0.0,0.0,0.0,0.0,0.0,0.0,0.0,0.0,0.0,0.0,0.0,0.0,0.0,0.0,0.0,0.0,0.0,0.0,0.0,0.0,0.0,0.0,0.0,0.0,0.0,0.0,0.0,0.0,0.0,0.0,0.0,0.0,0.0,0.0,0.0,0.0,0.0,0.0,0.0,0.0,0.0,0.0,0.0,-6.2527,-6.4007,-6.5743,-6.7534,-6.7734,-6.7797,0.0,0.0,0.0,0.0,0.0,0.0,0.0,0.0,0.0,0.0,0.0,0.0,0.0,0.0,0.0,0.0,0.0,0.0,0.0,0.0,0.0,0.0,0.0,0.0,0.0,0.0,0.0,0.0,0.0,0.0,0.0,0.0,0.0,0.0,0.0,0.0,0.0,0.0,0.0,0.0,0.0,0.0,0.0,0.0,0.0,0.0,0.0,0.0,0.0,0.0,0.0,0.0,0.0,0.0,0.0,0.0,0.0,0.0,0.0,0.0,0.0,0.0,0.0,0.0,0.0,0.0,0.0,0.0,0.0,0.0,0.0,0.0,0.0,0.0,0.0,0.0,0.0,0.0,0.0,0.0,0.0,0.0,0.0,0.0,0.0,0.0,0.0,0.0,0.0,0.0,0.0,0.0,0.0,0.0,0.0,0.0,0.0,0.0,0.0,0.0,0.0,0.0,0.0,0.0,0.0,0.0,0.0,0.0,0.0,-6.3417,-6.4968,-6.6217,-6.6852,-6.7405,-6.7687,0.0,0.0,0.0,0.0,0.0,0.0,0.0,0.0,0.0,0.0,0.0,0.0,0.0,0.0,0.0,0.0,0.0,0.0,0.0,0.0,0.0,0.0,0.0,0.0,0.0,0.0,0.0,0.0,0.0,0.0,0.0,0.0,0.0,0.0,0.0,0.0,0.0,0.0,0.0,0.0,0.0,0.0,0.0,0.0,0.0,0.0,0.0,0.0,0.0,0.0,0.0,0.0,0.0,0.0,0.0,0.0,0.0,0.0,0.0,0.0,0.0,0.0,0.0,0.0,0.0,0.0,0.0,0.0,0.0,0.0,0.0,0.0,0.0,0.0,0.0,0.0,0.0,0.0,0.0,0.0,0.0,0.0,0.0,0.0,0.0,0.0,0.0,0.0,0.0,0.0,0.0,0.0,0.0,0.0,0.0,0.0,0.0,0.0,0.0,0.0,0.0,0.0,0.0,0.0,0.0,0.0,0.0,0.0,0.0,-6.4183,0.0,-6.6523,-6.6852,-6.7405,-6.7687,0.0,0.0,0.0,0.0,0.0,0.0,0.0,0.0,0.0,0.0,0.0,0.0,0.0,0.0,0.0,0.0,0.0,0.0,0.0,0.0,0.0,0.0,0.0,0.0,0.0,0.0,0.0,0.0,0.0,0.0,0.0,0.0,0.0,0.0,0.0,0.0,0.0,0.0,0.0,0.0,0.0,0.0,0.0,0.0,0.0,0.0,0.0,0.0,0.0,0.0,0.0,0.0,0.0,0.0,0.0,0.0,0.0,0.0,0.0,0.0,0.0,0.0,0.0,0.0,0.0,0.0,0.0,0.0,0.0,0.0,0.0,0.0,0.0,0.0,0.0,0.0,0.0,0.0,0.0,0.0,0.0,0.0,0.0,0.0,0.0,0.0,0.0,0.0,0.0,0.0,0.0,0.0,0.0,0.0,0.0,0.0,0.0,0.0,0.0,0.0,0.0,0.0,0.0,0.0,0.0,0.0,0.0,0.0,-6.479,-6.5072,-6.5935,-6.6852,-6.766,-6.7687,-6.7687,0.0,0.0,0.0,0.0,0.0,0.0,0.0,0.0,0.0,0.0,0.0,0.0,0.0,0.0,0.0,0.0,0.0,0.0,0.0,0.0,0.0,0.0,0.0,0.0,0.0,0.0,0.0,0.0,0.0,0.0,0.0,0.0,0.0,0.0,0.0,0.0,0.0,0.0,0.0,0.0,0.0,0.0,0.0,0.0,0.0,0.0,0.0,0.0,0.0,0.0,0.0,0.0,0.0,0.0,0.0,0.0,0.0,0.0,0.0,0.0,0.0,0.0,0.0,0.0,0.0,0.0,0.0,0.0,0.0,0.0,0.0,0.0,0.0,0.0,0.0,0.0,0.0,0.0,0.0,0.0,0.0,0.0,0.0,0.0,0.0,0.0,0.0,0.0,0.0,0.0,0.0,0.0,0.0,0.0,0.0,0.0,0.0,0.0,0.0,0.0,0.0,0.0,0.0,0.0,0.0,0.0,0.0,0.0,0.0,-6.6849,-6.7164,-6.7433,-6.7687,-6.7687,-6.7687,0.0,0.0,0.0,0.0,0.0,0.0,0.0,0.0,0.0,0.0,0.0,0.0,0.0,0.0,0.0,0.0,0.0,0.0,0.0,0.0,0.0,0.0,0.0,0.0,0.0,0.0,0.0,0.0,0.0,0.0,0.0,0.0,0.0,0.0,0.0,0.0,0.0,0.0,0.0,0.0,0.0,0.0,0.0,0.0,0.0,0.0,0.0,0.0,0.0,0.0,0.0,0.0,0.0,0.0,0.0,0.0,0.0,0.0,0.0,0.0,0.0,0.0,0.0,0.0,0.0,0.0,0.0,0.0,0.0,0.0,0.0,0.0,0.0,0.0,0.0,0.0,0.0,0.0,0.0,0.0,0.0,0.0,0.0,0.0,0.0,0.0,0.0,0.0,0.0,0.0,0.0,0.0,0.0,0.0,0.0,0.0,0.0,0.0,0.0,0.0,0.0,0.0,0.0,0.0,0.0,0.0,0.0,0.0,0.0,-6.9281,-6.918,-6.8898,-6.8605,-6.8595,-6.8421,-6.8164,0.0,0.0,0.0,0.0,0.0,0.0,0.0,0.0,0.0,0.0,0.0,0.0,0.0,0.0,0.0,0.0,0.0,0.0,0.0,0.0,0.0,0.0,0.0,0.0,0.0,0.0,0.0,0.0,0.0,0.0,0.0,0.0,0.0,0.0,0.0,0.0,0.0,0.0,0.0,0.0,0.0,0.0,0.0,0.0,0.0,0.0,0.0,0.0,0.0,0.0,0.0,0.0,0.0,0.0,0.0,0.0,0.0,0.0,0.0,0.0,0.0,0.0,0.0,0.0,0.0,0.0,0.0,0.0,0.0,0.0,0.0,0.0,0.0,0.0,0.0,0.0,0.0,0.0,0.0,0.0,0.0,0.0,0.0,0.0,0.0,0.0,0.0,0.0,0.0,0.0,0.0,0.0,0.0,0.0,0.0,0.0,0.0,0.0,0.0,0.0,0.0,0.0,0.0,0.0,0.0,0.0,0.0,0.0,-7.2228,-7.1853,-7.1248,-7.033,-7.022,-6.9816,0.0,0.0,0.0,0.0,0.0,0.0,0.0,0.0,0.0,0.0,0.0,0.0,0.0,0.0,0.0,0.0,0.0,0.0,0.0,0.0,0.0,0.0,0.0,0.0,0.0,0.0,0.0,0.0,0.0,0.0,0.0,0.0,0.0,0.0,0.0,0.0,0.0,0.0,0.0,0.0,0.0,0.0,0.0,0.0,0.0,0.0,0.0,0.0,0.0,0.0,0.0,0.0,0.0,0.0,0.0,0.0,0.0,0.0,0.0,0.0,0.0,0.0,0.0,0.0,0.0,0.0,0.0,0.0,0.0,0.0,0.0,0.0,0.0,0.0,0.0,0.0,0.0,0.0,0.0,0.0,0.0,0.0,0.0,0.0,0.0,0.0,0.0,0.0,0.0,0.0,0.0,0.0,0.0,0.0,0.0,0.0,0.0,0.0,0.0,0.0,0.0,0.0,0.0,0.0,0.0,0.0,0.0,0.0,0.0,-7.3261,-7.4934,-7.4808,-7.2826,-7.1615,-7.0624,0.0,0.0,0.0,0.0,0.0,0.0,0.0,0.0,0.0,0.0,0.0,0.0,0.0,0.0,0.0,0.0,0.0,0.0,0.0,0.0,0.0,0.0,0.0,0.0,0.0,0.0,0.0,0.0,0.0,0.0,0.0,0.0,0.0,0.0,0.0,0.0,0.0,0.0,0.0,0.0,0.0,0.0,0.0,0.0,0.0,0.0,0.0,0.0,0.0,0.0,0.0,0.0,0.0,0.0,0.0,0.0,0.0,0.0,0.0,0.0,0.0,0.0,0.0,0.0,0.0,0.0,0.0,0.0,0.0,0.0,0.0,0.0,0.0,0.0,0.0,0.0,0.0,0.0,0.0,0.0,0.0,0.0,0.0,0.0,0.0,0.0,0.0,0.0,0.0,0.0,0.0,0.0,0.0,0.0,0.0,0.0,0.0,0.0,0.0,0.0,0.0,0.0,0.0,0.0,0.0,0.0,0.0,0.0,-7.0981,-7.4616,-7.7065,-7.7671,-7.6276,-7.4037,-7.2129,0.0,0.0,0.0,0.0,0.0,0.0,0.0,0.0,0.0,0.0,0.0,0.0,0.0,0.0,0.0,0.0,0.0,0.0,0.0,0.0,0.0,0.0,0.0,0.0,0.0,0.0,0.0,0.0,0.0,0.0,0.0,0.0,0.0,0.0,0.0,0.0,0.0,0.0,0.0,0.0,0.0,0.0,0.0,0.0,0.0,0.0,0.0,0.0,0.0,0.0,0.0,0.0,0.0,0.0,0.0,0.0,0.0,0.0,0.0,0.0,0.0,0.0,0.0,0.0,0.0,0.0,0.0,0.0,0.0,0.0,0.0,0.0,0.0,0.0,0.0,0.0,0.0,0.0,0.0,0.0,0.0,0.0,0.0,0.0,0.0,0.0,0.0,0.0,0.0,0.0,0.0,0.0,0.0,0.0,0.0,0.0,0.0,0.0,0.0,0.0,0.0,0.0,0.0,0.0,0.0,0.0,0.0,0.0,-7.1868,-7.5819,-7.8464,-7.98,-7.9837,-7.6754,-7.3927,0.0,0.0,0.0,0.0,0.0,0.0,0.0,0.0,0.0,0.0,0.0,0.0,0.0,0.0,0.0,0.0,0.0,0.0,0.0,0.0,0.0,0.0,0.0,0.0,0.0,0.0,0.0,0.0,0.0,0.0,0.0,0.0,0.0,0.0,0.0,0.0,0.0,0.0,0.0,0.0,0.0,0.0,0.0,0.0,0.0,0.0,0.0,0.0,0.0,0.0,0.0,0.0,0.0,0.0,0.0,0.0,0.0,0.0,0.0,0.0,0.0,0.0,0.0,0.0,0.0,0.0,0.0,0.0,0.0,0.0,0.0,0.0,0.0,0.0,0.0,0.0,0.0,0.0,0.0,0.0,0.0,0.0,0.0,0.0,0.0,0.0,0.0,0.0,0.0,0.0,0.0,0.0,0.0,0.0,0.0,0.0,0.0,0.0,0.0,0.0,0.0,0.0,0.0,0.0,0.0,0.0,0.0,0.0,-7.1833,-7.5819,-7.8464,-8.0094,-8.0718,-7.7561,-7.4735,0.0,0.0,0.0,0.0,0.0,0.0,0.0,0.0,0.0,0.0,0.0,0.0,0.0,0.0,0.0,0.0,0.0,0.0,0.0,0.0,0.0,0.0,0.0,0.0,0.0,0.0,0.0,0.0,0.0,0.0,0.0,0.0,0.0,0.0,0.0,0.0,0.0,0.0,0.0,0.0,0.0,0.0,0.0,0.0,0.0,0.0,0.0,0.0,-7.4771,0.0,0.0,0.0,0.0,0.0,0.0,0.0,0.0,0.0,0.0,0.0,0.0,0.0,0.0,0.0,0.0,0.0,0.0,0.0,0.0,0.0,0.0,0.0,0.0,0.0,0.0,0.0,0.0,0.0,0.0,0.0,0.0,0.0,0.0,0.0,0.0,0.0,0.0,0.0,0.0,0.0,0.0,0.0,0.0,0.0,0.0,0.0,0.0,0.0,0.0,0.0,0.0,0.0,0.0,0.0,0.0,0.0,0.0,0.0,-7.2226,-7.5819,-7.8829,-8.0571,-8.0901,-7.8589,-7.5946,0.0,0.0,0.0,0.0,0.0,0.0,0.0,0.0,0.0,0.0,0.0,0.0,0.0,0.0,0.0,0.0,0.0,0.0,0.0,0.0,0.0,0.0,0.0,0.0,0.0,0.0,0.0,0.0,0.0,0.0,0.0,0.0,0.0,0.0,0.0,0.0,0.0,0.0,0.0,0.0,0.0,0.0,0.0,0.0,0.0,0.0,0.0,0.0,0.0,0.0,0.0,0.0,0.0,0.0,0.0,0.0,0.0,0.0,0.0,0.0,0.0,0.0,0.0,0.0,0.0,0.0,0.0,0.0,0.0,0.0,0.0,0.0,0.0,0.0,0.0,0.0,0.0,0.0,0.0,0.0,0.0,0.0,0.0,0.0,0.0,0.0,0.0,0.0,0.0,0.0,0.0,0.0,0.0,0.0,0.0,0.0,0.0,0.0,0.0,0.0,0.0,0.0,0.0,0.0,0.0,0.0,0.0,-6.9176,-7.2902,-7.6239,-7.9373,-8.1048,-8.1158,-7.936,-7.7011,-7.3964,0.0,0.0,0.0,0.0,0.0,0.0,0.0,0.0,0.0,0.0,0.0,0.0,0.0,0.0,0.0,0.0,0.0,0.0,0.0,0.0,0.0,0.0,0.0,0.0,0.0,0.0,0.0,0.0,0.0,0.0,0.0,0.0,0.0,0.0,0.0,0.0,0.0,0.0,-7.3597,-7.4866,0.0,0.0,0.0,0.0,0.0,0.0,0.0,0.0,-7.6545,0.0,0.0,0.0,0.0,0.0,0.0,0.0,0.0,0.0,0.0,0.0,0.0,0.0,0.0,0.0,0.0,0.0,0.0,0.0,0.0,0.0,0.0,0.0,0.0,0.0,0.0,0.0,0.0,0.0,0.0,0.0,0.0,0.0,0.0,0.0,0.0,0.0,0.0,0.0,0.0,0.0,0.0,0.0,0.0,0.0,0.0,0.0,0.0,0.0,0.0,0.0,0.0,0.0,0.0,0.0,0.0,-6.6135,-7.0026,-7.4006,-7.8075,-8.003,-8.1342,-8.1893,-7.9103,-7.6613,-7.4698,0.0,0.0,0.0,0.0,0.0,0.0,0.0,0.0,0.0,0.0,0.0,0.0,0.0,0.0,0.0,0.0,0.0,0.0,0.0,0.0,0.0,0.0,0.0,0.0,0.0,0.0,0.0,0.0,0.0,0.0,0.0,0.0,0.0,0.0,0.0,0.0,0.0,0.0,0.0,-7.4347,-7.4993,0.0,0.0,0.0,0.0,0.0,0.0,0.0,0.0,-7.8401,0.0,0.0,0.0,0.0,0.0,0.0,0.0,0.0,0.0,0.0,0.0,0.0,0.0,0.0,0.0,0.0,0.0,0.0,0.0,0.0,0.0,0.0,0.0,0.0,0.0,0.0,0.0,0.0,0.0,0.0,0.0,0.0,0.0,0.0,0.0,0.0,0.0,0.0,0.0,0.0,0.0,0.0,0.0,0.0,0.0,0.0,0.0,0.0,0.0,0.0,0.0,0.0,0.0,0.0,0.0,-6.5558,-7.0301,-7.419,-7.7014,-8.0038,-8.1599,-8.1525,-7.925,-7.679,0.0,0.0,0.0,0.0,0.0,0.0,0.0,0.0,0.0,0.0,0.0,0.0,0.0,0.0,0.0,0.0,0.0,0.0,0.0,0.0,0.0,0.0,0.0,0.0,0.0,0.0,0.0,0.0,0.0,0.0,0.0,0.0,0.0,0.0,0.0,0.0,0.0,0.0,0.0,0.0,-7.5718,-7.6515,-7.6928,0.0,0.0,0.0,0.0,0.0,0.0,-7.877,-7.9048,0.0,0.0,0.0,0.0,0.0,0.0,0.0,0.0,0.0,0.0,0.0,0.0,0.0,0.0,0.0,0.0,0.0,0.0,0.0,0.0,0.0,0.0,0.0,0.0,0.0,0.0,0.0,0.0,0.0,0.0,0.0,0.0,0.0,0.0,0.0,0.0,0.0,0.0,0.0,0.0,0.0,0.0,0.0,0.0,0.0,0.0,0.0,0.0,0.0,0.0,0.0,0.0,0.0,0.0,0.0,-6.5749,-7.092,-7.4649,-7.673,-8.0313,-8.1819,-8.1012,-7.9286,-7.6864,0.0,0.0,0.0,0.0,0.0,0.0,0.0,0.0,0.0,0.0,0.0,0.0,0.0,0.0,0.0,0.0,0.0,0.0,0.0,0.0,0.0,0.0,0.0,0.0,0.0,0.0,0.0,0.0,0.0,0.0,0.0,0.0,0.0,0.0,0.0,0.0,0.0,0.0,0.0,0.0,0.0,-7.8268,-7.863,-7.8973,0.0,0.0,0.0,0.0,-7.9576,-7.9778,0.0,0.0,0.0,0.0,0.0,0.0,0.0,0.0,0.0,0.0,0.0,0.0,0.0,0.0,0.0,0.0,0.0,0.0,0.0,0.0,0.0,0.0,0.0,0.0,0.0,0.0,0.0,0.0,0.0,0.0,0.0,0.0,0.0,0.0,0.0,0.0,0.0,0.0,0.0,0.0,0.0,0.0,0.0,0.0,0.0,0.0,0.0,0.0,0.0,0.0,0.0,0.0,0.0,0.0,0.0,0.0,-6.9283,-7.2686,-7.6338,-8.0177,-8.1575,-8.1819,-8.1012,-7.8699,-7.6276,0.0,0.0,0.0,0.0,0.0,0.0,0.0,0.0,0.0,0.0,0.0,0.0,0.0,0.0,0.0,0.0,0.0,0.0,0.0,0.0,0.0,0.0,0.0,0.0,0.0,0.0,0.0,0.0,0.0,0.0,0.0,0.0,0.0,0.0,0.0,0.0,0.0,0.0,0.0,0.0,0.0,-7.9342,-8.0808,-8.0468,-8.022,0.0,0.0,-8.0238,-8.1037,-8.1609,0.0,0.0,0.0,0.0,0.0,0.0,0.0,0.0,0.0,0.0,0.0,0.0,0.0,0.0,0.0,0.0,0.0,0.0,0.0,0.0,0.0,0.0,0.0,0.0,0.0,0.0,0.0,0.0,0.0,0.0,0.0,0.0,0.0,0.0,0.0,0.0,0.0,0.0,0.0,0.0,0.0,0.0,0.0,0.0,0.0,0.0,0.0,0.0,0.0,0.0,0.0,0.0,0.0,0.0,0.0,-6.5377,-6.9689,-7.3404,-7.6873,-8.0026,-8.148,-8.1819,-8.1012,-7.9066,-7.668,0.0,0.0,0.0,0.0,0.0,0.0,0.0,0.0,0.0,0.0,0.0,0.0,0.0,0.0,0.0,0.0,0.0,0.0,0.0,0.0,0.0,0.0,0.0,0.0,0.0,0.0,0.0,0.0,0.0,0.0,0.0,0.0,0.0,0.0,0.0,0.0,0.0,0.0,0.0,0.0,0.0,0.0,-8.1622,-8.1636,0.0,0.0,0.0,-8.1828,-8.319,0.0,0.0,0.0,0.0,0.0,0.0,0.0,0.0,0.0,0.0,0.0,0.0,0.0,0.0,0.0,0.0,0.0,0.0,0.0,0.0,0.0,0.0,0.0,0.0,0.0,0.0,0.0,0.0,0.0,0.0,0.0,0.0,0.0,0.0,0.0,0.0,0.0,0.0,0.0,0.0,0.0,0.0,0.0,0.0,0.0,0.0,0.0,0.0,0.0,0.0,0.0,0.0,0.0,0.0,0.0,0.0,0.0,-7.0231,-7.3976,-7.7293,-8.0073,-8.1489,-8.1819,-8.1012,-7.9433,0.0,0.0,0.0,0.0,0.0,0.0,0.0,0.0,0.0,0.0,0.0,0.0,0.0,0.0,0.0,0.0,0.0,0.0,0.0,0.0,0.0,0.0,0.0,0.0,0.0,0.0,0.0,-6.5705,0.0,0.0,0.0,0.0,0.0,0.0,0.0,0.0,0.0,0.0,0.0,0.0,0.0,0.0,-8.0246,-8.233,-8.2824,-8.2939,0.0,0.0,-8.3401,-8.4709,-8.3939,-8.3362,0.0,0.0,0.0,0.0,0.0,0.0,0.0,0.0,0.0,0.0,0.0,0.0,0.0,0.0,0.0,0.0,0.0,0.0,0.0,0.0,0.0,0.0,0.0,0.0,0.0,0.0,0.0,0.0,0.0,0.0,0.0,0.0,0.0,0.0,0.0,0.0,0.0,0.0,0.0,0.0,0.0,0.0,0.0,0.0,0.0,0.0,0.0,0.0,0.0,0.0,0.0,0.0,0.0,0.0,-6.6527,-7.1942,-7.4614,-7.7889,-8.1831,-8.2117,-8.1819,-8.1012,-7.9433,-7.7414,0.0,0.0,0.0,0.0,0.0,0.0,0.0,0.0,0.0,0.0,0.0,0.0,0.0,0.0,0.0,0.0,0.0,0.0,0.0,0.0,0.0,0.0,0.0,0.0,0.0,0.0,0.0,0.0,0.0,0.0,0.0,0.0,0.0,0.0,0.0,0.0,0.0,0.0,0.0,0.0,0.0,-8.1561,-8.3285,-8.4209,-8.4709,0.0,-8.4709,-8.4786,-8.4863,-8.4571,-8.3878,-8.267,0.0,0.0,0.0,0.0,0.0,0.0,0.0,0.0,0.0,0.0,0.0,0.0,0.0,0.0,0.0,0.0,0.0,0.0,0.0,0.0,0.0,0.0,0.0,0.0,0.0,0.0,0.0,0.0,0.0,0.0,0.0,0.0,0.0,0.0,0.0,0.0,0.0,0.0,0.0,0.0,0.0,0.0,0.0,0.0,0.0,0.0,0.0,0.0,0.0,0.0,0.0,0.0,0.0,-6.7693,-7.2264,-7.5807,-7.9072,-8.2039,-8.2186,-8.2039,-8.1746,-8.0645,-7.8919,0.0,0.0,0.0,0.0,0.0,0.0,0.0,0.0,0.0,0.0,0.0,0.0,0.0,0.0,0.0,0.0,0.0,0.0,0.0,0.0,0.0,0.0,0.0,0.0,0.0,0.0,0.0,0.0,-6.9302,-7.033,-7.011,0.0,0.0,0.0,0.0,0.0,0.0,0.0,0.0,0.0,0.0,-8.1708,-8.3362,-8.3862,0.0,0.0,-8.3632,-8.3478,-8.4016,-8.4873,-8.4735,-8.2647,-7.9154,0.0,0.0,0.0,0.0,0.0,0.0,0.0,0.0,0.0,0.0,0.0,0.0,0.0,0.0,0.0,0.0,0.0,0.0,0.0,0.0,0.0,0.0,0.0,0.0,0.0,0.0,0.0,0.0,0.0,0.0,0.0,0.0,0.0,0.0,0.0,0.0,0.0,0.0,0.0,0.0,0.0,0.0,0.0,0.0,0.0,0.0,0.0,0.0,0.0,0.0,0.0,0.0,-6.8355,-7.2299,-7.6432,-7.9764,-8.215,-8.2186,-8.2186,-8.215,-8.1415,-8.0094,0.0,0.0,0.0,0.0,0.0,0.0,0.0,0.0,0.0,0.0,0.0,0.0,0.0,0.0,0.0,0.0,0.0,0.0,0.0,0.0,0.0,0.0,0.0,0.0,0.0,0.0,0.0,0.0,-7.0293,-7.0965,-7.0079,0.0,0.0,0.0,0.0,0.0,0.0,0.0,0.0,0.0,0.0,-8.1593,-8.3016,-8.3439,-8.3593,-8.3593,-8.3093,-8.2824,-8.317,-8.4427,-8.4404,-8.1608,0.0,0.0,0.0,0.0,0.0,0.0,0.0,0.0,0.0,0.0,0.0,0.0,0.0,0.0,0.0,0.0,0.0,0.0,0.0,0.0,0.0,0.0,0.0,0.0,0.0,0.0,0.0,-5.7094,0.0,0.0,-5.8128,0.0,0.0,0.0,0.0,0.0,0.0,0.0,0.0,0.0,0.0,0.0,0.0,0.0,0.0,0.0,0.0,0.0,0.0,0.0,0.0,0.0,0.0,-6.8355,-7.2264,-7.6469,-7.9764,-8.2113,-8.2186,-8.2186,-8.2186,-8.1415,-8.0608,-7.969,0.0,0.0,0.0,0.0,0.0,0.0,0.0,0.0,0.0,0.0,0.0,0.0,0.0,0.0,0.0,0.0,0.0,0.0,0.0,0.0,0.0,0.0,0.0,0.0,0.0,0.0,-7.1036,-7.1248,-7.0863,0.0,0.0,0.0,0.0,0.0,0.0,0.0,0.0,0.0,-7.7207,-7.9477,-8.14,-8.2208,-8.3016,-8.3478,-8.3516,-8.3478,-8.3208,-8.2362,-8.3025,-8.2502,0.0,0.0,0.0,0.0,0.0,0.0,0.0,0.0,0.0,0.0,0.0,0.0,0.0,0.0,0.0,0.0,0.0,0.0,0.0,0.0,0.0,0.0,0.0,0.0,0.0,0.0,0.0,-5.9594,-5.9226,0.0,0.0,0.0,0.0,0.0,0.0,0.0,0.0,0.0,0.0,0.0,-7.0128,-6.9147,0.0,0.0,0.0,0.0,0.0,0.0,0.0,0.0,0.0,0.0,0.0,0.0,-6.8887,-7.2335,-7.701,-8.0277,-8.2113,-8.2186,-8.2186,-8.2186,-8.1929,-8.1158,-7.98,0.0,0.0,0.0,0.0,0.0,0.0,0.0,0.0,0.0,0.0,0.0,0.0,0.0,0.0,0.0,0.0,0.0,0.0,0.0,0.0,0.0,0.0,0.0,0.0,0.0,-7.1027,0.0,0.0,0.0,0.0,0.0,0.0,0.0,0.0,0.0,0.0,0.0,-7.6746,-7.8707,-7.9708,-8.0554,-8.14,-8.1246,-8.1093,0.0,0.0,0.0,0.0,0.0,0.0,0.0,0.0,0.0,0.0,0.0,0.0,0.0,0.0,-7.7361,-7.6245,-7.5553,-7.4654,-7.2943,0.0,0.0,0.0,0.0,0.0,0.0,0.0,0.0,0.0,0.0,0.0,0.0,0.0,0.0,-6.2965,-6.2368,-6.2758,0.0,0.0,0.0,0.0,0.0,0.0,0.0,0.0,-7.0635,-7.1345,-7.2022,-7.1312,-7.0703,-7.0195,-6.8707,-6.6846,0.0,0.0,0.0,0.0,0.0,0.0,0.0,0.0,-6.9527,-7.2726,-7.7374,-8.0571,-8.2076,-8.2186,-8.2186,-8.2186,-8.2186,-8.1562,-8.0241,-7.8112,-7.624,0.0,0.0,0.0,0.0,0.0,0.0,0.0,0.0,0.0,0.0,0.0,0.0,0.0,0.0,0.0,0.0,0.0,0.0,0.0,0.0,0.0,0.0,0.0,-7.1505,0.0,0.0,0.0,0.0,0.0,0.0,0.0,0.0,0.0,-7.5745,-7.6361,-7.7284,-7.9092,-7.9361,-7.9554,-8.0092,0.0,0.0,0.0,0.0,0.0,0.0,0.0,-7.8723,-7.853,-7.9007,-7.9507,-7.9761,-7.9823,-8.0092,-8.0977,0.0,0.0,-7.8938,-7.8169,-7.7269,-7.5556,-7.6601,-7.8261,-7.9922,-7.893,-7.7746,0.0,0.0,0.0,0.0,-6.052,0.0,0.0,0.0,-6.6924,-6.7002,0.0,-6.6359,0.0,0.0,0.0,0.0,-6.8055,-6.9553,0.0,0.0,-7.2124,-7.2868,-7.3477,-7.2834,-7.2496,-7.2394,-7.1007,-6.9891,-6.8944,-6.4783,0.0,0.0,0.0,0.0,0.0,0.0,-7.0238,-7.3437,-7.7598,-8.0539,-8.2113,-8.2186,-8.2186,-8.2186,-8.2186,-8.1819,-8.1048,-7.9507,-7.7892,-7.624,-7.3891,0.0,0.0,0.0,0.0,0.0,0.0,0.0,0.0,0.0,0.0,0.0,0.0,0.0,0.0,0.0,0.0,0.0,0.0,0.0,0.0,-7.2524,0.0,0.0,0.0,0.0,0.0,0.0,0.0,0.0,0.0,0.0,-7.6,-7.7154,-7.8,-7.8554,0.0,0.0,0.0,0.0,-7.9746,-7.9746,-8.0477,-8.0746,-7.9939,-7.9615,-7.9269,-7.8746,0.0,0.0,-8.2208,-8.2324,-8.2554,-8.3478,-8.3555,-8.3131,-8.1554,-8.117,-8.0577,-7.9069,-7.9984,-8.1647,-8.3079,-8.2086,-8.1054,-6.3156,0.0,0.0,0.0,0.0,-6.5658,-6.7733,-6.9059,-6.9976,-6.9468,-6.8046,-6.8928,0.0,0.0,0.0,0.0,0.0,0.0,-7.2157,-7.2902,-7.3646,-7.4356,-7.5033,-7.4864,-7.4492,-7.395,-7.3544,-7.2428,-7.0669,-6.8842,-6.6271,-6.3057,0.0,0.0,0.0,0.0,-7.0328,-7.4074,-7.7125,-7.98,-8.215,-8.2186,-8.2186,-8.2186,-8.2186,-8.2076,-8.1856,-8.0865,-7.9543,-7.7928,-7.6093,0.0,0.0,0.0,0.0,0.0,0.0,0.0,0.0,0.0,0.0,0.0,0.0,0.0,0.0,0.0,0.0,0.0,0.0,0.0,-7.3808,-7.3517,-7.2869,0.0,0.0,0.0,0.0,0.0,0.0,0.0,0.0,0.0,-7.8269,-7.9531,-8.0185,0.0,0.0,-7.9438,-7.9438,-7.9092,-7.8861,-7.8861,-7.9592,0.0,-7.9823,-8.0246,-8.0746,-8.1131,-8.2147,-8.2955,-8.317,-8.3208,-8.3516,-8.4362,-8.4516,-8.4516,-8.4632,-8.367,-8.2901,-8.2747,-8.2824,-8.3147,-8.3894,-8.3455,-8.2901,-6.5084,-6.3194,-6.5176,-6.57,-6.5597,-6.8698,-7.0863,-7.2171,-7.2856,-7.2326,-7.097,-7.1775,-7.1682,-7.0897,-7.05,0.0,0.0,0.0,-7.351,-7.395,-7.4695,-7.527,-7.5676,-7.5676,-7.5303,-7.4627,-7.4512,-7.3498,-7.1718,-7.1007,-6.935,-6.6846,0.0,-6.4884,-6.5128,-6.7787,-7.0934,-7.439,-7.6949,-7.9344,-8.1677,-8.2039,-8.2186,-8.2186,-8.2186,-8.2186,-8.2186,-8.1415,-8.0571,-7.958,-7.7635,-7.5909,0.0,0.0,0.0,0.0,0.0,0.0,0.0,0.0,0.0,0.0,0.0,-6.8898,-6.8935,0.0,0.0,0.0,-7.2173,-7.4482,-7.47,-7.3976,0.0,0.0,0.0,0.0,0.0,0.0,0.0,-7.6394,-7.6101,-7.6955,-7.9939,-8.1147,-8.1454,-8.0708,-7.9862,-7.9285,-7.9285,0.0,-7.9515,-7.9515,-8.0554,-8.1323,-8.1323,-8.1747,-8.2362,-8.3208,-8.3747,-8.4247,-8.4555,-8.4593,-8.4786,-8.5247,-8.5363,-8.5555,-8.6017,-8.5247,-8.467,-8.4994,-8.484,-8.4709,-8.5033,-8.4802,-8.4593,-6.664,-6.6162,-6.702,-6.7708,-6.854,-7.1447,-7.3358,-7.4587,-7.5357,-7.5188,-7.4431,-7.458,-7.4538,-7.4305,-7.3861,0.0,-7.2631,-7.4052,-7.4695,-7.4728,-7.5371,-7.5676,-7.5608,-7.5642,-7.527,-7.4525,-7.4309,-7.3566,-7.2428,-7.1718,-7.0973,-7.0161,-6.8098,-6.6711,-6.6185,-6.9026,-7.1835,-7.4388,-7.6913,-7.9162,-8.1053,-8.1819,-8.2186,-8.2186,-8.2186,-8.215,-8.2076,-8.1415,-8.0938,-8.0755,-7.8626,-7.7347,-7.7127,0.0,0.0,0.0,0.0,0.0,0.0,0.0,0.0,0.0,0.0,0.0,0.0,0.0,0.0,0.0,-7.4661,0.0,-7.5279,-7.4491,0.0,0.0,0.0,-7.4366,-7.6442,-7.722,-7.79,-7.8723,0.0,0.0,-8.117,-8.2224,-8.2185,-8.0323,-7.94,-7.89,-7.8915,-8.0362,-8.1285,-8.1285,-8.2631,-8.3632,-8.3555,-8.367,-8.4055,-8.4786,-8.5016,-8.5247,-8.5824,-8.6017,-8.6055,-8.6055,-8.6094,-8.6094,-8.6094,-8.6017,-8.6094,-8.6017,-8.6055,-8.6055,-8.6017,-8.5978,-8.594,-6.6909,-6.6851,-6.8191,-6.8531,-6.8531,-7.1896,-7.3539,-7.3924,-7.5176,-7.5574,-7.5405,-7.5439,-7.5067,-7.4572,-7.4965,-7.4762,-7.4119,-7.5033,-7.5439,-7.5439,-7.5608,-7.5405,-7.4897,-7.5445,-7.5039,-7.3781,-7.335,-7.2911,-7.2428,-7.2225,-7.1481,-7.0229,-6.9654,-6.9011,-6.8378,-6.9852,-7.1835,-7.4385,-7.6913,-7.9417,-8.1823,-8.2076,-8.2186,-8.2186,-8.2186,-8.1929,-8.1305,-8.1122,-8.0424,-7.925,-7.8626,-7.7604,-7.6173,-7.5145,0.0,0.0,0.0,0.0,0.0,0.0,0.0,0.0,0.0,-6.9816,-6.9816,0.0,-7.2936,0.0,-7.6282,-7.7979,-7.7267,-7.7478,0.0,0.0,-7.7931,-7.8377,-7.8951,-7.9684,-8.0516,-8.1323,-8.1,-8.1269,-8.2824,-8.3571,-8.3686,-8.2785,-8.2516,-8.2362,-8.2401,-8.267,-8.3016,-8.3054,-8.3901,-8.4593,-8.4632,-8.5132,-8.5517,-8.5786,-8.5786,-8.5901,-8.6055,-8.6094,-8.6094,-8.6094,-8.6094,-8.6094,-8.6094,-8.6094,-8.6094,-8.6094,-8.6094,-8.6094,-8.6094,-8.6094,-8.6094,-6.6999,-6.706,-6.7879,-6.7993,-6.7951,-7.1928,-7.3955,-7.4588,-7.5388,-7.5676,-7.5676,-7.5676,-7.5473,-7.5134,-7.5506,-7.5473,-7.5134,-7.554,-7.5676,-7.5676,-7.5371,-7.4999,-7.4627,-7.4687,-7.4111,-7.3003,-7.2426,-7.2054,-7.1921,-7.1921,-7.1515,-7.0703,-7.0364,-6.9992,-6.963,-7.0132,-7.1527,-7.3889,-7.7194,-7.9968,-8.2113,-8.1856,-8.1672,-8.1672,-8.1305,-8.0901,-8.0461,-8.0461,-8.0057,-7.9176,-7.8772,-7.8259,-7.7555,-7.6203,-7.4558,0.0,0.0,0.0,0.0,0.0,0.0,0.0,0.0,0.0,0.0,0.0,-7.4037,-7.4911,-7.7287,-7.8712,-7.8641,-7.8954,-7.9491,-8.0267,-8.0507,-8.0805,-8.1423,-8.19,-8.2401,-8.2824,-8.2516,-8.2692,-8.3978,-8.4456,-8.4686,-8.467,-8.4709,-8.4439,-8.3785,-8.3901,-8.417,-8.4209,-8.4901,-8.544,-8.544,-8.5786,-8.6094,-8.6094,-8.6094,-8.6094,-8.6094,-8.6094,-8.6094,-8.6094,-8.6094,-8.6094,-8.6094,-8.6094,-8.6094,-8.6094,-8.6094,-8.6094,-8.6094,-8.6094,-8.6094,-6.6999,-6.6999,-6.6999,-6.7121,-6.7548,-7.1388,-7.3854,-7.5161,-7.5532,-7.5676,-7.5676,-7.5676,-7.5676,-7.5676,-7.5676,-7.5676,-7.5676,-7.5676,-7.5642,-7.554,-7.4897,-7.4525,-7.4289,-7.368,-7.3003,-7.2259,-7.1604,-7.1334,-7.1447,-7.1447,-7.1515,-7.1548,-7.0838,-7.0466,-7.0466,-7.0466,-7.1503,-7.3682,-7.7741,-8.0571,-8.215,-8.1415,-8.1012,-8.0975,-8.0204,-7.9758,-7.9653,-7.9617,-7.958,-7.947,-7.8809,-7.873,-7.9412,-7.7298,-7.5219,0.0,-7.2834,0.0,0.0,0.0,0.0,0.0,0.0,0.0,0.0,-7.356,-7.4845,-7.6423,-7.824,-7.9459,-7.9786,-7.9923,-8.0763,-8.2585,-8.2283,-8.2431,-8.3621,-8.3862,-8.3901,-8.3901,-8.3901,-8.4247,-8.4939,-8.5055,-8.5363,-8.5863,-8.594,-8.5478,-8.4362,-8.4593,-8.5055,-8.5055,-8.5632,-8.6017,-8.6017,-8.6055,-8.6094,-8.6094,-8.6094,-8.6094,-8.6094,-8.6094,-8.6094,-8.6094,-8.6094,-8.6094,-8.6094,-8.6094,-8.6094,-8.6094,-8.6094,-8.6094,-8.6094,-8.6094,-8.6094,-6.6999,-6.6999,-6.6999,-6.7698,-6.8852,-6.9688,-7.0838,-7.2355,-7.4654,-7.5676,-7.5676,-7.5676,-7.5676,-7.5676,-7.5676,-7.5676,-7.5676,-7.5676,-7.5371,-7.483,-7.4695,-7.3984,-7.2868,-7.288,-7.244,-7.1548,-7.1368,-7.1605,-7.2191,-7.2191,-7.2496,-7.3037,-7.236,-7.1988,-7.1988,0.0,0.0,0.0,-7.8555,-8.0571,-8.2113,-8.1415,-8.1012,-8.0975,-8.0204,0.0,-7.8846,-7.8809,-7.8516,-7.7818,-7.7604,0.0,0.0,0.0,0.0,0.0,0.0,0.0,0.0,0.0,0.0,0.0,-7.5799,-7.5395,-7.3707,-7.5395,-7.7304,-7.8951,-8.0358,-8.1207,-8.1293,-8.2233,-8.2981,-8.3384,-8.3901,-8.4357,-8.467,-8.5209,-8.5632,-8.5632,-8.5593,-8.567,-8.5786,-8.5901,-8.5901,-8.6094,-8.6094,-8.5978,-8.567,-8.5709,-8.5863,-8.5901,-8.6017,-8.6094,-8.6094,-8.6094,-8.6094,-8.6094,-8.6094,-8.6094,-8.6094,-8.6094,-8.6094,-8.6094,-8.6094,-8.6094,-8.6094,-8.6094,-8.6094,-8.6094,-8.6094,-8.6094,-8.6094,-8.6094,-8.6094,-6.6999,-6.6999,-6.6999,-6.7427,0.0,-6.9257,-7.0165,-7.1016,-7.3554,-7.4862,-7.5134,-7.4762,-7.483,-7.5168,-7.5168,-7.5371,-7.5676,-7.5337,-7.4965,-7.4593,-7.3849,-7.3138,-7.2394,-7.2169,-7.1785,-7.1312,-7.1312,-7.1684,-7.236,-7.2394,-7.2766,-7.3477,-7.3105,-7.2935,-7.2981,-7.3972,-7.4846,-7.5609,-7.8792,-8.0975,-8.2113,-8.1415,-8.1012,-8.0975,-8.0204,0.0,0.0,0.0,0.0,0.0,0.0,0.0,0.0,-7.8002,0.0,-7.8094,-7.6857,-7.6093,-7.613,-7.6497,-7.69,-7.7304,-7.8075,-7.7855,-7.6203,-7.7598,-7.8883,-7.9758,-8.0748,-8.1591,-8.2244,-8.3281,-8.4156,-8.4758,-8.5247,-8.5478,-8.5555,-8.5863,-8.6094,-8.6094,-8.6094,-8.6094,-8.6094,-8.6094,-8.6094,-8.6094,-8.6094,-8.6094,-8.6094,-8.6094,-8.6094,-8.6094,-8.6094,-8.6094,-8.6094,-8.6094,-8.6094,-8.6094,-8.6094,-8.6094,-8.6094,-8.6094,-8.6094,-8.6094,-8.6094,-8.6094,-8.6094,-8.6094,-8.6094,-8.6094,-8.6094,-8.6094,-8.6094,-8.6094,-8.6094,-6.6999,-6.6999,-6.6999,-6.6909,-6.7003,-6.9045,-7.0106,-7.0598,-7.2704,0.0,0.0,-7.3747,-7.3815,-7.4424,-7.4424,-7.4728,-7.5236,-7.4695,-7.4356,-7.4153,-7.2969,-7.2326,-7.2191,-7.1582,-7.1312,-7.1312,-7.1447,-7.1887,-7.2563,-7.2732,-7.3172,-7.3815,-7.3883,-7.3988,-7.4275,-7.6069,-7.6427,-7.5539,-7.9059,-8.1379,-8.215,-8.1415,-8.1012,-8.1012,-8.0241,-7.9832,-7.9764,-7.9176,-7.8809,-7.8809,-7.8809,-7.8987,-7.9276,-7.9612,-7.9648,-7.9312,-7.8987,-7.8516,-7.7818,-7.8552,-7.9066,-7.9213,-7.9837,-7.9874,-7.9066,-7.9617,-8.0057,-8.0204,-8.0919,-8.1874,-8.3024,-8.3871,-8.4806,-8.5971,-8.6094,-8.6094,-8.6094,-8.6094,-8.6094,-8.6094,-8.6094,-8.6094,-8.6094,-8.6094,-8.6094,-8.6094,-8.6094,-8.6094,-8.6094,-8.6094,-8.6094,-8.6094,-8.6094,-8.6094,-8.6094,-8.6094,-8.6094,-8.6094,-8.6094,-8.6094,-8.6094,-8.6094,-8.6094,-8.6094,-8.6094,-8.6094,-8.6094,-8.6094,-8.6094,-8.6094,-8.6094,-8.6094,-8.6094,-8.6094,-8.6094,-6.6999,-6.6999,-6.6999,-6.667,-6.6252,-6.7781,-6.9441,-7.1224,-7.2797,-7.3574,-7.3646,-7.3544,-7.3544,-7.3646,-7.3646,-7.3713,-7.3781,-7.368,-7.3308,-7.2732,-7.2496,-7.2056,-7.1481,-7.1379,-7.1312,-7.1379,-7.1954,-7.2631,-7.3341,-7.3984,-7.4661,-7.527,-7.5371,-7.582,-7.6804,-7.8019,-7.8846,-7.9212,-8.0378,-8.1379,-8.215,-8.1415,-8.1012,-8.0975,-8.0241,-7.9832,-7.9832,-7.969,-7.9617,-7.9617,-7.9617,-7.9832,-8.0336,-8.0016,-7.9942,-8.0299,-7.9937,-7.9543,-7.947,-8.0204,-8.0975,-8.1636,-8.1782,-8.1525,-8.0755,-8.0755,-8.1122,-8.1778,-8.2382,-8.32,-8.3978,-8.4575,-8.5202,-8.5954,-8.6094,-8.6094,-8.6094,-8.6094,-8.6094,-8.6094,-8.6094,-8.6094,-8.6094,-8.6094,-8.6094,-8.6094,-8.6094,-8.6094,-8.6094,-8.6094,-8.6094,-8.6094,-8.6094,-8.6094,-8.6094,-8.6094,-8.6094,-8.6094,-8.6094,-8.6094,-8.6094,-8.6094,-8.6094,-8.6094,-8.6094,-8.6094,-8.6094,-8.6094,-8.6094,-8.6094,-8.6094,-8.6094,-8.6094,-8.6094,-8.6094,-6.6999,-6.6939,-6.661,-6.6281,-6.6072,-6.6752,-6.8181,-7.0157,-7.0866,-7.1828,-7.2834,-7.2496,-7.2529,-7.2868,-7.2902,-7.3138,-7.3477,-7.3071,-7.2699,-7.2394,-7.1988,-7.165,-7.1345,-7.1312,-7.1515,-7.1921,-7.2225,-7.2969,-7.4052,-7.4458,-7.4999,-7.5642,-7.5676,-7.5926,-7.6508,-7.8161,-7.9151,-7.9512,-8.0934,-8.1819,-8.2186,-8.1819,-8.1672,-8.1636,-8.1269,-8.1085,-8.1085,-8.0681,-8.0424,-8.0461,-8.0461,-8.0566,-8.0787,-8.1007,-8.1227,-8.1443,-8.1227,-8.1085,-8.1085,-8.1452,-8.1819,-8.215,-8.2186,-8.2039,-8.1672,-8.1636,-8.1819,-8.215,-8.2497,-8.3111,-8.408,-8.4443,-8.5016,-8.6026,-8.6094,-8.6094,-8.6094,-8.6094,-8.6094,-8.6094,-8.6094,-8.6094,-8.6094,-8.6094,-8.6094,-8.6094,-8.6094,-8.6094,-8.6094,-8.6094,-8.6094,-8.6094,-8.6094,-8.6094,-8.6094,-8.6094,-8.6094,-8.6094,-8.6094,-8.6094,-8.6094,-8.6094,-8.6094,-8.6094,-8.6094,-8.6094,-8.6094,-8.6094,-8.6094,-8.6094,-8.6094,-8.6094,-8.6094,-8.6094,-8.6094,-6.6999,-6.6939,-6.646,-6.6523,-6.6902,-6.6666,-6.7848,-6.9817,-6.9779,-7.061,-7.1931,-7.1548,-7.165,-7.2124,-7.2157,-7.2462,-7.2868,-7.2428,-7.2157,-7.209,-7.1582,-7.1413,-7.1548,-7.1548,-7.1954,-7.2597,-7.28,-7.351,-7.4525,-7.4762,-7.5134,-7.5642,-7.5676,-7.5818,-7.6114,-7.7736,-7.8862,-7.9419,-8.0982,-8.1952,-8.2186,-8.2186,-8.2186,-8.2186,-8.2186,-8.2186,-8.215,-8.1599,-8.1269,-8.1269,-8.1269,-8.1269,-8.1305,-8.1856,-8.2186,-8.2186,-8.2186,-8.2186,-8.2186,-8.2186,-8.2186,-8.2186,-8.2186,-8.2186,-8.2186,-8.2186,-8.2186,-8.2219,-8.2375,-8.2935,-8.3979,-8.4349,-8.4866,-8.5937,-8.6094,-8.6094,-8.6094,-8.6094,-8.6094,-8.6094,-8.6094,-8.6094,-8.6094,-8.6094,-8.6094,-8.6094,-8.6094,-8.6094,-8.6094,-8.6094,-8.6094,-8.6094,-8.6094,-8.6094,-8.6094,-8.6094,-8.6094,-8.6094,-8.6094,-8.6094,-8.6094,-8.6094,-8.6094,-8.6094,-8.6094,-8.6094,-8.6094,-8.6094,-8.6094,-8.6094,-8.6094,-8.6094,-8.6094,-8.6094,-8.6094,-6.6999,-6.6969,-6.6879,-6.8071,-6.9523,-6.8436,-6.9447,-7.1711,-7.1401,-7.1176,-7.1413,-7.1345,-7.1379,-7.1413,-7.1447,-7.1515,-7.1582,-7.1447,-7.1447,-7.1447,-7.1345,-7.165,-7.2225,-7.2293,-7.2699,-7.3375,-7.4018,-7.439,-7.4695,-7.527,-7.5608,-7.5676,-7.5676,-7.6207,-7.7026,-7.7345,-7.8494,-8.0403,-8.0659,-8.1195,-8.2154,-8.2186,-8.2186,-8.2186,-8.2186,-8.2186,-8.2186,-8.2113,-8.2076,-8.2076,-8.2039,-8.2076,-8.2076,-8.215,-8.2186,-8.2186,-8.2186,-8.2186,-8.2186,-8.2186,-8.2186,-8.2186,-8.2186,-8.2186,-8.2186,-8.2186,-8.2186,-8.2247,-8.2732,-8.3378,-8.4129,-8.4673,-8.528,-8.5954,-8.6094,-8.6094,-8.6094,-8.6094,-8.6094,-8.6094,-8.6094,-8.6094,-8.6094,-8.6094,-8.6094,-8.6094,-8.6094,-8.6094,-8.6094,-8.6094,-8.6094,-8.6094,-8.6094,-8.6094,-8.6094,-8.6094,-8.6094,-8.6094,-8.6094,-8.6094,-8.6094,-8.6094,-8.6094,-8.6094,-8.6094,-8.6094,-8.6094,-8.6094,-8.6094,-8.6094,-8.6094,-8.6094,-8.6094,-8.6094,-8.6094,-6.6999,-6.6969,-6.658,-6.7171,-6.8217,-6.7386,-6.8531,-7.0995,-7.0376,-7.0528,-7.1334,-7.1751,-7.1718,-7.1312,-7.1312,-7.1312,-7.1312,-7.1312,-7.1312,-7.1345,-7.1751,-7.2124,-7.2428,-7.2868,-7.3443,-7.4119,-7.4458,-7.483,-7.5236,-7.554,-7.5676,-7.5676,-7.5676,-7.5926,-7.645,-7.765,-7.8781,-7.9614,-8.0911,-8.1748,-8.2121,-8.2186,-8.2186,-8.2186,-8.2186,-8.2186,-8.2186,-8.2186,-8.2186,-8.2186,-8.2186,-8.2186,-8.2186,-8.2186,-8.2186,-8.2186,-8.2186,-8.2186,-8.2186,-8.2186,-8.2186,-8.2186,-8.2186,-8.2186,-8.2186,-8.2186,-8.2186,-8.2247,-8.2823,-8.3461,-8.4129,-8.474,-8.5379,-8.5954,-8.6094,-8.6094,-8.6094,-8.6094,-8.6094,-8.6094,-8.6094,-8.6094,-8.6094,-8.6094,-8.6094,-8.6094,-8.6094,-8.6094,-8.6094,-8.6094,-8.6094,-8.6094,-8.6094,-8.6094,-8.6094,-8.6094,-8.6094,-8.6094,-8.6094,-8.6094,-8.6094,-8.6094,-8.6094,-8.6094,-8.6094,-8.6094,-8.6094,-8.6094,-8.6094,-8.6094,-8.6094,-8.6094,-8.6094,-8.6094,-8.6094,-6.6999,-6.6909,-6.646,-6.6877,-6.7708,-6.7416,-6.851,-7.0486,-7.0428,-7.0857,-7.1639,-7.2394,-7.2394,-7.1954,-7.1921,-7.1819,-7.165,-7.1819,-7.1921,-7.1988,-7.2462,-7.28,-7.3037,-7.3544,-7.4187,-7.4796,-7.4931,-7.5168,-7.5642,-7.5676,-7.5676,-7.5676,-7.5676,-7.5676,-7.5865,-7.738,-7.8411,-7.9103,-8.0587,-8.1613,-8.2051,-8.2186,-8.2186,-8.2186,-8.2186,-8.2186,-8.2186,-8.2186,-8.2186,-8.2186,-8.2186,-8.2186,-8.2186,-8.2186,-8.2186,-8.2186,-8.2186,-8.2186,-8.2186,-8.2186,-8.2186,-8.2186,-8.2186,-8.2186,-8.2186,-8.2186,-8.2186,-8.2251,-8.2823,-8.3461,-8.4129,-8.4893,-8.557,-8.6043,-8.6094,-8.6094,-8.6094,-8.6094,-8.6094,-8.6094,-8.6094,-8.6094,-8.6094,-8.6094,-8.6094,-8.6094,-8.6094,-8.6094,-8.6094,-8.6094,-8.6094,-8.6094,-8.6094,-8.6094,-8.6094,-8.6094,-8.6094,-8.6094,-8.6094,-8.6094,-8.6094,-8.6094,-8.6094,-8.6094,-8.6094,-8.6094,-8.6094,-8.6094,-8.6094,-8.6094,-8.6094,-8.6094,-8.6094,-8.6094,-8.6094,-6.6999,-6.6969,-6.6969,-6.7817,-6.9131,-6.9753,-7.0506,-7.1474,-7.2619,-7.2923,-7.2496,-7.3138,-7.3409,-7.3308,-7.3341,-7.3003,-7.2496,-7.3003,-7.324,-7.324,-7.3375,-7.3815,-7.4492,-7.4559,-7.4931,-7.5506,-7.554,-7.5608,-7.5676,-7.5676,-7.5676,-7.5676,-7.5676,-7.5676,-7.5757,-7.5973,-7.6972,-7.8862,-7.9341,-8.0219,-8.1919,-8.2186,-8.2186,-8.2186,-8.2186,-8.2186,-8.2186,-8.2186,-8.2186,-8.2186,-8.2186,-8.2186,-8.2186,-8.2186,-8.2186,-8.2186,-8.2186,-8.2186,-8.2186,-8.2186,-8.2186,-8.2186,-8.2186,-8.2186,-8.2186,-8.2186,-8.2186,-8.2186,-8.2823,-8.3461,-8.4179,-8.5179,-8.5919,-8.6077,-8.6094,-8.6094,-8.6094,-8.6094,-8.6094,-8.6094,-8.6094,-8.6094,-8.6094,-8.6094,-8.6094,-8.6094,-8.6094,-8.6094,-8.6094,-8.6094,-8.6094,-8.6094,-8.6094,-8.6094,-8.6094,-8.6094,-8.6094,-8.6094,-8.6094,-8.6094,-8.6094,-8.6094,-8.6094,-8.6094,-8.6094,-8.6094,-8.6094,-8.6094,-8.6094,-8.6094,-8.6094,-8.6094,-8.6094,-8.6094,-8.6094,-6.6999,-6.7091,-6.8058,-6.9259,-7.0664,-7.1367,-7.2314,-7.3376,-7.3413,-7.3341,-7.3274,-7.3883,-7.395,-7.3544,-7.4492,-7.4221,-7.3206,-7.3375,-7.3477,-7.3544,-7.3984,-7.4356,-7.4627,-7.5067,-7.5405,-7.5642,-7.5676,-7.5676,-7.5676,-7.5676,-7.5676,-7.5676,-7.5676,-7.5676,-7.5818,-7.637,-7.7511,-7.8903,-7.965,-8.0768,-8.2018,-8.2186,-8.2186,-8.2186,-8.2186,-8.2186,-8.2186,-8.2186,-8.2186,-8.2186,-8.2186,-8.2186,-8.2186,-8.2186,-8.2186,-8.2186,-8.2186,-8.2186,-8.2186,-8.2186,-8.2186,-8.2186,-8.2186,-8.2186,-8.2186,-8.2186,-8.2186,-8.2311,-8.2823,-8.3461,-8.4154,-8.4974,-8.5645,-8.6026,-8.6094,-8.6094,-8.6094,-8.6094,-8.6094,-8.6094,-8.6094,-8.6094,-8.6094,-8.6094,-8.6094,-8.6094,-8.6094,-8.6094,-8.6094,-8.6094,-8.6094,-8.6094,-8.6094,-8.6094,-8.6094,-8.6094,-8.6094,-8.6094,-8.6094,-8.6094,-8.6094,-8.6094,-8.6094,-8.6094,-8.6094,-8.6094,-8.6094,-8.6094,-8.6094,-8.6094,-8.6094,-8.6094,-8.6094,-8.6094,-8.6094,-6.6999,-6.7213,-6.859,-6.9745,-7.0775,-7.2203,-7.321,-7.3956,-7.4101,-7.4086,-7.4018,-7.4627,-7.4661,-7.439,-7.5236,-7.5202,-7.4255,-7.4221,-7.4187,-7.4255,-7.4728,-7.4965,-7.5033,-7.5473,-7.5676,-7.5676,-7.5676,-7.5676,-7.5676,-7.5676,-7.5676,-7.5676,-7.5676,-7.5676,-7.5818,-7.645,-7.7467,-7.8862,-7.9765,-8.0695,-8.1985,-8.2186,-8.2186,-8.2186,-8.2186,-8.2186,-8.2186,-8.2186,-8.2186,-8.2186,-8.2186,-8.2186,-8.2186,-8.2186,-8.2186,-8.2186,-8.2186,-8.2186,-8.2186,-8.2186,-8.2186,-8.2186,-8.2186,-8.2186,-8.2186,-8.2186,-8.2186,-8.2279,-8.2591,-8.3189,-8.4029,-8.4583,-8.5179,-8.5902,-8.6094,-8.6094,-8.6094,-8.6094,-8.6094,-8.6094,-8.6094,-8.6094,-8.6094,-8.6094,-8.6094,-8.6094,-8.6094,-8.6094,-8.6094,-8.6094,-8.6094,-8.6094,-8.6094,-8.6094,-8.6094,-8.6094,-8.6094,-8.6094,-8.6094,-8.6094,-8.6094,-8.6094,-8.6094,-8.6094,-8.6094,-8.6094,-8.6094,-8.6094,-8.6094,-8.6094,-8.6094,-8.6094,-8.6094,-8.6094,-8.617,-6.6999,-6.7213,-6.859,-6.9401,-6.9998,-7.2554,-7.3206,-7.321,-7.4757,-7.5134,-7.4762,-7.5337,-7.554,-7.5608,-7.5608,-7.5642,-7.5506,-7.5439,-7.5473,-7.5506,-7.5574,-7.5608,-7.5608,-7.5642,-7.5676,-7.5676,-7.5676,-7.5676,-7.5676,-7.5676,-7.5676,-7.5676,-7.5676,-7.5676,-7.5676,-7.5913,-7.6882,-7.8577,-7.9143,-8.0144,-8.1919,-8.2186,-8.2186,-8.2186,-8.2186,-8.2186,-8.2186,-8.2186,-8.2186,-8.2186,-8.2186,-8.2186,-8.2186,-8.2186,-8.2186,-8.2186,-8.2186,-8.2186,-8.2186,-8.2186,-8.2186,-8.2186,-8.2186,-8.2186,-8.2186,-8.2186,-8.2186,-8.2219,-8.2279,-8.2763,-8.3914,-8.4228,-8.48,-8.5867,-8.6094,-8.6094,-8.6094,-8.6094,-8.6094,-8.6094,-8.6094,-8.6094,-8.6094,-8.6094,-8.6094,-8.6094,-8.6094,-8.6094,-8.6094,-8.6094,-8.6094,-8.6094,-8.6094,-8.6094,-8.6094,-8.6094,-8.6094,-8.6094,-8.6094,-8.6094,-8.6094,-8.6094,-8.6094,-8.6094,-8.6094,-8.6094,-8.6094,-8.6094,-8.6094,-8.6094,-8.6094,-8.6094,-8.6132,-8.617,-8.6324,-6.6999,-6.7335,-6.9688,-7.0759,-7.1114,-7.382,-7.4896,-7.4728,-7.5465,-7.5574,-7.5439,-7.5608,-7.5676,-7.5676,-7.5676,-7.5676,-7.5676,-7.5676,-7.5676,-7.5676,-7.5676,-7.5676,-7.5676,-7.5676,-7.5676,-7.5676,-7.5676,-7.5676,-7.5676,-7.5676,-7.5676,-7.5676,-7.5676,-7.5676,-7.5676,-7.5723,-7.6781,-7.874,-7.8983,-8.0069,-8.1985,-8.2186,-8.2186,-8.2186,-8.2186,-8.2186,-8.2186,-8.2186,-8.2186,-8.2186,-8.2186,-8.2186,-8.2186,-8.2186,-8.2186,-8.2186,-8.2186,-8.2186,-8.2186,-8.2186,-8.2186,-8.2186,-8.2186,-8.2186,-8.2186,-8.2186,-8.2186,-8.2186,-8.2219,-8.2732,-8.385,-8.4179,-8.474,-8.5954,-8.6094,-8.6094,-8.6094,-8.6094,-8.6094,-8.6094,-8.6094,-8.6094,-8.6094,-8.6094,-8.6094,-8.6094,-8.6094,-8.6094,-8.6094,-8.6094,-8.6094,-8.6094,-8.6094,-8.6094,-8.6094,-8.6094,-8.6094,-8.6094,-8.6094,-8.6094,-8.6094,-8.6094,-8.6094,-8.6094,-8.6094,-8.6094,-8.6094,-8.6094,-8.6094,-8.6094,-8.6094,-8.6132,-8.617,-8.6363,-8.6632,-6.7335,-6.8087,-7.0424,-7.1713,-7.2441,-7.4736,-7.5676,-7.5676,-7.5676,-7.5676,-7.5676,-7.5676,-7.5676,-7.5676,-7.5676,-7.5676,-7.5676,-7.5676,-7.5676,-7.5676,-7.5676,-7.5676,-7.5676,-7.5676,-7.5676,-7.5676,-7.5676,-7.5676,-7.5676,-7.5676,-7.5676,-7.5676,-7.5676,-7.5676,-7.5676,-7.5723,-7.6781,-7.8659,-7.9023,-8.0032,-8.1748,-8.2186,-8.2186,-8.2186,-8.2186,-8.2186,-8.2186,-8.2186,-8.2186,-8.2186,-8.2186,-8.2186,-8.2186,-8.2186,-8.2186,-8.2186,-8.2186,-8.2186,-8.2186,-8.2186,-8.2186,-8.2186,-8.2186,-8.2186,-8.2186,-8.2186,-8.2186,-8.2186,-8.2186,-8.2732,-8.3914,-8.4179,-8.4762,-8.5954,-8.6094,-8.6094,-8.6094,-8.6094,-8.6094,-8.6094,-8.6094,-8.6094,-8.6094,-8.6094,-8.6094,-8.6094,-8.6094,-8.6094,-8.6094,-8.6094,-8.6094,-8.6094,-8.6094,-8.6094,-8.6094,-8.6094,-8.6094,-8.6094,-8.6094,-8.6094,-8.6094,-8.6094,-8.6094,-8.6094,-8.6094,-8.6094,-8.6094,-8.6094,-8.6094,-8.6094,-8.6132,-8.6401,-8.6594,-8.694,-8.7248,-6.7939,-6.9375,-7.0893,-7.2335,-7.3599,-7.5064,-7.5676,-7.5676,-7.5676,-7.5676,-7.5676,-7.5676,-7.5676,-7.5676,-7.5676,-7.5676,-7.5676,-7.5676,-7.5676,-7.5676,-7.5676,-7.5676,-7.5676,-7.5676,-7.5676,-7.5676,-7.5676,-7.5676,-7.5676,-7.5676,-7.5676,-7.5676,-7.5676,-7.5676,-7.5676,-7.5676,-7.6736,-7.8453,-7.8903,-8.0032,-8.1919,-8.2186,-8.2186,-8.2186,-8.2186,-8.2186,-8.2186,-8.2186,-8.2186,-8.2186,-8.2186,-8.2186,-8.2186,-8.2186,-8.2186,-8.2186,-8.2223,-8.2333,-8.2296,-8.2553,-8.248,-8.2406,-8.2406,-8.2223,-8.2223,-8.2186,-8.2186,-8.2186,-8.2316,-8.2823,-8.3914,-8.43,-8.491,-8.5828,-8.6094,-8.6094,-8.6094,-8.6094,-8.6094,-8.6094,-8.6094,-8.6094,-8.6094,-8.6094,-8.6094,-8.6094,-8.6094,-8.6094,-8.6094,-8.6094,-8.6094,-8.6094,-8.6094,-8.6094,-8.6094,-8.6094,-8.6094,-8.6094,-8.6094,-8.6094,-8.6094,-8.6094,-8.6094,-8.6094,-8.6094,-8.6094,-8.6094,-8.6094,-8.6094,-8.6077,-8.6324,-8.6748,-8.7248,-8.7709,-8.8132,-6.8883,-6.949,-7.1982,-7.3258,-7.377,-7.5112,-7.5676,-7.5676,-7.5676,-7.5676,-7.5676,-7.5676,-7.5676,-7.5676,-7.5676,-7.5676,-7.5676,-7.5676,-7.5676,-7.5676,-7.5676,-7.5676,-7.5676,-7.5676,-7.5676,-7.5676,-7.5676,-7.5676,-7.5676,-7.5676,-7.5676,-7.5676,-7.5676,-7.5676,-7.5676,-7.5676,-7.6404,-7.7693,-7.8659,-7.965,-8.0947,-8.1885,-8.2186,-8.2186,-8.2186,-8.2186,-8.2186,-8.2186,-8.2186,-8.2186,-8.2186,-8.2186,-8.2223,-8.2223,-8.2296,-8.2406,-8.281,-8.3104,-8.3214,-8.3618,-8.3654,-8.3177,-8.3104,-8.2847,-8.2223,-8.2186,-8.2186,-8.2279,-8.2616,-8.3246,-8.4054,-8.4605,-8.526,-8.5919,-8.6094,-8.6094,-8.6094,-8.6094,-8.6094,-8.6094,-8.6094,-8.6094,-8.6094,-8.6094,-8.6094,-8.6094,-8.6094,-8.6094,-8.6094,-8.6094,-8.6094,-8.6094,-8.6094,-8.6094,-8.6094,-8.6094,-8.6094,-8.6094,-8.6094,-8.6094,-8.6094,-8.6094,-8.6094,-8.6094,-8.6094,-8.6094,-8.6094,-8.6132,-8.6115,-8.6192,-8.6786,-8.7363,-8.8209,-8.8825,-8.9171,-6.9916,-7.1169,-7.2914,-7.3955,-7.4539,-7.5388,-7.5676,-7.5676,-7.5676,-7.5676,-7.5676,-7.5676,-7.5676,-7.5676,-7.5676,-7.5676,-7.5676,-7.5676,-7.5676,-7.5676,-7.5676,-7.5676,-7.5676,-7.5676,-7.5676,-7.5676,-7.5676,-7.5676,-7.5676,-7.5676,-7.5676,-7.5676,-7.5676,-7.5676,-7.5676,-7.5723,-7.6462,-7.7864,-7.874,-7.9688,-8.1195,-8.1849,-8.2378,-8.2517,-8.2443,-8.2296,-8.2627,-8.27,-8.259,-8.2296,-8.2186,-8.2333,-8.2663,-8.27,-8.2847,-8.3177,-8.3691,-8.3911,-8.3985,-8.4352,-8.4389,-8.4022,-8.3911,-8.3508,-8.292,-8.27,-8.2663,-8.2288,-8.2823,-8.3461,-8.4179,-8.4974,-8.5645,-8.6005,-8.6094,-8.6094,-8.6094,-8.6094,-8.6094,-8.6094,-8.6094,-8.6094,-8.6094,-8.6094,-8.6094,-8.6094,-8.6094,-8.6094,-8.6094,-8.6094,-8.6094,-8.6094,-8.6094,-8.6094,-8.6094,-8.6094,-8.6094,-8.6094,-8.6094,-8.6094,-8.6094,-8.6094,-8.6094,-8.6094,-8.6094,-8.6132,-8.6209,-8.6324,-8.6423,-8.6731,-8.7363,-8.8286,-8.9248,-8.9556,-8.9979,-7.1059,-7.3617,-7.3752,-7.4539,-7.5532,-7.5676,-7.5676,-7.5676,-7.5676,-7.5676,-7.5676,-7.5676,-7.5676,-7.5676,-7.5676,-7.5676,-7.5676,-7.5676,-7.5676,-7.5676,-7.5676,-7.5676,-7.5676,-7.5676,-7.5676,-7.5676,-7.5676,-7.5676,-7.5676,-7.5676,-7.5676,-7.5676,-7.5676,-7.5676,-7.5676,-7.5676,-7.6781,-7.7992,-7.874,-7.9834,-8.1378,-8.2145,-8.281,-8.3361,-8.303,-8.2994,-8.3361,-8.3508,-8.3251,-8.2517,-8.2443,-8.292,-8.3471,-8.3544,-8.3801,-8.4352,-8.4572,-8.4719,-8.4756,-8.4903,-8.4866,-8.4756,-8.4719,-8.4389,-8.3765,-8.3508,-8.3251,-8.2627,-8.3031,-8.3881,-8.4537,-8.5475,-8.5937,-8.6094,-8.6094,-8.6094,-8.6094,-8.6094,-8.6094,-8.6094,-8.6094,-8.6094,-8.6094,-8.6094,-8.6094,-8.6094,-8.6094,-8.6094,-8.6094,-8.6094,-8.6094,-8.6094,-8.6094,-8.6094,-8.6094,-8.6094,-8.6094,-8.6094,-8.6094,-8.6094,-8.6094,-8.6094,-8.6094,-8.6094,-8.6094,-8.6247,-8.6517,-8.6632,-8.6846,-8.7385,-8.8115,-8.9363,-9.0573,-9.0325,-9.0441,-7.1961,-7.3701,-7.4785,-7.5436,-7.5676,-7.5676,-7.5676,-7.5676,-7.5676,-7.5676,-7.5676,-7.5676,-7.5676,-7.5676,-7.5676,-7.5676,-7.5676,-7.5676,-7.5676,-7.5676,-7.5676,-7.5676,-7.5676,-7.5676,-7.5676,-7.5676,-7.5676,-7.5676,-7.5676,-7.5676,-7.5676,-7.5676,-7.5676,-7.5676,-7.5676,-7.5723,-7.5818,-7.669,-7.8112,-7.9578,-8.0932,-8.2456,-8.3508,-8.4168,-8.4095,-8.4168,-8.4278,-8.4352,-8.4242,-8.4132,-8.4095,-8.4205,-8.4315,-8.4352,-8.4499,-8.4792,-8.527,-8.5527,-8.5637,-8.6004,-8.6187,-8.56,-8.549,-8.5196,-8.4462,-8.4352,-8.4058,-8.3765,-8.4356,-8.5043,-8.5589,-8.5884,-8.6077,-8.6094,-8.6094,-8.6094,-8.6094,-8.6094,-8.6094,-8.6094,-8.6094,-8.6094,-8.6094,-8.6094,-8.6094,-8.6094,-8.6094,-8.6094,-8.6094,-8.6094,-8.6094,-8.6094,-8.6094,-8.6094,-8.6094,-8.6094,-8.6094,-8.6094,-8.6094,-8.6094,-8.6094,-8.6247,-8.6324,-8.6247,-8.6094,-8.6363,-8.6786,-8.7325,-8.7615,-8.8231,-8.8846,-8.9979,-9.0748,-9.0748,-9.0787,-7.3309,-7.4638,-7.5388,-7.5676,-7.5676,-7.5676,-7.5676,-7.5676,-7.5676,-7.5676,-7.5676,-7.5676,-7.5676,-7.5676,-7.5676,-7.5676,-7.5676,-7.5676,-7.5676,-7.5676,-7.5676,-7.5676,-7.5676,-7.5676,-7.5676,-7.5676,-7.5676,-7.5676,-7.5676,-7.5676,-7.5676,-7.5676,-7.5676,-7.5676,-7.5676,-7.5676,-7.602,-7.685,-7.8462,-8.0004,-8.1105,-8.2864,-8.4095,-8.4646,-8.4939,-8.5159,-8.5159,-8.5159,-8.538,-8.5637,-8.571,-8.5527,-8.5233,-8.5159,-8.5343,-8.5783,-8.604,-8.6371,-8.6518,-8.6701,-8.6775,-8.6407,-8.6371,-8.5894,-8.5416,-8.5159,-8.4682,-8.435,-8.5021,-8.6153,-8.6611,-8.6247,-8.617,-8.6094,-8.6132,-8.6094,-8.6094,-8.6094,-8.6094,-8.6094,-8.6094,-8.6094,-8.6094,-8.6094,-8.6094,-8.6094,-8.6094,-8.6094,-8.6094,-8.6094,-8.6094,-8.6094,-8.6094,-8.6094,-8.6094,-8.6094,-8.6094,-8.6094,-8.6094,-8.6094,-8.6094,-8.6363,-8.6632,-8.6517,-8.644,-8.6824,-8.7248,-8.7825,-8.8479,-8.9,-8.9654,-9.0462,-9.0902,-9.0941,-9.1018,-7.4406,-7.5676,-7.5676,-7.5676,-7.5676,-7.5676,-7.5676,-7.5676,-7.5676,-7.5676,-7.5676,-7.5676,-7.5676,-7.5676,-7.5676,-7.5676,-7.5676,-7.5676,-7.5676,-7.5676,-7.5676,-7.5676,-7.5676,-7.5676,-7.5676,-7.5676,-7.5676,-7.5676,-7.5676,-7.5676,-7.5676,-7.5676,-7.5676,-7.5676,-7.5676,-7.5723,-7.6122,-7.7136,-7.9009,-8.0688,-8.1982,-8.3734,-8.4832,-8.527,-8.5637,-8.5967,-8.5967,-8.6004,-8.6261,-8.6958,-8.7031,-8.6664,-8.6224,-8.604,-8.6224,-8.6921,-8.6885,-8.6885,-8.6848,-8.6958,-8.6995,-8.7031,-8.6995,-8.6701,-8.6151,-8.593,-8.5527,-8.5609,-8.6208,-8.7589,-8.7571,-8.7171,-8.6709,-8.6632,-8.6555,-8.644,-8.6324,-8.6286,-8.6363,-8.6094,-8.6094,-8.6094,-8.6094,-8.6094,-8.6094,-8.6094,-8.6132,-8.617,-8.617,-8.617,-8.6209,-8.6094,-8.6094,-8.6094,-8.6094,-8.6632,-8.6555,-8.6594,-8.6517,-8.6632,-8.6632,-8.7094,-8.7401,-8.694,-8.694,-8.744,-8.8055,-8.8748,-8.9325,-8.9769,-9.0231,-9.0864,-9.1095,-9.1171,-9.121,-7.4406,-7.5676,-7.5676,-7.5676,-7.5676,-7.5676,-7.5676,-7.5676,-7.5676,-7.5676,-7.5676,-7.5676,-7.5676,-7.5676,-7.5676,-7.5676,-7.5676,-7.5676,-7.5676,-7.5676,-7.5676,-7.5676,-7.5676,-7.5676,-7.5676,-7.5676,-7.5676,-7.5676,-7.5676,-7.5676,-7.5676,-7.5676,-7.5676,-7.5676,-7.5777,-7.5743,-7.6211,-7.7374,-7.932,-8.1064,-8.2445,-8.4392,-8.5857,-8.6297,-8.6554,-8.6664,-8.6738,-8.6775,-8.6885,-8.6995,-8.7031,-8.6921,-8.6775,-8.6701,-8.6811,-8.6958,-8.7031,-8.7031,-8.7031,-8.7031,-8.7031,-8.7031,-8.7031,-8.7031,-8.6811,-8.6772,-8.6507,-8.7137,-8.8307,-8.9733,-8.8567,-8.8132,-8.8209,-8.8209,-8.8017,-8.7825,-8.7363,-8.7132,-8.694,-8.6594,-8.6363,-8.6094,-8.6094,-8.6132,-8.6247,-8.6324,-8.644,-8.6555,-8.6671,-8.6555,-8.6401,-8.6286,-8.6094,-8.6094,-8.6094,-8.6863,-8.7286,-8.744,-8.7517,-8.7863,-8.7979,-8.8248,-8.8248,-8.7902,-8.7979,-8.8517,-8.9171,-8.9671,-9.0133,-9.0462,-9.0864,-9.121,-9.121,-9.121,-9.121,-7.5112,-7.5676,-7.5676,-7.5676,-7.5676,-7.5676,-7.5676,-7.5676,-7.5676,-7.5676,-7.5676,-7.5676,-7.5676,-7.5676,-7.5676,-7.5676,-7.5743,-7.5676,-7.5676,-7.5676,-7.5676,-7.5676,-7.5743,-7.5709,-7.5676,-7.5676,-7.5676,-7.5743,-7.5676,-7.5676,-7.5709,-7.5676,-7.5709,-7.5879,-7.6251,-7.6386,-7.6758,-7.7843,-7.9905,-8.1686,-8.2744,-8.5045,-8.6561,-8.6885,-8.7031,-8.7031,-8.7031,-8.7031,-8.7031,-8.7031,-8.7031,-8.7031,-8.7031,-8.7031,-8.7031,-8.7031,-8.7031,-8.7031,-8.7031,-8.7031,-8.7031,-8.7031,-8.7031,-8.7031,-8.7031,-8.7027,-8.7291,-8.8167,-8.8401,-8.9611,-8.9297,-8.9,-8.8709,-8.8671,-8.8709,-8.8556,-8.8209,-8.8094,-8.7748,-8.7248,-8.6709,-8.6363,-8.6094,-8.6209,-8.6363,-8.6555,-8.6748,-8.6978,-8.7209,-8.7171,-8.7094,-8.7132,-8.7094,-8.7094,-8.7094,-8.7555,-8.8055,-8.8209,-8.8479,-8.8863,-8.9017,-8.9133,-8.9171,-8.8979,-8.9286,-8.9556,-8.9787,-9.0171,-9.0671,-9.1095,-9.1133,-9.121,-9.121,-9.121,-9.121,-7.5676,-7.5676,-7.5676,-7.5676,-7.5709,-7.5879,-7.5946,-7.5946,-7.6149,-7.6183,-7.6,-7.6183,-7.6284,-7.6299,-7.6251,-7.6217,-7.6149,-7.6217,-7.6284,-7.6318,-7.6318,-7.6217,-7.6149,-7.5865,-7.5884,-7.6454,-7.6352,-7.598,-7.5709,-7.5676,-7.5777,-7.598,-7.598,-7.6318,-7.6961,-7.713,-7.757,-7.8784,-8.0682,-8.2282,-8.3868,-8.5627,-8.7031,-8.7031,-8.7031,-8.7031,-8.7031,-8.7031,-8.7031,-8.7031,-8.7031,-8.7031,-8.7031,-8.7031,-8.7031,-8.7031,-8.7031,-8.7031,-8.7031,-8.7031,-8.7031,-8.7031,-8.7031,-8.7031,-8.7031,-8.7129,-8.7517,-8.8634,-8.8959,-8.9199,-8.9936,-8.9633,-8.9363,-8.9325,-8.9325,-8.9171,-8.9017,-8.8863,-8.8748,-8.8094,-8.7209,-8.6978,-8.7017,-8.7286,-8.7688,-8.7478,-8.7671,-8.7748,-8.7979,-8.8171,-8.8171,-8.8325,-8.8363,-8.8325,-8.8402,-8.8556,-8.8863,-8.8979,-8.9363,-8.9748,-8.9825,-8.9863,-8.9863,-8.994,-9.0094,-9.0325,-9.0479,-9.0594,-9.0941,-9.1133,-9.1171,-9.121,-9.121,-9.121,-9.121,-7.5676,-7.5709,-7.5709,-7.5676,-7.5845,-7.6487,-7.6758,-7.6826,-7.7367,-7.7453,-7.7067,-7.7453,-7.7788,-7.7938,-7.772,-7.7638,-7.7604,-7.7502,-7.7435,-7.7401,-7.7468,-7.7468,-7.742,-7.6249,-7.6665,-7.7333,-7.7653,-7.6893,-7.6251,-7.5946,-7.6149,-7.6623,-7.6792,-7.713,-7.7773,-7.7874,-7.8247,-7.9129,-8.0612,-8.299,-8.5737,-8.6748,-8.696,-8.7031,-8.7031,-8.7031,-8.7031,-8.7031,-8.7031,-8.7031,-8.7031,-8.7031,-8.7031,-8.7031,-8.7031,-8.7031,-8.7031,-8.7031,-8.7031,-8.7031,-8.7031,-8.7031,-8.7031,-8.7031,-8.7031,-8.7098,-8.7581,-8.8937,-8.9272,-8.9892,-9.0608,-9.0846,-9.0825,-9.071,-9.0517,-9.0248,-8.9979,-8.9787,-8.9594,-8.9325,-8.8594,-8.8479,-8.8479,-8.8803,-8.8996,-8.8765,-8.8556,-8.8671,-8.8863,-8.9133,-8.921,-8.9325,-8.9402,-8.9402,-8.944,-8.9633,-8.9671,-8.9748,-9.0094,-9.0517,-9.0479,-9.0517,-9.0748,-9.0825,-9.0902,-9.0864,-9.0902,-9.0979,-9.1171,-9.121,-9.121,-9.121,-9.121,-9.121,-9.121,-7.598,-7.6386,-7.6386,-7.6623,-7.7029,-7.7367,-7.7502,-7.757,-7.7841,-7.801,-7.801,-7.7976,-7.8127,-7.8296,-7.8093,-7.7976,-7.801,-7.8044,-7.801,-7.8044,-7.8077,-7.8044,-7.7841,-7.7355,-7.7573,-7.8044,-7.8597,-7.8443,-7.7464,-7.7029,-7.7232,-7.7435,-7.757,-7.7874,-7.8551,-7.8619,-7.9484,-8.0823,-8.2587,-8.4629,-8.6353,-8.7031,-8.7031,-8.7031,-8.7031,-8.7031,-8.7031,-8.7031,-8.7031,-8.7031,-8.7031,-8.7031,-8.7031,-8.7031,-8.7031,-8.7031,-8.7031,-8.7031,-8.7031,-8.7031,-8.7031,-8.7031,-8.7031,-8.7031,-8.7031,-8.7064,-8.7581,-8.8952,-8.9272,-8.9953,-9.0915,-9.1175,-9.121,-9.121,-9.121,-9.1018,-9.071,-9.071,-9.0517,-9.0287,-9.0017,-8.9863,-8.9556,-8.9325,-8.9496,-8.9556,-8.9479,-8.9633,-8.994,-9.0364,-9.0364,-9.0325,-9.0364,-9.0325,-9.0441,-9.0556,-9.0517,-9.0556,-9.0594,-9.0941,-9.1018,-9.1133,-9.121,-9.121,-9.1095,-9.1095,-9.121,-9.121,-9.121,-9.121,-9.121,-9.121,-9.121,-9.121,-9.121,-7.6149,-7.6893,-7.6893,-7.7299,-7.801,-7.8179,-7.828,-7.828,-7.8517,-7.877,-7.8887,-7.877,-7.8585,-7.8551,-7.8653,-7.872,-7.8619,-7.8551,-7.8551,-7.8551,-7.8551,-7.8619,-7.8686,-7.8585,-7.8551,-7.8517,-7.9528,-7.9426,-7.8921,-7.8517,-7.845,-7.828,-7.828,-7.8686,-7.9194,-7.9546,-8.0258,-8.2262,-8.4028,-8.566,-8.6784,-8.7031,-8.7031,-8.7031,-8.7031,-8.7031,-8.7031,-8.7031,-8.7031,-8.7031,-8.7031,-8.7031,-8.7031,-8.7031,-8.7031,-8.7031,-8.7031,-8.7031,-8.7031,-8.7031,-8.7031,-8.7031,-8.7031,-8.7031,-8.7031,-8.7029,-8.7581,-8.8952,-8.9122,-8.9885,-9.08,-9.121,-9.121,-9.121,-9.121,-9.121,-9.1171,-9.1056,-9.0979,-9.0825,-9.0671,-9.0864,-9.0479,-8.9863,-8.9863,-9.0171,-9.0364,-9.0556,-9.0787,-9.1095,-9.1018,-9.0825,-9.0825,-9.0825,-9.0902,-9.1056,-9.1171,-9.121,-9.121,-9.121,-9.121,-9.121,-9.121,-9.121,-9.121,-9.121,-9.121,-9.121,-9.121,-9.121,-9.121,-9.121,-9.121,-9.121,-9.1248,-7.6149,-7.6893,-7.6893,-7.7367,-7.8077,-7.8754,-7.9025,-7.9092,-7.9701,-7.9904,-7.9954,-7.9972,-7.9837,-7.9904,-7.9803,-7.9837,-7.9972,-8.004,-7.987,-7.987,-8.0006,-7.9803,-7.9769,-7.9735,-7.987,-7.987,-8.014,-8.0106,-7.9938,-7.9634,-7.9464,-7.9126,-7.9025,-7.9498,-8.0003,-8.0369,-8.1481,-8.325,-8.4855,-8.5954,-8.6714,-8.7031,-8.7031,-8.7031,-8.7031,-8.7031,-8.7031,-8.7031,-8.7031,-8.7031,-8.7031,-8.7031,-8.7031,-8.7031,-8.7031,-8.7031,-8.7031,-8.7031,-8.7031,-8.7031,-8.7031,-8.7031,-8.7031,-8.7031,-8.7031,-8.7031,-8.7672,-8.8818,-8.9095,-8.9801,-9.0684,-9.121,-9.121,-9.121,-9.121,-9.121,-9.121,-9.1171,-9.1133,-9.1171,-9.121,-9.121,-9.1171,-9.0517,-9.0364,-9.0671,-9.0748,-9.0902,-9.0941,-9.1171,-9.1171,-9.1095,-9.1133,-9.1133,-9.1133,-9.121,-9.121,-9.121,-9.121,-9.121,-9.121,-9.121,-9.121,-9.121,-9.121,-9.121,-9.121,-9.121,-9.121,-9.121,-9.121,-9.121,-9.121,-9.121,-9.1287,-7.6183,-7.6927,-7.7367,-7.7976,-7.8754,-7.9464,-7.9769,-7.9803,-8.0073,-8.0209,-8.0209,-8.0209,-8.0209,-8.0209,-8.0209,-8.0209,-8.0209,-8.0209,-8.0209,-8.0209,-8.0175,-8.0209,-8.0209,-8.0209,-8.0175,-8.0209,-8.0209,-8.0209,-8.0141,-8.0209,-8.0107,-7.9837,-7.9701,-7.9904,-8.0358,-8.144,-8.2954,-8.4115,-8.5511,-8.6643,-8.6821,-8.7031,-8.7031,-8.7031,-8.7031,-8.7031,-8.7031,-8.7031,-8.7031,-8.7031,-8.7031,-8.7031,-8.7031,-8.7031,-8.7031,-8.7031,-8.7031,-8.7031,-8.7031,-8.7031,-8.7031,-8.7031,-8.7031,-8.7031,-8.7031,-8.7031,-8.7773,-8.8551,-8.9122,-8.9754,-9.0858,-9.1192,-9.121,-9.121,-9.121,-9.121,-9.121,-9.121,-9.121,-9.121,-9.121,-9.121,-9.121,-9.1133,-9.1095,-9.1133,-9.1171,-9.121,-9.121,-9.121,-9.121,-9.121,-9.121,-9.121,-9.121,-9.121,-9.121,-9.121,-9.121,-9.121,-9.121,-9.121,-9.121,-9.121,-9.121,-9.121,-9.121,-9.121,-9.121,-9.121,-9.121,-9.121,-9.121,-9.1287,-9.1595,-7.6014,-7.6623,-7.7367,-7.8247,-7.916,-7.987,-8.0209,-8.0209,-8.0209,-8.0209,-8.0209,-8.0209,-8.0209,-8.0209,-8.0209,-8.0209,-8.0209,-8.0209,-8.0209,-8.0209,-8.0209,-8.0209,-8.0209,-8.0209,-8.0209,-8.0209,-8.0209,-8.0209,-8.0209,-8.0209,-8.0141,-8.0141,-8.0209,-8.0175,-8.0706,-8.2346,-8.3946,-8.4876,-8.6101,-8.696,-8.7031,-8.7031,-8.7031,-8.7031,-8.7031,-8.7031,-8.7031,-8.7031,-8.7031,-8.7031,-8.7031,-8.7031,-8.7031,-8.7031,-8.7031,-8.7031,-8.7031,-8.7031,-8.7031,-8.7031,-8.7031,-8.7031,-8.7031,-8.7031,-8.7031,-8.7066,-8.7581,-8.8532,-8.8963,-8.9597,-9.0839,-9.0989,-9.1136,-9.121,-9.121,-9.121,-9.121,-9.121,-9.121,-9.121,-9.121,-9.121,-9.121,-9.121,-9.121,-9.121,-9.121,-9.121,-9.121,-9.121,-9.121,-9.121,-9.121,-9.121,-9.121,-9.121,-9.121,-9.121,-9.121,-9.121,-9.121,-9.121,-9.121,-9.121,-9.121,-9.121,-9.1325,-9.1518,-9.1402,-9.1248,-9.1441,-9.1748,-9.1902,-9.2095,-9.2441,-7.5709,-7.5811,-7.6657,-7.7807,-7.9058,-7.987,-8.0175,-8.0209,-8.0209,-8.0209,-8.0209,-8.0209,-8.0209,-8.0209,-8.0209,-8.0209,-8.0209,-8.0209,-8.0209,-8.0209,-8.0209,-8.0209,-8.0209,-8.0209,-8.0209,-8.0209,-8.0209,-8.0209,-8.0209,-8.0209,-8.0209,-8.0276,-8.0376,-8.0591,-8.0492,-8.2471,-8.3946,-8.4843,-8.639,-8.6854,-8.7031,-8.7031,-8.7031,-8.7031,-8.7031,-8.7031,-8.7031,-8.7031,-8.7031,-8.7031,-8.7031,-8.7031,-8.7031,-8.7031,-8.7031,-8.7031,-8.7031,-8.7031,-8.7031,-8.7031,-8.7031,-8.7031,-8.7031,-8.7031,-8.7031,-8.7064,-8.7328,-8.8279,-8.8774,-8.9402,-9.0155,-9.0762,-9.1026,-9.121,-9.121,-9.121,-9.121,-9.121,-9.121,-9.121,-9.121,-9.121,-9.121,-9.121,-9.121,-9.121,-9.121,-9.121,-9.121,-9.121,-9.121,-9.121,-9.121,-9.121,-9.121,-9.121,-9.121,-9.121,-9.121,-9.121,-9.121,-9.121,-9.121,-9.121,-9.1248,-9.1248,-9.1595,-9.1902,-9.1979,-9.2133,-9.2287,-9.2518,-9.271,-9.2864,-9.3172,-7.5676,-7.5811,-7.7063,-7.7908,-7.845,-7.916,-7.9735,-8.0141,-8.0209,-8.0209,-8.0209,-8.0209,-8.0209,-8.0209,-8.0209,-8.0209,-8.0209,-8.0209,-8.0209,-8.0209,-8.0209,-8.0209,-8.0209,-8.0209,-8.0209,-8.0209,-8.0209,-8.0209,-8.0209,-8.0209,-8.0209,-8.0276,-8.0868,-8.177,-8.2381,-8.3578,-8.4304,-8.5956,-8.6783,-8.7031,-8.7031,-8.7031,-8.7031,-8.7031,-8.7031,-8.7031,-8.7031,-8.7031,-8.7031,-8.7031,-8.7031,-8.7031,-8.7031,-8.7031,-8.7031,-8.7031,-8.7031,-8.7031,-8.7031,-8.7031,-8.7031,-8.7031,-8.7031,-8.7031,-8.7031,-8.7031,-8.7427,-8.8015,-8.8663,-8.9377,-9.0073,-9.0762,-9.1118,-9.1192,-9.121,-9.121,-9.121,-9.121,-9.121,-9.121,-9.121,-9.121,-9.121,-9.121,-9.121,-9.121,-9.121,-9.121,-9.121,-9.121,-9.121,-9.121,-9.121,-9.121,-9.121,-9.121,-9.121,-9.121,-9.121,-9.121,-9.121,-9.121,-9.121,-9.121,-9.1287,-9.1402,-9.2133,-9.2787,-9.2979,-9.3133,-9.3403,-9.3403,-9.3403,-9.3557,-9.3749,-7.5676,-7.5811,-7.6758,-7.7502,-7.8111,-7.9058,-7.9769,-8.0141,-8.0209,-8.0209,-8.0209,-8.0209,-8.0209,-8.0209,-8.0209,-8.0209,-8.0209,-8.0209,-8.0209,-8.0209,-8.0209,-8.0209,-8.0209,-8.0209,-8.0209,-8.0209,-8.0209,-8.0209,-8.0209,-8.0209,-8.0209,-8.0492,-8.1331,-8.2335,-8.3199,-8.4083,-8.5084,-8.6463,-8.7031,-8.7031,-8.7031,-8.7031,-8.7031,-8.7031,-8.7031,-8.7031,-8.7031,-8.7031,-8.7031,-8.7031,-8.7031,-8.7031,-8.7031,-8.7031,-8.7031,-8.7031,-8.7031,-8.7031,-8.7031,-8.7031,-8.7031,-8.7031,-8.7031,-8.7031,-8.7031,-8.7031,-8.7197,-8.7773,-8.8523,-8.9136,-8.9763,-9.0526,-9.11,-9.1136,-9.121,-9.121,-9.121,-9.121,-9.121,-9.121,-9.121,-9.121,-9.121,-9.121,-9.121,-9.121,-9.121,-9.121,-9.121,-9.121,-9.121,-9.121,-9.121,-9.121,-9.121,-9.121,-9.121,-9.121,-9.121,-9.121,-9.121,-9.121,-9.121,-9.1325,-9.1672,-9.221,-9.3133,-9.3749,-9.4057,-9.4403,-9.4749,-9.4595,-9.4249,-9.4364,-9.4634,-7.5676,-7.5709,-7.5709,-7.6657,-7.8044,-7.9363,-8.0073,-8.0175,-8.0209,-8.0209,-8.0209,-8.0209,-8.0209,-8.0209,-8.0209,-8.0209,-8.0209,-8.0209,-8.0209,-8.0209,-8.0209,-8.0209,-8.0209,-8.0209,-8.0209,-8.0209,-8.0209,-8.0209,-8.0209,-8.0209,-8.0209,-8.0542,-8.1616,-8.2661,-8.3628,-8.4848,-8.5843,-8.6749,-8.7031,-8.7031,-8.7031,-8.7031,-8.7031,-8.7031,-8.7031,-8.7031,-8.7031,-8.7031,-8.7031,-8.7031,-8.7031,-8.7031,-8.7031,-8.7031,-8.7031,-8.7031,-8.7031,-8.7031,-8.7031,-8.7031,-8.7031,-8.7031,-8.7031,-8.7031,-8.7031,-8.7031,-8.7132,-8.7489,-8.8153,-8.8691,-8.9301,-9.0176,-9.1026,-9.1118,-9.1192,-9.121,-9.121,-9.121,-9.121,-9.121,-9.121,-9.121,-9.121,-9.121,-9.121,-9.121,-9.121,-9.121,-9.121,-9.121,-9.121,-9.121,-9.121,-9.121,-9.121,-9.121,-9.121,-9.121,-9.121,-9.121,-9.121,-9.1248,-9.1402,-9.1672,-9.2249,-9.2979,-9.3903,-9.4672,-9.5211,-9.5557,-9.5634,-9.5518,-9.5095,-9.5441,-9.5749,-7.5676,-7.5743,-7.6318,-7.6826,-7.7401,-7.8788,-7.9701,-8.0141,-8.0209,-8.0209,-8.0209,-8.0209,-8.0209,-8.0209,-8.0209,-8.0209,-8.0209,-8.0209,-8.0209,-8.0209,-8.0209,-8.0209,-8.0209,-8.0209,-8.0209,-8.0209,-8.0209,-8.0209,-8.0209,-8.0209,-8.0209,-8.0476,-8.2095,-8.3103,-8.413,-8.5506,-8.6356,-8.6891,-8.6997,-8.7031,-8.7031,-8.7031,-8.7031,-8.7031,-8.7031,-8.7031,-8.7031,-8.7031,-8.7031,-8.7031,-8.7031,-8.7031,-8.7031,-8.7031,-8.7031,-8.7031,-8.7031,-8.7031,-8.7031,-8.7031,-8.7031,-8.7031,-8.7031,-8.7031,-8.7031,-8.7031,-8.7031,-8.7394,-8.7978,-8.8636,-8.925,-9.0028,-9.082,-9.1118,-9.1192,-9.121,-9.121,-9.121,-9.121,-9.121,-9.121,-9.121,-9.121,-9.121,-9.121,-9.121,-9.121,-9.121,-9.121,-9.121,-9.121,-9.121,-9.121,-9.121,-9.121,-9.121,-9.121,-9.121,-9.121,-9.121,-9.121,-9.1325,-9.1556,-9.221,-9.3133,-9.3903,-9.4672,-9.5326,-9.5826,-9.598,-9.6057,-9.6057,-9.6057,-9.6211,-9.6288,-7.5676,-7.5777,-7.6217,-7.6589,-7.713,-7.8483,-7.9397,-7.9803,-8.0073,-8.0209,-8.0209,-8.0209,-8.0209,-8.0209,-8.0209,-8.0209,-8.0209,-8.0209,-8.0209,-8.0209,-8.0209,-8.0209,-8.0209,-8.0209,-8.0209,-8.0209,-8.0209,-8.0209,-8.0209,-8.0276,-8.0276,-8.1077,-8.2839,-8.3706,-8.4653,-8.5954,-8.6749,-8.6997,-8.7031,-8.7031,-8.7031,-8.7031,-8.7031,-8.7031,-8.7031,-8.7031,-8.7031,-8.7031,-8.7031,-8.7031,-8.7031,-8.7031,-8.7031,-8.7031,-8.7031,-8.7031,-8.7031,-8.7031,-8.7031,-8.7031,-8.7031,-8.7031,-8.7031,-8.7031,-8.7031,-8.7031,-8.7031,-8.7197,-8.7978,-8.8719,-8.9327,-8.9939,-9.0566,-9.1175,-9.1192,-9.121,-9.121,-9.121,-9.121,-9.121,-9.121,-9.121,-9.121,-9.121,-9.121,-9.121,-9.121,-9.121,-9.121,-9.121,-9.121,-9.121,-9.121,-9.121,-9.121,-9.121,-9.121,-9.121,-9.121,-9.121,-9.1248,-9.1787,-9.2364,-9.3249,-9.4249,-9.4864,-9.5365,-9.5788,-9.6211,-9.6288,-9.6288,-9.6211,-9.6172,-9.6211,-9.6288,-7.5676,-7.5676,-7.5676,-7.6217,-7.7063,-7.8382,-7.9025,-7.9194,-7.9904,-8.0209,-8.0209,-8.0209,-8.0209,-8.0209,-8.0209,-8.0209,-8.0209,-8.0209,-8.0209,-8.0209,-8.0209,-8.0209,-8.0209,-8.0209,-8.0209,-8.0209,-8.0209,-8.0209,-8.0209,-8.0225,-8.0656,-8.1863,-8.3016,-8.3881,-8.4733,-8.6247,-8.6997,-8.7031,-8.7031,-8.7031,-8.7031,-8.7031,-8.7031,-8.7031,-8.7031,-8.7031,-8.7031,-8.7031,-8.7031,-8.7031,-8.7031,-8.7031,-8.7031,-8.7031,-8.7031,-8.7031,-8.7031,-8.7031,-8.7031,-8.7031,-8.7031,-8.7031,-8.7031,-8.7031,-8.7031,-8.7031,-8.7031,-8.7163,-8.7892,-8.8617,-8.9225,-8.9939,-9.0606,-9.1026,-9.1192,-9.121,-9.121,-9.121,-9.121,-9.121,-9.121,-9.121,-9.121,-9.121,-9.121,-9.121,-9.121,-9.121,-9.121,-9.121,-9.121,-9.121,-9.121,-9.121,-9.121,-9.121,-9.121,-9.121,-9.121,-9.1441,-9.1672,-9.2402,-9.3249,-9.4095,-9.4903,-9.5441,-9.5942,-9.6211,-9.6288,-9.6288,-9.6288,-9.6288,-9.6288,-9.6288,-9.6288,-7.5676,-7.5676,-7.5676,-7.6149,-7.6961,-7.7874,-7.8619,-7.916,-7.987,-8.0209,-8.0209,-8.0209,-8.0209,-8.0209,-8.0209,-8.0209,-8.0209,-8.0209,-8.0209,-8.0209,-8.0209,-8.0209,-8.0209,-8.0209,-8.0209,-8.0209,-8.0209,-8.0209,-8.0209,-8.0259,-8.0376,-8.0966,-8.2481,-8.3922,-8.4613,-8.6138,-8.6997,-8.7031,-8.7031,-8.7031,-8.7031,-8.7031,-8.7031,-8.7031,-8.7031,-8.7031,-8.7031,-8.7031,-8.7031,-8.7031,-8.7031,-8.7031,-8.7031,-8.7031,-8.7031,-8.7031,-8.7031,-8.7031,-8.7031,-8.7031,-8.7031,-8.7031,-8.7031,-8.7031,-8.7031,-8.7031,-8.7098,-8.7328,-8.7804,-8.8503,-8.9173,-8.9961,-9.0626,-9.0914,-9.121,-9.121,-9.121,-9.121,-9.121,-9.121,-9.121,-9.121,-9.121,-9.121,-9.121,-9.121,-9.121,-9.121,-9.121,-9.121,-9.121,-9.121,-9.121,-9.121,-9.121,-9.121,-9.121,-9.121,-9.121,-9.1556,-9.2056,-9.3133,-9.4172,-9.4749,-9.5441,-9.5865,-9.6134,-9.6211,-9.6288,-9.6288,-9.6288,-9.6288,-9.6288,-9.6288,-9.6288,-7.5676,-7.5676,-7.5676,-7.5946,-7.6521,-7.7502,-7.8247,-7.8754,-7.9735,-8.0209,-8.0209,-8.0209,-8.0209,-8.0209,-8.0209,-8.0209,-8.0209,-8.0209,-8.0209,-8.0209,-8.0209,-8.0209,-8.0209,-8.0209,-8.0209,-8.0209,-8.0209,-8.0209,-8.0209,-8.0326,-8.0492,-8.1522,-8.3147,-8.4047,-8.4848,-8.6428,-8.7031,-8.7031,-8.7031,-8.7031,-8.7031,-8.7031,-8.7031,-8.7031,-8.7031,-8.7031,-8.7031,-8.7031,-8.7031,-8.7031,-8.7031,-8.7031,-8.7031,-8.7031,-8.7031,-8.7031,-8.7031,-8.7031,-8.7031,-8.7031,-8.7031,-8.7031,-8.7031,-8.7031,-8.7031,-8.7031,-8.7031,-8.7298,-8.8212,-8.8963,-8.9377,-9.0028,-9.0704,-9.1118,-9.121,-9.121,-9.121,-9.121,-9.121,-9.121,-9.121,-9.121,-9.121,-9.121,-9.121,-9.121,-9.121,-9.121,-9.121,-9.121,-9.121,-9.121,-9.121,-9.121,-9.121,-9.121,-9.121,-9.121,-9.1248,-9.1979,-9.2749,-9.4018,-9.5075,-9.548,-9.5826,-9.6057,-9.6288,-9.6288,-9.6288,-9.6288,-9.6288,-9.6288,-9.6288,-9.6288,-9.6288,-7.5676,-7.5676,-7.5676,-7.5709,-7.5946,-7.7333,-7.801,-7.828,-7.9566,-8.0209,-8.0209,-8.0209,-8.0209,-8.0209,-8.0209,-8.0209,-8.0209,-8.0209,-8.0209,-8.0209,-8.0209,-8.0209,-8.0209,-8.0209,-8.0209,-8.0209,-8.0209,-8.0209,-8.0209,-8.0326,-8.116,-8.2972,-8.3958,-8.4613,-8.6211,-8.696,-8.7031,-8.7031,-8.7031,-8.7031,-8.7031,-8.7031,-8.7031,-8.7031,-8.7031,-8.7031,-8.7031,-8.7031,-8.7031,-8.7031,-8.7031,-8.7031,-8.7031,-8.7031,-8.7031,-8.7031,-8.7031,-8.7031,-8.7031,-8.7031,-8.7031,-8.7031,-8.7031,-8.7031,-8.7031,-8.7031,-8.7031,-8.7456,-8.8351,-8.9084,-8.9525,-9.0155,-9.08,-9.1192,-9.1192,-9.121,-9.121,-9.121,-9.121,-9.121,-9.121,-9.121,-9.121,-9.121,-9.121,-9.121,-9.121,-9.121,-9.121,-9.121,-9.121,-9.121,-9.121,-9.121,-9.121,-9.121,-9.121,-9.1402,-9.1595,-9.2479,-9.348,-9.4711,-9.5595,-9.598,-9.6249,-9.6288,-9.6288,-9.6288,-9.6288,-9.6288,-9.6288,-9.6288,-9.6288,-9.6288,-9.6288,-7.5676,-7.5676,-7.5676,-7.5676,-7.5946,-7.7333,-7.801,-7.8247,-7.9532,-8.0209,-8.0209,-8.0209,-8.0209,-8.0209,-8.0209,-8.0209,-8.0209,-8.0209,-8.0209,-8.0209,-8.0209,-8.0209,-8.0209,-8.0209,-8.0209,-8.0209,-8.0209,-8.0209,-8.0276,-8.0326,-8.0868,-8.2426,-8.3457,-8.437,-8.5506,-8.6283,-8.7031,-8.7031,-8.7031,-8.7031,-8.7031,-8.7031,-8.7031,-8.7031,-8.7031,-8.7031,-8.7031,-8.7031,-8.7031,-8.7031,-8.7031,-8.7031,-8.7031,-8.7031,-8.7031,-8.7031,-8.7031,-8.7031,-8.7031,-8.7031,-8.7031,-8.7031,-8.7031,-8.7031,-8.7031,-8.7031,-8.7064,-8.7231,-8.807,-8.8883,-8.9451,-9.0364,-9.1026,-9.1136,-9.121,-9.121,-9.121,-9.121,-9.121,-9.121,-9.121,-9.121,-9.121,-9.121,-9.121,-9.121,-9.121,-9.121,-9.121,-9.121,-9.121,-9.121,-9.121,-9.121,-9.121,-9.121,-9.1248,-9.1479,-9.2056,-9.3172,-9.4249,-9.5365,-9.6095,-9.6249,-9.6288,-9.6288,-9.6288,-9.6288,-9.6288,-9.6288,-9.6288,-9.6288,-9.6288,-9.6288,-9.6288]},{"header":{"parameterUnit":"m.s-1","parameterCategory":1,"la1":31.0,"la2":29.5877,"lo1":-88.7671,"lo2":-86.6584,"dy":0.0162,"dx":0.0185,"nx":115,"ny":88,"refTime":"2023-03-15T18:00:00:Z","depth":0,"parameterNumber":3,"parameterNumberName":"V-component_of_WINDS"},"data":[0.0,0.0,0.0,0.0,0.0,0.0,0.0,0.0,0.0,0.0,0.0,0.0,0.0,0.0,0.0,0.0,0.0,0.0,0.0,0.0,0.0,0.0,0.0,0.0,0.0,0.0,0.0,0.0,0.0,0.0,0.0,0.0,0.0,0.0,0.0,0.0,0.0,0.0,0.0,0.0,0.0,0.0,0.0,0.0,0.0,0.0,0.0,0.0,0.0,0.0,0.0,0.0,0.0,0.0,0.0,0.0,0.0,0.0,0.0,0.0,0.0,0.0,0.0,0.0,0.0,0.0,0.0,0.0,0.0,0.0,0.0,0.0,0.0,0.0,0.0,0.0,0.0,0.0,0.0,0.0,0.0,0.0,0.0,0.0,0.0,0.0,0.0,0.0,0.0,0.0,0.0,0.0,0.0,0.0,0.0,0.0,0.0,0.0,0.0,0.0,0.0,0.0,0.0,0.0,0.0,0.0,0.0,0.0,0.0,0.0,0.0,0.0,0.0,0.0,0.0,0.0,0.0,0.0,0.0,0.0,0.0,0.0,0.0,0.0,0.0,0.0,0.0,0.0,0.0,0.0,0.0,0.0,0.0,0.0,0.0,0.0,0.0,0.0,0.0,0.0,0.0,0.0,0.0,0.0,0.0,0.0,0.0,0.0,0.0,0.0,0.0,0.0,0.0,0.0,0.0,0.0,0.0,0.0,0.0,0.0,0.0,0.0,0.0,0.0,0.0,0.0,0.0,0.0,0.0,0.0,0.0,0.0,0.0,0.0,0.0,0.0,0.0,0.0,0.0,0.0,0.0,0.0,0.0,0.0,0.0,0.0,0.0,0.0,0.0,0.0,0.0,0.0,0.0,0.0,0.0,0.0,0.0,0.0,0.0,0.0,0.0,0.0,0.0,0.0,0.0,0.0,0.0,0.0,0.0,0.0,0.0,0.0,0.0,0.0,0.0,0.0,0.0,0.0,0.0,0.0,0.0,0.0,0.0,0.0,0.0,0.0,0.0,0.0,0.0,0.0,0.0,0.0,0.0,0.0,0.0,0.0,0.0,0.0,0.0,0.0,0.0,0.0,0.0,0.0,0.0,0.0,0.0,0.0,0.0,0.0,0.0,0.0,0.0,0.0,0.0,0.0,0.0,0.0,0.0,0.0,0.0,0.0,0.0,0.0,0.0,0.0,0.0,0.0,0.0,0.0,0.0,0.0,0.0,0.0,0.0,0.0,0.0,0.0,0.0,0.0,0.0,0.0,0.0,0.0,0.0,0.0,0.0,0.0,0.0,0.0,0.0,0.0,0.0,0.0,0.0,0.0,0.0,0.0,0.0,0.0,0.0,0.0,0.0,0.0,0.0,0.0,0.0,0.0,0.0,0.0,0.0,0.0,0.0,0.0,0.0,0.0,0.0,0.0,0.0,0.0,0.0,0.0,0.0,0.0,0.0,0.0,0.0,0.0,0.0,0.0,0.0,0.0,0.0,0.0,0.0,0.0,0.0,0.0,0.0,0.0,0.0,0.0,0.0,0.0,0.0,0.0,0.0,0.0,0.0,0.0,0.0,0.0,0.0,0.0,0.0,0.0,0.0,0.0,0.0,0.0,0.0,0.0,0.0,0.0,0.0,0.0,0.0,0.0,0.0,0.0,0.0,0.0,0.0,0.0,0.0,0.0,0.0,0.0,0.0,0.0,0.0,0.0,0.0,0.0,0.0,0.0,0.0,0.0,0.0,0.0,0.0,0.0,0.0,0.0,0.0,0.0,0.0,0.0,0.0,0.0,0.0,0.0,0.0,0.0,0.0,0.0,0.0,0.0,0.0,0.0,0.0,0.0,0.0,0.0,0.0,0.0,0.0,0.0,0.0,0.0,0.0,0.0,0.0,0.0,0.0,0.0,0.0,0.0,0.0,0.0,0.0,0.0,0.0,0.0,0.0,0.0,0.0,0.0,0.0,0.0,0.0,0.0,0.0,0.0,0.0,0.0,0.0,0.0,0.0,0.0,0.0,0.0,0.0,0.0,0.0,0.0,0.0,0.0,0.0,0.0,0.0,0.0,0.0,0.0,0.0,0.0,0.0,0.0,0.0,0.0,0.0,0.0,0.0,0.0,0.0,0.0,0.0,0.0,0.0,0.0,0.0,0.0,0.0,0.0,0.0,0.0,0.0,0.0,0.0,0.0,0.0,0.0,0.0,0.0,0.0,0.0,0.0,0.0,0.0,0.0,0.0,0.0,0.0,0.0,0.0,0.0,0.0,0.0,0.0,0.0,0.0,0.0,0.0,0.0,0.0,0.0,0.0,0.0,0.0,0.0,0.0,0.0,0.0,0.0,0.0,0.0,0.0,0.0,0.0,0.0,0.0,0.0,0.0,0.0,0.0,0.0,0.0,0.0,0.0,0.0,0.0,0.0,0.0,0.0,0.0,0.0,0.0,0.0,0.0,0.0,0.0,0.0,0.0,0.0,0.0,0.0,0.0,0.0,0.0,0.0,0.0,0.0,0.0,0.0,0.0,0.0,0.0,0.0,0.0,0.0,0.0,0.0,0.0,0.0,0.0,0.0,0.0,0.0,0.0,0.0,0.0,0.0,0.0,0.0,0.0,0.0,0.0,0.0,0.0,0.0,0.0,0.0,0.0,0.0,0.0,0.0,0.0,0.0,0.0,0.0,0.0,0.0,0.0,0.0,0.0,0.0,0.0,0.0,0.0,0.0,0.0,0.0,0.0,0.0,0.0,0.0,0.0,0.0,0.0,0.0,0.0,0.0,0.0,0.0,0.0,0.0,0.0,0.0,0.0,0.0,0.0,0.0,0.0,0.0,0.0,0.0,0.0,0.0,0.0,0.0,0.0,0.0,0.0,0.0,0.0,0.0,0.0,0.0,0.0,0.0,0.0,0.0,0.0,0.0,0.0,0.0,0.0,0.0,0.0,0.0,0.0,0.0,0.0,0.0,0.0,0.0,0.0,0.0,0.0,0.0,0.0,0.0,0.0,0.0,0.0,0.0,0.0,0.0,0.0,0.0,0.0,0.0,0.0,0.0,0.0,0.0,0.0,0.0,0.0,0.0,0.0,0.0,0.0,0.0,0.0,0.0,0.0,0.0,0.0,0.0,0.0,0.0,0.0,0.0,0.0,0.0,0.0,0.0,0.0,0.0,0.0,0.0,0.0,0.0,0.0,0.0,0.0,0.0,0.0,0.0,0.0,0.0,0.0,0.0,0.0,0.0,0.0,0.0,0.0,0.0,0.0,0.0,0.0,0.0,0.0,0.0,0.0,0.0,0.0,0.0,0.0,0.0,0.0,0.0,0.0,0.0,0.0,0.0,0.0,0.0,0.0,0.0,0.0,0.0,0.0,0.0,0.0,0.0,0.0,0.0,0.0,0.0,0.0,0.0,0.0,0.0,0.0,0.0,0.0,0.0,0.0,0.0,0.0,0.0,0.0,0.0,0.0,0.0,0.0,0.0,0.0,0.0,0.0,0.0,0.0,0.0,0.0,0.0,0.0,0.0,0.0,0.0,0.0,0.0,0.0,0.0,0.0,0.0,0.0,0.0,0.0,0.0,0.0,0.0,0.0,0.0,0.0,0.0,0.0,0.0,0.0,0.0,0.0,0.0,0.0,0.0,0.0,0.0,0.0,0.0,0.0,0.0,0.0,0.0,0.0,0.0,0.0,0.0,0.0,0.0,0.0,0.0,0.0,0.0,0.0,0.0,0.0,0.0,0.0,0.0,0.0,0.0,0.0,0.0,0.0,0.0,0.0,0.0,0.0,0.0,0.0,0.0,0.0,0.0,0.0,0.0,0.0,0.0,0.0,0.0,0.0,0.0,0.0,0.0,0.0,0.0,0.0,0.0,0.0,0.0,0.0,0.0,0.0,0.0,0.0,0.0,0.0,0.0,0.0,0.0,0.0,0.0,0.0,0.0,0.0,0.0,0.0,0.0,0.0,0.0,0.0,0.0,0.0,0.0,0.0,0.0,0.0,0.0,0.0,0.0,0.0,0.0,0.0,0.0,0.0,0.0,0.0,0.0,0.0,0.0,0.0,0.0,0.0,0.0,0.0,0.0,0.0,0.0,0.0,0.0,0.0,0.0,0.0,0.0,0.0,0.0,0.0,0.0,0.0,0.0,0.0,0.0,0.0,0.0,0.0,0.0,0.0,0.0,0.0,0.0,0.0,0.0,0.0,0.0,0.0,0.0,0.0,0.0,0.0,0.0,0.0,0.0,0.0,0.0,0.0,0.0,0.0,0.0,0.0,0.0,0.0,0.0,0.0,0.0,0.0,0.0,-3.05,0.0,0.0,0.0,0.0,0.0,0.0,0.0,0.0,0.0,0.0,0.0,0.0,0.0,0.0,0.0,0.0,0.0,0.0,0.0,0.0,0.0,0.0,0.0,0.0,0.0,0.0,0.0,0.0,0.0,0.0,0.0,0.0,0.0,0.0,0.0,0.0,0.0,0.0,0.0,0.0,0.0,0.0,0.0,0.0,0.0,0.0,0.0,0.0,0.0,0.0,0.0,0.0,0.0,0.0,0.0,0.0,0.0,0.0,0.0,0.0,0.0,0.0,0.0,0.0,0.0,0.0,0.0,0.0,0.0,0.0,0.0,0.0,0.0,0.0,0.0,0.0,0.0,0.0,0.0,0.0,0.0,0.0,0.0,0.0,0.0,0.0,0.0,0.0,0.0,0.0,0.0,0.0,0.0,0.0,0.0,0.0,0.0,0.0,0.0,0.0,0.0,0.0,0.0,0.0,0.0,0.0,0.0,0.0,0.0,0.0,-3.7013,-3.5264,-3.6091,-3.4316,-2.9666,0.0,0.0,0.0,0.0,0.0,0.0,0.0,0.0,0.0,0.0,0.0,0.0,0.0,0.0,0.0,0.0,0.0,0.0,0.0,0.0,0.0,0.0,0.0,0.0,0.0,0.0,0.0,0.0,0.0,0.0,0.0,0.0,0.0,0.0,0.0,0.0,0.0,0.0,0.0,0.0,0.0,0.0,0.0,0.0,0.0,0.0,0.0,0.0,0.0,0.0,0.0,0.0,0.0,0.0,0.0,0.0,0.0,0.0,0.0,0.0,0.0,0.0,0.0,0.0,0.0,0.0,0.0,0.0,0.0,0.0,0.0,0.0,0.0,0.0,0.0,0.0,0.0,0.0,0.0,0.0,0.0,0.0,0.0,0.0,0.0,0.0,0.0,0.0,0.0,0.0,0.0,0.0,0.0,0.0,0.0,0.0,0.0,0.0,0.0,0.0,0.0,0.0,0.0,0.0,0.0,0.0,0.0,0.0,0.0,0.0,0.0,0.0,-3.4118,-3.2615,-2.9363,0.0,0.0,0.0,0.0,0.0,0.0,0.0,0.0,0.0,0.0,0.0,0.0,0.0,0.0,0.0,0.0,0.0,0.0,0.0,0.0,0.0,0.0,0.0,0.0,0.0,0.0,0.0,0.0,0.0,0.0,0.0,0.0,0.0,0.0,0.0,0.0,0.0,0.0,0.0,0.0,0.0,0.0,0.0,0.0,0.0,0.0,0.0,0.0,0.0,0.0,0.0,0.0,0.0,0.0,0.0,0.0,0.0,0.0,0.0,0.0,0.0,0.0,0.0,0.0,0.0,0.0,0.0,0.0,0.0,0.0,0.0,0.0,0.0,0.0,0.0,0.0,0.0,0.0,0.0,0.0,0.0,0.0,0.0,0.0,0.0,0.0,0.0,0.0,0.0,0.0,0.0,0.0,0.0,0.0,0.0,0.0,0.0,0.0,0.0,0.0,0.0,0.0,0.0,0.0,0.0,0.0,0.0,0.0,0.0,0.0,-3.3765,-3.1799,-3.1833,0.0,-2.8717,0.0,0.0,0.0,0.0,0.0,0.0,0.0,0.0,0.0,0.0,0.0,0.0,0.0,0.0,0.0,0.0,0.0,0.0,0.0,0.0,0.0,0.0,0.0,0.0,0.0,0.0,0.0,0.0,0.0,0.0,0.0,0.0,0.0,0.0,0.0,0.0,0.0,0.0,0.0,0.0,0.0,0.0,0.0,0.0,0.0,0.0,0.0,0.0,0.0,0.0,0.0,0.0,0.0,0.0,0.0,0.0,0.0,0.0,0.0,0.0,0.0,0.0,0.0,0.0,0.0,0.0,0.0,0.0,0.0,0.0,0.0,0.0,0.0,0.0,0.0,0.0,0.0,0.0,0.0,0.0,0.0,0.0,0.0,0.0,0.0,0.0,0.0,0.0,0.0,0.0,0.0,0.0,0.0,0.0,0.0,0.0,0.0,0.0,0.0,0.0,0.0,0.0,0.0,0.0,0.0,0.0,0.0,0.0,0.0,0.0,-3.3977,-3.1142,-2.9087,-2.7589,0.0,0.0,0.0,0.0,0.0,0.0,0.0,0.0,0.0,0.0,0.0,0.0,0.0,0.0,0.0,0.0,0.0,0.0,0.0,0.0,0.0,0.0,0.0,0.0,0.0,0.0,0.0,0.0,0.0,0.0,0.0,0.0,0.0,0.0,0.0,0.0,0.0,0.0,0.0,0.0,0.0,0.0,0.0,0.0,0.0,0.0,0.0,0.0,0.0,0.0,0.0,0.0,0.0,0.0,0.0,0.0,0.0,0.0,0.0,0.0,0.0,0.0,0.0,0.0,0.0,0.0,0.0,0.0,0.0,0.0,0.0,0.0,0.0,0.0,0.0,0.0,0.0,0.0,0.0,0.0,0.0,0.0,0.0,0.0,0.0,0.0,0.0,0.0,0.0,0.0,0.0,0.0,0.0,0.0,0.0,0.0,0.0,0.0,0.0,0.0,0.0,0.0,0.0,0.0,0.0,0.0,0.0,0.0,0.0,0.0,-3.4952,-3.2737,-2.9189,-2.6616,-2.5277,-2.5264,0.0,0.0,0.0,0.0,0.0,0.0,0.0,0.0,0.0,0.0,0.0,0.0,0.0,0.0,0.0,0.0,0.0,0.0,0.0,0.0,0.0,0.0,0.0,0.0,0.0,0.0,0.0,0.0,0.0,0.0,0.0,0.0,0.0,0.0,0.0,0.0,0.0,0.0,0.0,0.0,0.0,0.0,0.0,0.0,0.0,0.0,0.0,0.0,0.0,0.0,0.0,0.0,0.0,0.0,0.0,0.0,0.0,0.0,0.0,0.0,0.0,0.0,0.0,0.0,0.0,0.0,0.0,0.0,0.0,0.0,0.0,0.0,0.0,0.0,0.0,0.0,0.0,0.0,0.0,0.0,0.0,0.0,0.0,0.0,0.0,0.0,0.0,0.0,0.0,0.0,0.0,0.0,0.0,0.0,0.0,0.0,0.0,0.0,0.0,0.0,0.0,0.0,0.0,0.0,0.0,0.0,0.0,0.0,-3.5918,-3.2438,-2.8757,-2.5166,-2.4737,-2.4676,0.0,0.0,0.0,0.0,0.0,0.0,0.0,0.0,0.0,0.0,0.0,0.0,0.0,0.0,0.0,0.0,0.0,0.0,0.0,0.0,0.0,0.0,0.0,0.0,0.0,0.0,0.0,0.0,0.0,0.0,0.0,0.0,0.0,0.0,0.0,0.0,0.0,0.0,0.0,0.0,0.0,0.0,0.0,0.0,0.0,0.0,0.0,0.0,0.0,0.0,0.0,0.0,0.0,0.0,0.0,0.0,0.0,0.0,0.0,0.0,0.0,0.0,0.0,0.0,0.0,0.0,0.0,0.0,0.0,0.0,0.0,0.0,0.0,0.0,0.0,0.0,0.0,0.0,0.0,0.0,0.0,0.0,0.0,0.0,0.0,0.0,0.0,0.0,0.0,0.0,0.0,0.0,0.0,0.0,0.0,0.0,0.0,0.0,0.0,0.0,0.0,0.0,0.0,0.0,0.0,0.0,0.0,0.0,0.0,-3.4075,-3.0468,-2.7852,-2.6502,-2.5286,-2.4636,0.0,0.0,0.0,0.0,0.0,0.0,0.0,0.0,0.0,0.0,0.0,0.0,0.0,0.0,0.0,0.0,0.0,0.0,0.0,0.0,0.0,0.0,0.0,0.0,0.0,0.0,0.0,0.0,0.0,0.0,0.0,0.0,0.0,0.0,0.0,0.0,0.0,0.0,0.0,0.0,0.0,0.0,0.0,0.0,0.0,0.0,0.0,0.0,0.0,0.0,0.0,0.0,0.0,0.0,0.0,0.0,0.0,0.0,0.0,0.0,0.0,0.0,0.0,0.0,0.0,0.0,0.0,0.0,0.0,0.0,0.0,0.0,0.0,0.0,0.0,0.0,0.0,0.0,0.0,0.0,0.0,0.0,0.0,0.0,0.0,0.0,0.0,0.0,0.0,0.0,0.0,0.0,0.0,0.0,0.0,0.0,0.0,0.0,0.0,0.0,0.0,0.0,0.0,0.0,0.0,0.0,0.0,0.0,0.0,-3.2263,0.0,-2.7215,-2.6502,-2.5286,-2.4636,0.0,0.0,0.0,0.0,0.0,0.0,0.0,0.0,0.0,0.0,0.0,0.0,0.0,0.0,0.0,0.0,0.0,0.0,0.0,0.0,0.0,0.0,0.0,0.0,0.0,0.0,0.0,0.0,0.0,0.0,0.0,0.0,0.0,0.0,0.0,0.0,0.0,0.0,0.0,0.0,0.0,0.0,0.0,0.0,0.0,0.0,0.0,0.0,0.0,0.0,0.0,0.0,0.0,0.0,0.0,0.0,0.0,0.0,0.0,0.0,0.0,0.0,0.0,0.0,0.0,0.0,0.0,0.0,0.0,0.0,0.0,0.0,0.0,0.0,0.0,0.0,0.0,0.0,0.0,0.0,0.0,0.0,0.0,0.0,0.0,0.0,0.0,0.0,0.0,0.0,0.0,0.0,0.0,0.0,0.0,0.0,0.0,0.0,0.0,0.0,0.0,0.0,0.0,0.0,0.0,0.0,0.0,0.0,-3.4904,-3.043,-2.8413,-2.6502,-2.471,-2.4636,-2.4636,0.0,0.0,0.0,0.0,0.0,0.0,0.0,0.0,0.0,0.0,0.0,0.0,0.0,0.0,0.0,0.0,0.0,0.0,0.0,0.0,0.0,0.0,0.0,0.0,0.0,0.0,0.0,0.0,0.0,0.0,0.0,0.0,0.0,0.0,0.0,0.0,0.0,0.0,0.0,0.0,0.0,0.0,0.0,0.0,0.0,0.0,0.0,0.0,0.0,0.0,0.0,0.0,0.0,0.0,0.0,0.0,0.0,0.0,0.0,0.0,0.0,0.0,0.0,0.0,0.0,0.0,0.0,0.0,0.0,0.0,0.0,0.0,0.0,0.0,0.0,0.0,0.0,0.0,0.0,0.0,0.0,0.0,0.0,0.0,0.0,0.0,0.0,0.0,0.0,0.0,0.0,0.0,0.0,0.0,0.0,0.0,0.0,0.0,0.0,0.0,0.0,0.0,0.0,0.0,0.0,0.0,0.0,0.0,0.0,-2.8462,-2.6457,-2.5212,-2.4636,-2.4636,-2.4636,0.0,0.0,0.0,0.0,0.0,0.0,0.0,0.0,0.0,0.0,0.0,0.0,0.0,0.0,0.0,0.0,0.0,0.0,0.0,0.0,0.0,0.0,0.0,0.0,0.0,0.0,0.0,0.0,0.0,0.0,0.0,0.0,0.0,0.0,0.0,0.0,0.0,0.0,0.0,0.0,0.0,0.0,0.0,0.0,0.0,0.0,0.0,0.0,0.0,0.0,0.0,0.0,0.0,0.0,0.0,0.0,0.0,0.0,0.0,0.0,0.0,0.0,0.0,0.0,0.0,0.0,0.0,0.0,0.0,0.0,0.0,0.0,0.0,0.0,0.0,0.0,0.0,0.0,0.0,0.0,0.0,0.0,0.0,0.0,0.0,0.0,0.0,0.0,0.0,0.0,0.0,0.0,0.0,0.0,0.0,0.0,0.0,0.0,0.0,0.0,0.0,0.0,0.0,0.0,0.0,0.0,0.0,0.0,0.0,-2.923,-2.6556,-2.5077,-2.497,-2.4882,-2.4903,-2.481,0.0,0.0,0.0,0.0,0.0,0.0,0.0,0.0,0.0,0.0,0.0,0.0,0.0,0.0,0.0,0.0,0.0,0.0,0.0,0.0,0.0,0.0,0.0,0.0,0.0,0.0,0.0,0.0,0.0,0.0,0.0,0.0,0.0,0.0,0.0,0.0,0.0,0.0,0.0,0.0,0.0,0.0,0.0,0.0,0.0,0.0,0.0,0.0,0.0,0.0,0.0,0.0,0.0,0.0,0.0,0.0,0.0,0.0,0.0,0.0,0.0,0.0,0.0,0.0,0.0,0.0,0.0,0.0,0.0,0.0,0.0,0.0,0.0,0.0,0.0,0.0,0.0,0.0,0.0,0.0,0.0,0.0,0.0,0.0,0.0,0.0,0.0,0.0,0.0,0.0,0.0,0.0,0.0,0.0,0.0,0.0,0.0,0.0,0.0,0.0,0.0,0.0,0.0,0.0,0.0,0.0,0.0,0.0,-3.2347,-2.8304,-2.5932,-2.5598,-2.5558,-2.5411,0.0,0.0,0.0,0.0,0.0,0.0,0.0,0.0,0.0,0.0,0.0,0.0,0.0,0.0,0.0,0.0,0.0,0.0,0.0,0.0,0.0,0.0,0.0,0.0,0.0,0.0,0.0,0.0,0.0,0.0,0.0,0.0,0.0,0.0,0.0,0.0,0.0,0.0,0.0,0.0,0.0,0.0,0.0,0.0,0.0,0.0,0.0,0.0,0.0,0.0,0.0,0.0,0.0,0.0,0.0,0.0,0.0,0.0,0.0,0.0,0.0,0.0,0.0,0.0,0.0,0.0,0.0,0.0,0.0,0.0,0.0,0.0,0.0,0.0,0.0,0.0,0.0,0.0,0.0,0.0,0.0,0.0,0.0,0.0,0.0,0.0,0.0,0.0,0.0,0.0,0.0,0.0,0.0,0.0,0.0,0.0,0.0,0.0,0.0,0.0,0.0,0.0,0.0,0.0,0.0,0.0,0.0,0.0,0.0,-3.2427,-2.9328,-2.7228,-2.6507,-2.6066,-2.5705,0.0,0.0,0.0,0.0,0.0,0.0,0.0,0.0,0.0,0.0,0.0,0.0,0.0,0.0,0.0,0.0,0.0,0.0,0.0,0.0,0.0,0.0,0.0,0.0,0.0,0.0,0.0,0.0,0.0,0.0,0.0,0.0,0.0,0.0,0.0,0.0,0.0,0.0,0.0,0.0,0.0,0.0,0.0,0.0,0.0,0.0,0.0,0.0,0.0,0.0,0.0,0.0,0.0,0.0,0.0,0.0,0.0,0.0,0.0,0.0,0.0,0.0,0.0,0.0,0.0,0.0,0.0,0.0,0.0,0.0,0.0,0.0,0.0,0.0,0.0,0.0,0.0,0.0,0.0,0.0,0.0,0.0,0.0,0.0,0.0,0.0,0.0,0.0,0.0,0.0,0.0,0.0,0.0,0.0,0.0,0.0,0.0,0.0,0.0,0.0,0.0,0.0,0.0,0.0,0.0,0.0,0.0,0.0,-3.1882,-3.2057,-2.9775,-2.827,-2.7762,-2.6947,-2.6253,0.0,0.0,0.0,0.0,0.0,0.0,0.0,0.0,0.0,0.0,0.0,0.0,0.0,0.0,0.0,0.0,0.0,0.0,0.0,0.0,0.0,0.0,0.0,0.0,0.0,0.0,0.0,0.0,0.0,0.0,0.0,0.0,0.0,0.0,0.0,0.0,0.0,0.0,0.0,0.0,0.0,0.0,0.0,0.0,0.0,0.0,0.0,0.0,0.0,0.0,0.0,0.0,0.0,0.0,0.0,0.0,0.0,0.0,0.0,0.0,0.0,0.0,0.0,0.0,0.0,0.0,0.0,0.0,0.0,0.0,0.0,0.0,0.0,0.0,0.0,0.0,0.0,0.0,0.0,0.0,0.0,0.0,0.0,0.0,0.0,0.0,0.0,0.0,0.0,0.0,0.0,0.0,0.0,0.0,0.0,0.0,0.0,0.0,0.0,0.0,0.0,0.0,0.0,0.0,0.0,0.0,0.0,0.0,-3.181,-3.1212,-2.9727,-2.9045,-2.9058,-2.7936,-2.6907,0.0,0.0,0.0,0.0,0.0,0.0,0.0,0.0,0.0,0.0,0.0,0.0,0.0,0.0,0.0,0.0,0.0,0.0,0.0,0.0,0.0,0.0,0.0,0.0,0.0,0.0,0.0,0.0,0.0,0.0,0.0,0.0,0.0,0.0,0.0,0.0,0.0,0.0,0.0,0.0,0.0,0.0,0.0,0.0,0.0,0.0,0.0,0.0,0.0,0.0,0.0,0.0,0.0,0.0,0.0,0.0,0.0,0.0,0.0,0.0,0.0,0.0,0.0,0.0,0.0,0.0,0.0,0.0,0.0,0.0,0.0,0.0,0.0,0.0,0.0,0.0,0.0,0.0,0.0,0.0,0.0,0.0,0.0,0.0,0.0,0.0,0.0,0.0,0.0,0.0,0.0,0.0,0.0,0.0,0.0,0.0,0.0,0.0,0.0,0.0,0.0,0.0,0.0,0.0,0.0,0.0,0.0,0.0,-3.1794,-3.1212,-2.9727,-2.9152,-2.9379,-2.823,-2.7201,0.0,0.0,0.0,0.0,0.0,0.0,0.0,0.0,0.0,0.0,0.0,0.0,0.0,0.0,0.0,0.0,0.0,0.0,0.0,0.0,0.0,0.0,0.0,0.0,0.0,0.0,0.0,0.0,0.0,0.0,0.0,0.0,0.0,0.0,0.0,0.0,0.0,0.0,0.0,0.0,0.0,0.0,0.0,0.0,0.0,0.0,0.0,0.0,-2.7215,0.0,0.0,0.0,0.0,0.0,0.0,0.0,0.0,0.0,0.0,0.0,0.0,0.0,0.0,0.0,0.0,0.0,0.0,0.0,0.0,0.0,0.0,0.0,0.0,0.0,0.0,0.0,0.0,0.0,0.0,0.0,0.0,0.0,0.0,0.0,0.0,0.0,0.0,0.0,0.0,0.0,0.0,0.0,0.0,0.0,0.0,0.0,0.0,0.0,0.0,0.0,0.0,0.0,0.0,0.0,0.0,0.0,0.0,0.0,-3.1968,-3.1212,-2.9866,-2.9325,-2.9446,-2.8604,-2.7642,0.0,0.0,0.0,0.0,0.0,0.0,0.0,0.0,0.0,0.0,0.0,0.0,0.0,0.0,0.0,0.0,0.0,0.0,0.0,0.0,0.0,0.0,0.0,0.0,0.0,0.0,0.0,0.0,0.0,0.0,0.0,0.0,0.0,0.0,0.0,0.0,0.0,0.0,0.0,0.0,0.0,0.0,0.0,0.0,0.0,0.0,0.0,0.0,0.0,0.0,0.0,0.0,0.0,0.0,0.0,0.0,0.0,0.0,0.0,0.0,0.0,0.0,0.0,0.0,0.0,0.0,0.0,0.0,0.0,0.0,0.0,0.0,0.0,0.0,0.0,0.0,0.0,0.0,0.0,0.0,0.0,0.0,0.0,0.0,0.0,0.0,0.0,0.0,0.0,0.0,0.0,0.0,0.0,0.0,0.0,0.0,0.0,0.0,0.0,0.0,0.0,0.0,0.0,0.0,0.0,0.0,0.0,-3.281,-3.1983,-3.0803,-2.9973,-2.9499,-2.9539,-2.8885,-2.803,-2.6921,0.0,0.0,0.0,0.0,0.0,0.0,0.0,0.0,0.0,0.0,0.0,0.0,0.0,0.0,0.0,0.0,0.0,0.0,0.0,0.0,0.0,0.0,0.0,0.0,0.0,0.0,0.0,0.0,0.0,0.0,0.0,0.0,0.0,0.0,0.0,0.0,0.0,0.0,-2.6787,-2.505,0.0,0.0,0.0,0.0,0.0,0.0,0.0,0.0,-2.7012,0.0,0.0,0.0,0.0,0.0,0.0,0.0,0.0,0.0,0.0,0.0,0.0,0.0,0.0,0.0,0.0,0.0,0.0,0.0,0.0,0.0,0.0,0.0,0.0,0.0,0.0,0.0,0.0,0.0,0.0,0.0,0.0,0.0,0.0,0.0,0.0,0.0,0.0,0.0,0.0,0.0,0.0,0.0,0.0,0.0,0.0,0.0,0.0,0.0,0.0,0.0,0.0,0.0,0.0,0.0,0.0,-3.1015,-3.2375,-3.1795,-2.9094,-2.9326,-2.9606,-2.9806,-2.8791,-2.798,-2.7188,0.0,0.0,0.0,0.0,0.0,0.0,0.0,0.0,0.0,0.0,0.0,0.0,0.0,0.0,0.0,0.0,0.0,0.0,0.0,0.0,0.0,0.0,0.0,0.0,0.0,0.0,0.0,0.0,0.0,0.0,0.0,0.0,0.0,0.0,0.0,0.0,0.0,0.0,0.0,-2.4876,-2.3645,0.0,0.0,0.0,0.0,0.0,0.0,0.0,0.0,-2.2204,0.0,0.0,0.0,0.0,0.0,0.0,0.0,0.0,0.0,0.0,0.0,0.0,0.0,0.0,0.0,0.0,0.0,0.0,0.0,0.0,0.0,0.0,0.0,0.0,0.0,0.0,0.0,0.0,0.0,0.0,0.0,0.0,0.0,0.0,0.0,0.0,0.0,0.0,0.0,0.0,0.0,0.0,0.0,0.0,0.0,0.0,0.0,0.0,0.0,0.0,0.0,0.0,0.0,0.0,0.0,-3.4037,-3.3626,-3.2935,-3.19,-3.0423,-2.97,-2.9673,-2.8845,-2.7949,0.0,0.0,0.0,0.0,0.0,0.0,0.0,0.0,0.0,0.0,0.0,0.0,0.0,0.0,0.0,0.0,0.0,0.0,0.0,0.0,0.0,0.0,0.0,0.0,0.0,0.0,0.0,0.0,0.0,0.0,0.0,0.0,0.0,0.0,0.0,0.0,0.0,0.0,0.0,0.0,-2.3421,-2.2121,-2.224,0.0,0.0,0.0,0.0,0.0,0.0,-2.1752,-2.0719,0.0,0.0,0.0,0.0,0.0,0.0,0.0,0.0,0.0,0.0,0.0,0.0,0.0,0.0,0.0,0.0,0.0,0.0,0.0,0.0,0.0,0.0,0.0,0.0,0.0,0.0,0.0,0.0,0.0,0.0,0.0,0.0,0.0,0.0,0.0,0.0,0.0,0.0,0.0,0.0,0.0,0.0,0.0,0.0,0.0,0.0,0.0,0.0,0.0,0.0,0.0,0.0,0.0,0.0,0.0,-3.6165,-3.459,-3.3725,-3.3662,-3.1232,-2.978,-2.9486,-2.8858,-2.7976,0.0,0.0,0.0,0.0,0.0,0.0,0.0,0.0,0.0,0.0,0.0,0.0,0.0,0.0,0.0,0.0,0.0,0.0,0.0,0.0,0.0,0.0,0.0,0.0,0.0,0.0,0.0,0.0,0.0,0.0,0.0,0.0,0.0,0.0,0.0,0.0,0.0,0.0,0.0,0.0,0.0,-2.015,-2.0152,-1.8596,0.0,0.0,0.0,0.0,-2.0395,-2.0076,0.0,0.0,0.0,0.0,0.0,0.0,0.0,0.0,0.0,0.0,0.0,0.0,0.0,0.0,0.0,0.0,0.0,0.0,0.0,0.0,0.0,0.0,0.0,0.0,0.0,0.0,0.0,0.0,0.0,0.0,0.0,0.0,0.0,0.0,0.0,0.0,0.0,0.0,0.0,0.0,0.0,0.0,0.0,0.0,0.0,0.0,0.0,0.0,0.0,0.0,0.0,0.0,0.0,0.0,0.0,0.0,-3.2676,-3.3605,-3.2798,-3.0276,-2.9993,-2.978,-2.9486,-2.8644,-2.7762,0.0,0.0,0.0,0.0,0.0,0.0,0.0,0.0,0.0,0.0,0.0,0.0,0.0,0.0,0.0,0.0,0.0,0.0,0.0,0.0,0.0,0.0,0.0,0.0,0.0,0.0,0.0,0.0,0.0,0.0,0.0,0.0,0.0,0.0,0.0,0.0,0.0,0.0,0.0,0.0,0.0,-1.7862,-1.8285,-1.7839,-1.7693,0.0,0.0,-1.7972,-1.8337,-1.6604,0.0,0.0,0.0,0.0,0.0,0.0,0.0,0.0,0.0,0.0,0.0,0.0,0.0,0.0,0.0,0.0,0.0,0.0,0.0,0.0,0.0,0.0,0.0,0.0,0.0,0.0,0.0,0.0,0.0,0.0,0.0,0.0,0.0,0.0,0.0,0.0,0.0,0.0,0.0,0.0,0.0,0.0,0.0,0.0,0.0,0.0,0.0,0.0,0.0,0.0,0.0,0.0,0.0,0.0,0.0,-3.4215,-3.4084,-3.3066,-3.2137,-3.1322,-3.0363,-2.978,-2.9486,-2.8778,-2.7909,0.0,0.0,0.0,0.0,0.0,0.0,0.0,0.0,0.0,0.0,0.0,0.0,0.0,0.0,0.0,0.0,0.0,0.0,0.0,0.0,0.0,0.0,0.0,0.0,0.0,0.0,0.0,0.0,0.0,0.0,0.0,0.0,0.0,0.0,0.0,0.0,0.0,0.0,0.0,0.0,0.0,0.0,-1.6143,-1.5868,0.0,0.0,0.0,-1.5906,-1.6265,0.0,0.0,0.0,0.0,0.0,0.0,0.0,0.0,0.0,0.0,0.0,0.0,0.0,0.0,0.0,0.0,0.0,0.0,0.0,0.0,0.0,0.0,0.0,0.0,0.0,0.0,0.0,0.0,0.0,0.0,0.0,0.0,0.0,0.0,0.0,0.0,0.0,0.0,0.0,0.0,0.0,0.0,0.0,0.0,0.0,0.0,0.0,0.0,0.0,0.0,0.0,0.0,0.0,0.0,0.0,0.0,0.0,-3.5016,-3.255,-3.1425,-3.1946,-3.067,-2.978,-2.9486,-2.8911,0.0,0.0,0.0,0.0,0.0,0.0,0.0,0.0,0.0,0.0,0.0,0.0,0.0,0.0,0.0,0.0,0.0,0.0,0.0,0.0,0.0,0.0,0.0,0.0,0.0,0.0,0.0,-2.3915,0.0,0.0,0.0,0.0,0.0,0.0,0.0,0.0,0.0,0.0,0.0,0.0,0.0,0.0,-1.6053,-1.4702,-1.4604,-1.4624,0.0,0.0,-1.4706,-1.4936,-1.4801,-1.4699,0.0,0.0,0.0,0.0,0.0,0.0,0.0,0.0,0.0,0.0,0.0,0.0,0.0,0.0,0.0,0.0,0.0,0.0,0.0,0.0,0.0,0.0,0.0,0.0,0.0,0.0,0.0,0.0,0.0,0.0,0.0,0.0,0.0,0.0,0.0,0.0,0.0,0.0,0.0,0.0,0.0,0.0,0.0,0.0,0.0,0.0,0.0,0.0,0.0,0.0,0.0,0.0,0.0,0.0,-3.3078,-3.3166,-3.1864,-3.0779,-3.0088,-2.999,-2.978,-2.9486,-2.8911,-2.8177,0.0,0.0,0.0,0.0,0.0,0.0,0.0,0.0,0.0,0.0,0.0,0.0,0.0,0.0,0.0,0.0,0.0,0.0,0.0,0.0,0.0,0.0,0.0,0.0,0.0,0.0,0.0,0.0,0.0,0.0,0.0,0.0,0.0,0.0,0.0,0.0,0.0,0.0,0.0,0.0,0.0,-1.4565,-1.4685,-1.4848,-1.4936,0.0,-1.4936,-1.495,-1.4964,-1.4817,-1.4696,-1.4577,0.0,0.0,0.0,0.0,0.0,0.0,0.0,0.0,0.0,0.0,0.0,0.0,0.0,0.0,0.0,0.0,0.0,0.0,0.0,0.0,0.0,0.0,0.0,0.0,0.0,0.0,0.0,0.0,0.0,0.0,0.0,0.0,0.0,0.0,0.0,0.0,0.0,0.0,0.0,0.0,0.0,0.0,0.0,0.0,0.0,0.0,0.0,0.0,0.0,0.0,0.0,0.0,0.0,-3.1926,-3.2932,-3.0724,-2.9662,-2.986,-2.9913,-2.986,-2.9753,-2.9352,-2.8724,0.0,0.0,0.0,0.0,0.0,0.0,0.0,0.0,0.0,0.0,0.0,0.0,0.0,0.0,0.0,0.0,0.0,0.0,0.0,0.0,0.0,0.0,0.0,0.0,0.0,0.0,0.0,0.0,-2.5224,-2.5598,-2.5518,0.0,0.0,0.0,0.0,0.0,0.0,0.0,0.0,0.0,0.0,-1.4407,-1.4699,-1.4787,0.0,0.0,-1.4746,-1.4719,-1.4814,-1.4679,-1.456,-1.448,-1.4046,0.0,0.0,0.0,0.0,0.0,0.0,0.0,0.0,0.0,0.0,0.0,0.0,0.0,0.0,0.0,0.0,0.0,0.0,0.0,0.0,0.0,0.0,0.0,0.0,0.0,0.0,0.0,0.0,0.0,0.0,0.0,0.0,0.0,0.0,0.0,0.0,0.0,0.0,0.0,0.0,0.0,0.0,0.0,0.0,0.0,0.0,0.0,0.0,0.0,0.0,0.0,0.0,-3.1241,-3.2949,-3.0107,-2.9032,-2.99,-2.9913,-2.9913,-2.99,-2.9633,-2.9152,0.0,0.0,0.0,0.0,0.0,0.0,0.0,0.0,0.0,0.0,0.0,0.0,0.0,0.0,0.0,0.0,0.0,0.0,0.0,0.0,0.0,0.0,0.0,0.0,0.0,0.0,0.0,0.0,-2.5585,-2.5566,-2.4559,0.0,0.0,0.0,0.0,0.0,0.0,0.0,0.0,0.0,0.0,-1.4387,-1.4638,-1.4713,-1.474,-1.474,-1.4652,-1.4604,-1.4665,-1.4507,-1.4408,-1.4298,0.0,0.0,0.0,0.0,0.0,0.0,0.0,0.0,0.0,0.0,0.0,0.0,0.0,0.0,0.0,0.0,0.0,0.0,0.0,0.0,0.0,0.0,0.0,0.0,0.0,0.0,0.0,-4.7908,0.0,0.0,-4.8559,0.0,0.0,0.0,0.0,0.0,0.0,0.0,0.0,0.0,0.0,0.0,0.0,0.0,0.0,0.0,0.0,0.0,0.0,0.0,0.0,0.0,0.0,-3.1241,-3.2932,-3.0122,-2.9032,-2.9887,-2.9913,-2.9913,-2.9913,-2.9633,-2.9339,-2.9005,0.0,0.0,0.0,0.0,0.0,0.0,0.0,0.0,0.0,0.0,0.0,0.0,0.0,0.0,0.0,0.0,0.0,0.0,0.0,0.0,0.0,0.0,0.0,0.0,0.0,0.0,-2.5943,-2.5932,-2.492,0.0,0.0,0.0,0.0,0.0,0.0,0.0,0.0,0.0,-1.3614,-1.4014,-1.4353,-1.4496,-1.4638,-1.4719,-1.4726,-1.4719,-1.4672,-1.4523,-1.436,-1.4176,0.0,0.0,0.0,0.0,0.0,0.0,0.0,0.0,0.0,0.0,0.0,0.0,0.0,0.0,0.0,0.0,0.0,0.0,0.0,0.0,0.0,0.0,0.0,0.0,0.0,0.0,0.0,-4.6875,-4.6585,0.0,0.0,0.0,0.0,0.0,0.0,0.0,0.0,0.0,0.0,0.0,-4.0488,-3.9922,0.0,0.0,0.0,0.0,0.0,0.0,0.0,0.0,0.0,0.0,0.0,0.0,-3.1394,-3.2775,-3.0238,-2.9219,-2.9887,-2.9913,-2.9913,-2.9913,-2.982,-2.9539,-2.9045,0.0,0.0,0.0,0.0,0.0,0.0,0.0,0.0,0.0,0.0,0.0,0.0,0.0,0.0,0.0,0.0,0.0,0.0,0.0,0.0,0.0,0.0,0.0,0.0,0.0,-2.5852,0.0,0.0,0.0,0.0,0.0,0.0,0.0,0.0,0.0,0.0,0.0,-1.3532,-1.3878,-1.4055,-1.4204,-1.4353,-1.4326,-1.4299,0.0,0.0,0.0,0.0,0.0,0.0,0.0,0.0,0.0,0.0,0.0,0.0,0.0,0.0,-1.3641,-1.3444,-1.3322,-1.3247,-1.3272,0.0,0.0,0.0,0.0,0.0,0.0,0.0,0.0,0.0,0.0,0.0,0.0,0.0,0.0,-4.638,-4.5939,-4.6332,0.0,0.0,0.0,0.0,0.0,0.0,0.0,0.0,-4.0781,-4.1191,-4.1582,-4.1172,-4.082,-4.0527,-3.9668,-3.8594,0.0,0.0,0.0,0.0,0.0,0.0,0.0,0.0,-3.1777,-3.3047,-3.0381,-2.9325,-2.9873,-2.9913,-2.9913,-2.9913,-2.9913,-2.9686,-2.9205,-2.843,-2.7749,0.0,0.0,0.0,0.0,0.0,0.0,0.0,0.0,0.0,0.0,0.0,0.0,0.0,0.0,0.0,0.0,0.0,0.0,0.0,0.0,0.0,0.0,0.0,-2.6026,0.0,0.0,0.0,0.0,0.0,0.0,0.0,0.0,0.0,-1.3356,-1.3464,-1.3627,-1.3946,-1.3994,-1.4027,-1.4122,0.0,0.0,0.0,0.0,0.0,0.0,0.0,-1.3792,-1.3759,-1.3753,-1.384,-1.3974,-1.4075,-1.4122,-1.4278,0.0,0.0,-1.3919,-1.3783,-1.3712,-1.3748,-1.3679,-1.3711,-1.3733,-1.374,-1.3709,0.0,0.0,0.0,0.0,-4.6125,0.0,0.0,0.0,-4.6211,-4.6373,0.0,-4.5928,0.0,0.0,0.0,0.0,-3.9391,-4.0156,0.0,0.0,-4.1641,-4.207,-4.2422,-4.2051,-4.1855,-4.1797,-4.0996,-4.0351,-3.9805,-3.7402,0.0,0.0,0.0,0.0,0.0,0.0,-3.2195,-3.3467,-3.0665,-2.9413,-2.9887,-2.9913,-2.9913,-2.9913,-2.9913,-2.978,-2.9499,-2.8938,-2.835,-2.7749,-2.6894,0.0,0.0,0.0,0.0,0.0,0.0,0.0,0.0,0.0,0.0,0.0,0.0,0.0,0.0,0.0,0.0,0.0,0.0,0.0,0.0,-2.6307,0.0,0.0,0.0,0.0,0.0,0.0,0.0,0.0,0.0,0.0,-1.3486,-1.3691,-1.3841,-1.3851,0.0,0.0,0.0,0.0,-1.4061,-1.4061,-1.419,-1.4238,-1.4095,-1.4128,-1.4066,-1.3885,0.0,0.0,-1.4496,-1.4516,-1.4557,-1.4719,-1.4733,-1.4658,-1.438,-1.4312,-1.4299,-1.4298,-1.4283,-1.4305,-1.4276,-1.4289,-1.4292,-5.241,0.0,0.0,0.0,0.0,-4.7594,-4.6551,-4.4848,-4.5443,-4.5437,-4.5039,-4.4977,0.0,0.0,0.0,0.0,0.0,0.0,-4.166,-4.209,-4.2519,-4.293,-4.332,-4.3223,-4.3008,-4.2695,-4.2461,-4.1816,-4.0801,-3.9746,-3.8262,-3.6406,0.0,0.0,0.0,0.0,-3.4111,-3.3953,-3.2242,-3.0932,-2.99,-2.9913,-2.9913,-2.9913,-2.9913,-2.9873,-2.9793,-2.9432,-2.8951,-2.8364,-2.7696,0.0,0.0,0.0,0.0,0.0,0.0,0.0,0.0,0.0,0.0,0.0,0.0,0.0,0.0,0.0,0.0,0.0,0.0,0.0,-2.4517,-2.4153,-2.3238,0.0,0.0,0.0,0.0,0.0,0.0,0.0,0.0,0.0,-1.3889,-1.3934,-1.4049,0.0,0.0,-1.4007,-1.4007,-1.3946,-1.3905,-1.3905,-1.4034,0.0,-1.4075,-1.415,-1.4238,-1.4306,-1.4392,-1.4534,-1.4665,-1.4672,-1.4726,-1.4875,-1.4903,-1.4903,-1.4923,-1.4753,-1.4618,-1.459,-1.4604,-1.4568,-1.4604,-1.4622,-1.4618,-5.4612,-5.2792,-5.1151,-4.9509,-4.7878,-4.7215,-4.5799,-4.401,-4.4537,-4.443,-4.4024,-4.3984,-4.4358,-4.4949,-4.3521,0.0,0.0,0.0,-4.2441,-4.2695,-4.3125,-4.3457,-4.3691,-4.3691,-4.3476,-4.3086,-4.3128,-4.2541,-4.1406,-4.0996,-4.0039,-3.8594,0.0,-3.7461,-3.7507,-3.6423,-3.527,-3.4294,-3.296,-3.1455,-2.9829,-2.986,-2.9913,-2.9913,-2.9913,-2.9913,-2.9913,-2.9633,-2.9325,-2.8965,-2.8257,-2.7629,0.0,0.0,0.0,0.0,0.0,0.0,0.0,0.0,0.0,0.0,0.0,-2.5077,-2.509,0.0,0.0,0.0,-2.6358,-2.6284,-2.5176,-2.4752,0.0,0.0,0.0,0.0,0.0,0.0,0.0,-1.5196,-1.4448,-1.3916,-1.4095,-1.4217,-1.4271,-1.4231,-1.4082,-1.398,-1.398,0.0,-1.4021,-1.4021,-1.4204,-1.434,-1.434,-1.4414,-1.4523,-1.4672,-1.4767,-1.4855,-1.4909,-1.4916,-1.495,-1.5031,-1.5052,-1.5086,-1.5167,-1.5031,-1.493,-1.4891,-1.4864,-1.4936,-1.4898,-1.4857,-1.4916,-5.5917,-5.5271,-5.2598,-5.0215,-4.7992,-4.662,-4.5064,-4.3389,-4.3617,-4.3519,-4.319,-4.3167,-4.2926,-4.2469,-4.2537,0.0,-4.1933,-4.2754,-4.3125,-4.3144,-4.3516,-4.3691,-4.3652,-4.3672,-4.3457,-4.3027,-4.3011,-4.258,-4.1816,-4.1406,-4.0976,-4.0508,-3.9316,-3.8516,-3.802,-3.7089,-3.5914,-3.4392,-3.3044,-3.1383,-2.9601,-2.978,-2.9913,-2.9913,-2.9913,-2.99,-2.9873,-2.9633,-2.9459,-2.9392,-2.8617,-2.8248,-2.8167,0.0,0.0,0.0,0.0,0.0,0.0,0.0,0.0,0.0,0.0,0.0,0.0,0.0,0.0,0.0,-2.6714,0.0,-2.6843,-2.6379,0.0,0.0,0.0,-1.8369,-1.6685,-1.4835,-1.3736,-1.3792,0.0,0.0,-1.4312,-1.4406,-1.4399,-1.4163,-1.4,-1.3912,-1.3826,-1.417,-1.4333,-1.4333,-1.457,-1.4746,-1.4733,-1.4753,-1.4821,-1.495,-1.4991,-1.5031,-1.5133,-1.5167,-1.5174,-1.5174,-1.5181,-1.5181,-1.5181,-1.5167,-1.5181,-1.5167,-1.5174,-1.5174,-1.5167,-1.516,-1.5153,-5.6143,-5.5847,-5.3637,-5.2112,-5.0942,-4.7926,-4.6399,-4.5857,-4.4392,-4.3633,-4.3535,-4.3555,-4.334,-4.2946,-4.3281,-4.3164,-4.2793,-4.332,-4.3555,-4.3555,-4.3652,-4.3535,-4.3242,-4.323,-4.2997,-4.2598,-4.2562,-4.2308,-4.1816,-4.1699,-4.1269,-4.0547,-4.0215,-3.9844,-3.9378,-3.7533,-3.5914,-3.4489,-3.3044,-3.1483,-2.9882,-2.9873,-2.9913,-2.9913,-2.9913,-2.982,-2.9593,-2.9526,-2.9272,-2.8845,-2.8617,-2.8341,-2.7819,-2.7444,0.0,0.0,0.0,0.0,0.0,0.0,0.0,0.0,0.0,-2.5411,-2.5411,0.0,-2.6547,0.0,-2.5616,-2.4306,-2.2613,-2.0851,0.0,0.0,-1.5678,-1.5235,-1.4722,-1.4409,-1.4197,-1.434,-1.4374,-1.4421,-1.4604,-1.4642,-1.4662,-1.4597,-1.455,-1.4523,-1.4529,-1.4577,-1.4638,-1.4645,-1.4794,-1.4916,-1.4923,-1.5011,-1.5079,-1.5126,-1.5126,-1.5147,-1.5174,-1.5181,-1.5181,-1.5181,-1.5181,-1.5181,-1.5181,-1.5181,-1.5181,-1.5181,-1.5181,-1.5181,-1.5181,-1.5181,-1.5181,-5.6219,-5.6146,-5.4967,-5.4327,-5.3689,-4.8859,-4.6324,-4.5373,-4.4186,-4.3691,-4.3691,-4.3691,-4.3574,-4.3379,-4.3594,-4.3574,-4.3379,-4.3613,-4.3691,-4.3691,-4.3516,-4.3301,-4.3086,-4.2903,-4.2573,-4.2148,-4.2132,-4.1916,-4.1523,-4.1523,-4.1289,-4.082,-4.0625,-4.041,-4.01,-3.8975,-3.7036,-3.4259,-3.1975,-3.0497,-2.9887,-2.9793,-2.9726,-2.9726,-2.9593,-2.9446,-2.9285,-2.9285,-2.9138,-2.8818,-2.8671,-2.8484,-2.8132,-2.7736,-2.7229,0.0,0.0,0.0,0.0,0.0,0.0,0.0,0.0,0.0,0.0,0.0,-2.6947,-2.7173,-2.6424,-2.5101,-2.2922,-2.1525,-1.9451,-1.6148,-1.574,-1.5433,-1.4449,-1.4441,-1.4529,-1.4604,-1.455,-1.4674,-1.4808,-1.4797,-1.4837,-1.493,-1.4936,-1.4889,-1.4774,-1.4794,-1.4841,-1.4848,-1.497,-1.5065,-1.5065,-1.5126,-1.5181,-1.5181,-1.5181,-1.5181,-1.5181,-1.5181,-1.5181,-1.5181,-1.5181,-1.5181,-1.5181,-1.5181,-1.5181,-1.5181,-1.5181,-1.5181,-1.5181,-1.5181,-1.5181,-5.6219,-5.6219,-5.6219,-5.6072,-5.5435,-4.9986,-4.6486,-4.4494,-4.3939,-4.3691,-4.3691,-4.3691,-4.3691,-4.3691,-4.3691,-4.3691,-4.3691,-4.3691,-4.3672,-4.3613,-4.3242,-4.3027,-4.2891,-4.2539,-4.2148,-4.1719,-4.1758,-4.1601,-4.125,-4.125,-4.1289,-4.1308,-4.0898,-4.0684,-4.0684,-4.0684,-3.842,-3.387,-3.0623,-2.9325,-2.99,-2.9633,-2.9486,-2.9472,-2.9192,-2.8931,-2.8991,-2.8978,-2.8965,-2.8925,-2.8684,-2.8558,-2.8512,-2.8039,-2.747,0.0,-2.6599,0.0,0.0,0.0,0.0,0.0,0.0,0.0,0.0,-2.6774,-2.7241,-2.7816,-2.761,-2.6587,-2.4679,-2.3959,-2.2019,-1.8214,-1.7584,-1.6677,-1.5027,-1.4787,-1.4794,-1.4794,-1.4794,-1.4855,-1.4977,-1.4997,-1.5052,-1.514,-1.5153,-1.5072,-1.4875,-1.4916,-1.4997,-1.4997,-1.5099,-1.5167,-1.5167,-1.5174,-1.5181,-1.5181,-1.5181,-1.5181,-1.5181,-1.5181,-1.5181,-1.5181,-1.5181,-1.5181,-1.5181,-1.5181,-1.5181,-1.5181,-1.5181,-1.5181,-1.5181,-1.5181,-1.5181,-5.6219,-5.6219,-5.6219,-5.5189,-5.3552,-5.2395,-5.0762,-4.8575,-4.519,-4.3691,-4.3691,-4.3691,-4.3691,-4.3691,-4.3691,-4.3691,-4.3691,-4.3691,-4.3516,-4.3203,-4.3125,-4.2715,-4.207,-4.1971,-4.1718,-4.1308,-4.1308,-4.1445,-4.168,-4.168,-4.1855,-4.2168,-4.1777,-4.1562,-4.1562,0.0,0.0,0.0,-3.0253,-2.9325,-2.9887,-2.9633,-2.9486,-2.9472,-2.9192,0.0,-2.8698,-2.8684,-2.8577,-2.8323,-2.8341,0.0,0.0,0.0,0.0,0.0,0.0,0.0,0.0,0.0,0.0,0.0,-2.7589,-2.7442,-2.6827,-2.7442,-2.8136,-2.8638,-2.5337,-2.2903,-2.2449,-1.8891,-1.6318,-1.5454,-1.5455,-1.5349,-1.493,-1.5025,-1.5099,-1.5099,-1.5092,-1.5106,-1.5126,-1.5147,-1.5147,-1.5181,-1.5181,-1.516,-1.5106,-1.5113,-1.514,-1.5147,-1.5167,-1.5181,-1.5181,-1.5181,-1.5181,-1.5181,-1.5181,-1.5181,-1.5181,-1.5181,-1.5181,-1.5181,-1.5181,-1.5181,-1.5181,-1.5181,-1.5181,-1.5181,-1.5181,-1.5181,-1.5181,-1.5181,-1.5181,-5.6219,-5.6219,-5.6219,-5.5582,0.0,-5.2189,-5.0628,-4.9495,-4.6521,-4.4538,-4.3379,-4.3164,-4.3203,-4.3398,-4.3398,-4.3516,-4.3691,-4.3496,-4.3281,-4.3066,-4.2637,-4.2226,-4.1797,-4.1562,-4.1445,-4.1172,-4.1172,-4.1387,-4.1777,-4.1797,-4.2012,-4.2422,-4.2207,-4.2109,-4.203,-3.9851,-3.7317,-3.4258,-3.0938,-2.9472,-2.9887,-2.9633,-2.9486,-2.9472,-2.9192,0.0,0.0,0.0,0.0,0.0,0.0,0.0,0.0,-2.839,0.0,-2.8135,-2.7879,-2.7696,-2.7709,-2.7843,-2.7989,-2.8136,-2.8417,-2.8337,-2.7736,-2.8243,-2.8711,-2.8931,-2.692,-2.4653,-2.223,-1.9898,-1.76,-1.5327,-1.5031,-1.5072,-1.5086,-1.514,-1.5181,-1.5181,-1.5181,-1.5181,-1.5181,-1.5181,-1.5181,-1.5181,-1.5181,-1.5181,-1.5181,-1.5181,-1.5181,-1.5181,-1.5181,-1.5181,-1.5181,-1.5181,-1.5181,-1.5181,-1.5181,-1.5181,-1.5181,-1.5181,-1.5181,-1.5181,-1.5181,-1.5181,-1.5181,-1.5181,-1.5181,-1.5181,-1.5181,-1.5181,-1.5181,-1.5181,-1.5181,-5.6219,-5.6219,-5.6219,-5.6143,-5.5726,-5.1559,-4.9432,-4.8521,-4.6765,0.0,0.0,-4.2578,-4.2617,-4.2969,-4.2969,-4.3144,-4.3437,-4.3125,-4.293,-4.2812,-4.2129,-4.1758,-4.168,-4.1328,-4.1172,-4.1172,-4.125,-4.1504,-4.1894,-4.1992,-4.2246,-4.2617,-4.2656,-4.2395,-4.1809,-3.7927,-3.5842,-3.5526,-3.1641,-2.9619,-2.99,-2.9633,-2.9486,-2.9486,-2.9205,-2.8958,-2.9032,-2.8818,-2.8684,-2.8684,-2.8684,-2.8651,-2.8658,-2.8878,-2.8891,-2.8672,-2.8651,-2.8577,-2.8323,-2.8591,-2.8778,-2.8831,-2.9058,-2.9072,-2.8778,-2.8978,-2.9138,-2.9192,-2.9053,-2.6998,-2.2635,-2.1886,-2.0067,-1.5643,-1.5181,-1.5181,-1.5181,-1.5181,-1.5181,-1.5181,-1.5181,-1.5181,-1.5181,-1.5181,-1.5181,-1.5181,-1.5181,-1.5181,-1.5181,-1.5181,-1.5181,-1.5181,-1.5181,-1.5181,-1.5181,-1.5181,-1.5181,-1.5181,-1.5181,-1.5181,-1.5181,-1.5181,-1.5181,-1.5181,-1.5181,-1.5181,-1.5181,-1.5181,-1.5181,-1.5181,-1.5181,-1.5181,-1.5181,-1.5181,-1.5181,-5.6219,-5.6219,-5.6219,-5.5942,-5.5346,-5.2956,-4.9761,-4.6033,-4.3957,-4.2799,-4.2519,-4.2461,-4.2461,-4.2519,-4.2519,-4.2558,-4.2598,-4.2539,-4.2324,-4.1992,-4.1855,-4.1601,-4.1269,-4.1211,-4.1172,-4.1211,-4.1543,-4.1933,-4.2344,-4.2715,-4.3105,-4.3457,-4.3516,-4.257,-4.0516,-3.7947,-3.5725,-3.3828,-3.0955,-2.9619,-2.99,-2.9633,-2.9486,-2.9472,-2.9205,-2.8958,-2.8958,-2.9005,-2.8978,-2.8978,-2.8978,-2.8958,-2.8943,-2.9024,-2.8998,-2.8929,-2.8897,-2.8951,-2.8925,-2.9192,-2.9472,-2.9713,-2.9766,-2.9673,-2.9392,-2.9392,-2.9526,-2.9664,-2.8065,-2.5536,-2.2698,-2.0695,-1.8499,-1.5737,-1.5181,-1.5181,-1.5181,-1.5181,-1.5181,-1.5181,-1.5181,-1.5181,-1.5181,-1.5181,-1.5181,-1.5181,-1.5181,-1.5181,-1.5181,-1.5181,-1.5181,-1.5181,-1.5181,-1.5181,-1.5181,-1.5181,-1.5181,-1.5181,-1.5181,-1.5181,-1.5181,-1.5181,-1.5181,-1.5181,-1.5181,-1.5181,-1.5181,-1.5181,-1.5181,-1.5181,-1.5181,-1.5181,-1.5181,-1.5181,-1.5181,-5.6219,-5.6168,-5.5892,-5.5616,-5.5196,-5.2623,-4.8971,-4.4802,-4.3746,-4.2839,-4.2051,-4.1855,-4.1875,-4.207,-4.209,-4.2226,-4.2422,-4.2187,-4.1973,-4.1797,-4.1562,-4.1367,-4.1191,-4.1172,-4.1289,-4.1523,-4.1699,-4.2129,-4.2754,-4.2988,-4.3301,-4.3672,-4.3691,-4.3176,-4.1974,-3.8545,-3.628,-3.5194,-3.1575,-2.978,-2.9913,-2.978,-2.9726,-2.9713,-2.9579,-2.9513,-2.9513,-2.9366,-2.9272,-2.9285,-2.9285,-2.9224,-2.9304,-2.9384,-2.9464,-2.9442,-2.9464,-2.9513,-2.9513,-2.9646,-2.978,-2.99,-2.9913,-2.986,-2.9726,-2.9713,-2.978,-2.99,-2.8809,-2.6604,-2.2923,-2.1544,-1.9335,-1.5556,-1.5181,-1.5181,-1.5181,-1.5181,-1.5181,-1.5181,-1.5181,-1.5181,-1.5181,-1.5181,-1.5181,-1.5181,-1.5181,-1.5181,-1.5181,-1.5181,-1.5181,-1.5181,-1.5181,-1.5181,-1.5181,-1.5181,-1.5181,-1.5181,-1.5181,-1.5181,-1.5181,-1.5181,-1.5181,-1.5181,-1.5181,-1.5181,-1.5181,-1.5181,-1.5181,-1.5181,-1.5181,-1.5181,-1.5181,-1.5181,-1.5181,-5.6219,-5.6168,-5.5767,-5.4959,-5.3814,-5.127,-4.7618,-4.3732,-4.3497,-4.2742,-4.1739,-4.1308,-4.1367,-4.1641,-4.166,-4.1836,-4.207,-4.1816,-4.166,-4.1621,-4.1328,-4.123,-4.1308,-4.1308,-4.1543,-4.1914,-4.2031,-4.2441,-4.3027,-4.3164,-4.3379,-4.3672,-4.3691,-4.3443,-4.2844,-3.9395,-3.7089,-3.588,-3.2514,-3.0437,-2.9913,-2.9913,-2.9913,-2.9913,-2.9913,-2.9913,-2.99,-2.97,-2.9579,-2.9579,-2.9579,-2.9579,-2.9593,-2.9793,-2.9913,-2.9913,-2.9913,-2.9913,-2.9913,-2.9913,-2.9913,-2.9913,-2.9913,-2.9913,-2.9913,-2.9913,-2.9913,-2.9824,-2.9272,-2.7148,-2.3289,-2.1912,-1.9983,-1.583,-1.5181,-1.5181,-1.5181,-1.5181,-1.5181,-1.5181,-1.5181,-1.5181,-1.5181,-1.5181,-1.5181,-1.5181,-1.5181,-1.5181,-1.5181,-1.5181,-1.5181,-1.5181,-1.5181,-1.5181,-1.5181,-1.5181,-1.5181,-1.5181,-1.5181,-1.5181,-1.5181,-1.5181,-1.5181,-1.5181,-1.5181,-1.5181,-1.5181,-1.5181,-1.5181,-1.5181,-1.5181,-1.5181,-1.5181,-1.5181,-1.5181,-5.6219,-5.6194,-5.6118,-5.3663,-5.0049,-4.8815,-4.5966,-4.2347,-4.164,-4.1405,-4.123,-4.1191,-4.1211,-4.123,-4.125,-4.1289,-4.1328,-4.125,-4.125,-4.125,-4.1191,-4.1367,-4.1699,-4.1738,-4.1973,-4.2363,-4.2734,-4.2949,-4.3125,-4.3457,-4.3652,-4.3691,-4.3691,-4.2678,-4.0848,-4.0156,-3.7861,-3.3819,-3.3307,-3.2086,-3.0003,-2.9913,-2.9913,-2.9913,-2.9913,-2.9913,-2.9913,-2.9887,-2.9873,-2.9873,-2.986,-2.9873,-2.9873,-2.99,-2.9913,-2.9913,-2.9913,-2.9913,-2.9913,-2.9913,-2.9913,-2.9913,-2.9913,-2.9913,-2.9913,-2.9913,-2.9913,-2.9631,-2.7883,-2.5491,-2.2739,-2.0622,-1.8321,-1.5737,-1.5181,-1.5181,-1.5181,-1.5181,-1.5181,-1.5181,-1.5181,-1.5181,-1.5181,-1.5181,-1.5181,-1.5181,-1.5181,-1.5181,-1.5181,-1.5181,-1.5181,-1.5181,-1.5181,-1.5181,-1.5181,-1.5181,-1.5181,-1.5181,-1.5181,-1.5181,-1.5181,-1.5181,-1.5181,-1.5181,-1.5181,-1.5181,-1.5181,-1.5181,-1.5181,-1.5181,-1.5181,-1.5181,-1.5181,-1.5181,-1.5181,-5.6219,-5.6194,-5.5867,-5.379,-5.0709,-4.9863,-4.7321,-4.3612,-4.3126,-4.2273,-4.1289,-4.1426,-4.1406,-4.1172,-4.1172,-4.1172,-4.1172,-4.1172,-4.1172,-4.1191,-4.1426,-4.1641,-4.1816,-4.207,-4.2402,-4.2793,-4.2988,-4.3203,-4.3437,-4.3613,-4.3691,-4.3691,-4.3691,-4.3176,-4.2159,-3.9564,-3.7261,-3.5446,-3.269,-3.087,-3.0093,-2.9913,-2.9913,-2.9913,-2.9913,-2.9913,-2.9913,-2.9913,-2.9913,-2.9913,-2.9913,-2.9913,-2.9913,-2.9913,-2.9913,-2.9913,-2.9913,-2.9913,-2.9913,-2.9913,-2.9913,-2.9913,-2.9913,-2.9913,-2.9913,-2.9913,-2.9913,-2.9631,-2.7612,-2.5218,-2.2739,-2.0344,-1.7856,-1.5737,-1.5181,-1.5181,-1.5181,-1.5181,-1.5181,-1.5181,-1.5181,-1.5181,-1.5181,-1.5181,-1.5181,-1.5181,-1.5181,-1.5181,-1.5181,-1.5181,-1.5181,-1.5181,-1.5181,-1.5181,-1.5181,-1.5181,-1.5181,-1.5181,-1.5181,-1.5181,-1.5181,-1.5181,-1.5181,-1.5181,-1.5181,-1.5181,-1.5181,-1.5181,-1.5181,-1.5181,-1.5181,-1.5181,-1.5181,-1.5181,-1.5181,-5.6219,-5.6143,-5.5767,-5.4156,-5.1837,-5.0802,-4.8306,-4.5013,-4.4008,-4.2786,-4.1465,-4.1797,-4.1797,-4.1543,-4.1523,-4.1465,-4.1367,-4.1465,-4.1523,-4.1562,-4.1836,-4.2031,-4.2168,-4.2461,-4.2832,-4.3183,-4.3262,-4.3398,-4.3672,-4.3691,-4.3691,-4.3691,-4.3691,-4.3691,-4.3361,-4.0174,-3.8032,-3.6572,-3.338,-3.1226,-3.0169,-2.9913,-2.9913,-2.9913,-2.9913,-2.9913,-2.9913,-2.9913,-2.9913,-2.9913,-2.9913,-2.9913,-2.9913,-2.9913,-2.9913,-2.9913,-2.9913,-2.9913,-2.9913,-2.9913,-2.9913,-2.9913,-2.9913,-2.9913,-2.9913,-2.9913,-2.9913,-2.9734,-2.7612,-2.5218,-2.2739,-1.9697,-1.7118,-1.5462,-1.5181,-1.5181,-1.5181,-1.5181,-1.5181,-1.5181,-1.5181,-1.5181,-1.5181,-1.5181,-1.5181,-1.5181,-1.5181,-1.5181,-1.5181,-1.5181,-1.5181,-1.5181,-1.5181,-1.5181,-1.5181,-1.5181,-1.5181,-1.5181,-1.5181,-1.5181,-1.5181,-1.5181,-1.5181,-1.5181,-1.5181,-1.5181,-1.5181,-1.5181,-1.5181,-1.5181,-1.5181,-1.5181,-1.5181,-1.5181,-1.5181,-5.6219,-5.6194,-5.6194,-5.4795,-5.2807,-5.0331,-4.7893,-4.5206,-4.3419,-4.2208,-4.1855,-4.2226,-4.2383,-4.2324,-4.2344,-4.2148,-4.1855,-4.2148,-4.2285,-4.2285,-4.2363,-4.2617,-4.3008,-4.3047,-4.3262,-4.3594,-4.3613,-4.3652,-4.3691,-4.3691,-4.3691,-4.3691,-4.3691,-4.3691,-4.3628,-4.3093,-4.1034,-3.7089,-3.6053,-3.4154,-3.0526,-2.9913,-2.9913,-2.9913,-2.9913,-2.9913,-2.9913,-2.9913,-2.9913,-2.9913,-2.9913,-2.9913,-2.9913,-2.9913,-2.9913,-2.9913,-2.9913,-2.9913,-2.9913,-2.9913,-2.9913,-2.9913,-2.9913,-2.9913,-2.9913,-2.9913,-2.9913,-2.9913,-2.7612,-2.5218,-2.2556,-1.8786,-1.5924,-1.5275,-1.5181,-1.5181,-1.5181,-1.5181,-1.5181,-1.5181,-1.5181,-1.5181,-1.5181,-1.5181,-1.5181,-1.5181,-1.5181,-1.5181,-1.5181,-1.5181,-1.5181,-1.5181,-1.5181,-1.5181,-1.5181,-1.5181,-1.5181,-1.5181,-1.5181,-1.5181,-1.5181,-1.5181,-1.5181,-1.5181,-1.5181,-1.5181,-1.5181,-1.5181,-1.5181,-1.5181,-1.5181,-1.5181,-1.5181,-1.5181,-1.5181,-5.6219,-5.6047,-5.4745,-5.3025,-5.0871,-4.8364,-4.6069,-4.398,-4.292,-4.2344,-4.2305,-4.2656,-4.2695,-4.2461,-4.3008,-4.2851,-4.2266,-4.2363,-4.2422,-4.2461,-4.2715,-4.293,-4.3086,-4.334,-4.3535,-4.3672,-4.3691,-4.3691,-4.3691,-4.3691,-4.3691,-4.3691,-4.3691,-4.3691,-4.3443,-4.2224,-3.9921,-3.7003,-3.5462,-3.3043,-3.0258,-2.9913,-2.9913,-2.9913,-2.9913,-2.9913,-2.9913,-2.9913,-2.9913,-2.9913,-2.9913,-2.9913,-2.9913,-2.9913,-2.9913,-2.9913,-2.9913,-2.9913,-2.9913,-2.9913,-2.9913,-2.9913,-2.9913,-2.9913,-2.9913,-2.9913,-2.9913,-2.9451,-2.7612,-2.5218,-2.2647,-1.952,-1.6939,-1.5556,-1.5181,-1.5181,-1.5181,-1.5181,-1.5181,-1.5181,-1.5181,-1.5181,-1.5181,-1.5181,-1.5181,-1.5181,-1.5181,-1.5181,-1.5181,-1.5181,-1.5181,-1.5181,-1.5181,-1.5181,-1.5181,-1.5181,-1.5181,-1.5181,-1.5181,-1.5181,-1.5181,-1.5181,-1.5181,-1.5181,-1.5181,-1.5181,-1.5181,-1.5181,-1.5181,-1.5181,-1.5181,-1.5181,-1.5181,-1.5181,-1.5181,-5.6219,-5.5901,-5.3951,-5.2319,-5.0716,-4.7677,-4.5525,-4.3999,-4.3214,-4.2773,-4.2734,-4.3086,-4.3105,-4.2949,-4.3437,-4.3418,-4.2871,-4.2851,-4.2832,-4.2871,-4.3144,-4.3281,-4.332,-4.3574,-4.3691,-4.3691,-4.3691,-4.3691,-4.3691,-4.3691,-4.3691,-4.3691,-4.3691,-4.3691,-4.3443,-4.2159,-4.0005,-3.7089,-3.5201,-3.3116,-3.0348,-2.9913,-2.9913,-2.9913,-2.9913,-2.9913,-2.9913,-2.9913,-2.9913,-2.9913,-2.9913,-2.9913,-2.9913,-2.9913,-2.9913,-2.9913,-2.9913,-2.9913,-2.9913,-2.9913,-2.9913,-2.9913,-2.9913,-2.9913,-2.9913,-2.9913,-2.9913,-2.9541,-2.8539,-2.6229,-2.3106,-2.0991,-1.8786,-1.6018,-1.5181,-1.5181,-1.5181,-1.5181,-1.5181,-1.5181,-1.5181,-1.5181,-1.5181,-1.5181,-1.5181,-1.5181,-1.5181,-1.5181,-1.5181,-1.5181,-1.5181,-1.5181,-1.5181,-1.5181,-1.5181,-1.5181,-1.5181,-1.5181,-1.5181,-1.5181,-1.5181,-1.5181,-1.5181,-1.5181,-1.5181,-1.5181,-1.5181,-1.5181,-1.5181,-1.5181,-1.5181,-1.5181,-1.5181,-1.5181,-1.5194,-5.6219,-5.5901,-5.3951,-5.2774,-5.1914,-4.8136,-4.6413,-4.5525,-4.4255,-4.3379,-4.3164,-4.3496,-4.3613,-4.3652,-4.3652,-4.3672,-4.3594,-4.3555,-4.3574,-4.3594,-4.3633,-4.3652,-4.3652,-4.3672,-4.3691,-4.3691,-4.3691,-4.3691,-4.3691,-4.3691,-4.3691,-4.3691,-4.3691,-4.3691,-4.3691,-4.3278,-4.1202,-3.769,-3.6485,-3.4329,-3.0526,-2.9913,-2.9913,-2.9913,-2.9913,-2.9913,-2.9913,-2.9913,-2.9913,-2.9913,-2.9913,-2.9913,-2.9913,-2.9913,-2.9913,-2.9913,-2.9913,-2.9913,-2.9913,-2.9913,-2.9913,-2.9913,-2.9913,-2.9913,-2.9913,-2.9913,-2.9913,-2.9824,-2.9541,-2.7792,-2.3666,-2.2372,-2.0261,-1.6205,-1.5181,-1.5181,-1.5181,-1.5181,-1.5181,-1.5181,-1.5181,-1.5181,-1.5181,-1.5181,-1.5181,-1.5181,-1.5181,-1.5181,-1.5181,-1.5181,-1.5181,-1.5181,-1.5181,-1.5181,-1.5181,-1.5181,-1.5181,-1.5181,-1.5181,-1.5181,-1.5181,-1.5181,-1.5181,-1.5181,-1.5181,-1.5181,-1.5181,-1.5181,-1.5181,-1.5181,-1.5181,-1.5181,-1.5187,-1.5194,-1.5221,-5.6219,-5.5754,-5.2395,-5.0939,-5.0375,-4.6465,-4.4558,-4.4458,-4.3899,-4.3633,-4.3555,-4.3652,-4.3691,-4.3691,-4.3691,-4.3691,-4.3691,-4.3691,-4.3691,-4.3691,-4.3691,-4.3691,-4.3691,-4.3691,-4.3691,-4.3691,-4.3691,-4.3691,-4.3691,-4.3691,-4.3691,-4.3691,-4.3691,-4.3691,-4.3691,-4.3609,-4.1472,-3.7347,-3.683,-3.4504,-3.0348,-2.9913,-2.9913,-2.9913,-2.9913,-2.9913,-2.9913,-2.9913,-2.9913,-2.9913,-2.9913,-2.9913,-2.9913,-2.9913,-2.9913,-2.9913,-2.9913,-2.9913,-2.9913,-2.9913,-2.9913,-2.9913,-2.9913,-2.9913,-2.9913,-2.9913,-2.9913,-2.9913,-2.9824,-2.7883,-2.3747,-2.2556,-2.0344,-1.5737,-1.5181,-1.5181,-1.5181,-1.5181,-1.5181,-1.5181,-1.5181,-1.5181,-1.5181,-1.5181,-1.5181,-1.5181,-1.5181,-1.5181,-1.5181,-1.5181,-1.5181,-1.5181,-1.5181,-1.5181,-1.5181,-1.5181,-1.5181,-1.5181,-1.5181,-1.5181,-1.5181,-1.5181,-1.5181,-1.5181,-1.5181,-1.5181,-1.5181,-1.5181,-1.5181,-1.5181,-1.5181,-1.5187,-1.5194,-1.5228,-1.5276,-5.5754,-5.4646,-5.1401,-4.9518,-4.8518,-4.5128,-4.3691,-4.3691,-4.3691,-4.3691,-4.3691,-4.3691,-4.3691,-4.3691,-4.3691,-4.3691,-4.3691,-4.3691,-4.3691,-4.3691,-4.3691,-4.3691,-4.3691,-4.3691,-4.3691,-4.3691,-4.3691,-4.3691,-4.3691,-4.3691,-4.3691,-4.3691,-4.3691,-4.3691,-4.3691,-4.3609,-4.1472,-3.7518,-3.6744,-3.4591,-3.087,-2.9913,-2.9913,-2.9913,-2.9913,-2.9913,-2.9913,-2.9913,-2.9913,-2.9913,-2.9913,-2.9913,-2.9913,-2.9913,-2.9913,-2.9913,-2.9913,-2.9913,-2.9913,-2.9913,-2.9913,-2.9913,-2.9913,-2.9913,-2.9913,-2.9913,-2.9913,-2.9913,-2.9913,-2.7883,-2.3666,-2.2556,-2.0252,-1.5737,-1.5181,-1.5181,-1.5181,-1.5181,-1.5181,-1.5181,-1.5181,-1.5181,-1.5181,-1.5181,-1.5181,-1.5181,-1.5181,-1.5181,-1.5181,-1.5181,-1.5181,-1.5181,-1.5181,-1.5181,-1.5181,-1.5181,-1.5181,-1.5181,-1.5181,-1.5181,-1.5181,-1.5181,-1.5181,-1.5181,-1.5181,-1.5181,-1.5181,-1.5181,-1.5181,-1.5181,-1.5187,-1.5235,-1.5269,-1.533,-1.5384,-5.4893,-5.2873,-5.0685,-4.8676,-4.6888,-4.4658,-4.3691,-4.3691,-4.3691,-4.3691,-4.3691,-4.3691,-4.3691,-4.3691,-4.3691,-4.3691,-4.3691,-4.3691,-4.3691,-4.3691,-4.3691,-4.3691,-4.3691,-4.3691,-4.3691,-4.3691,-4.3691,-4.3691,-4.3691,-4.3691,-4.3691,-4.3691,-4.3691,-4.3691,-4.3691,-4.3691,-4.1556,-3.7947,-3.7003,-3.4591,-3.0526,-2.9913,-2.9913,-2.9913,-2.9913,-2.9913,-2.9913,-2.9913,-2.9913,-2.9913,-2.9913,-2.9913,-2.9913,-2.9913,-2.9913,-2.9913,-2.9927,-2.9967,-2.9953,-3.0047,-3.002,-2.9993,-2.9993,-2.9927,-2.9927,-2.9913,-2.9913,-2.9913,-2.9554,-2.7612,-2.3666,-2.2096,-1.9798,-1.6198,-1.5181,-1.5181,-1.5181,-1.5181,-1.5181,-1.5181,-1.5181,-1.5181,-1.5181,-1.5181,-1.5181,-1.5181,-1.5181,-1.5181,-1.5181,-1.5181,-1.5181,-1.5181,-1.5181,-1.5181,-1.5181,-1.5181,-1.5181,-1.5181,-1.5181,-1.5181,-1.5181,-1.5181,-1.5181,-1.5181,-1.5181,-1.5181,-1.5181,-1.5181,-1.5181,-1.5275,-1.5221,-1.5296,-1.5384,-1.5466,-1.554,-5.3576,-5.2722,-4.9126,-4.7347,-4.6545,-4.4576,-4.3691,-4.3691,-4.3691,-4.3691,-4.3691,-4.3691,-4.3691,-4.3691,-4.3691,-4.3691,-4.3691,-4.3691,-4.3691,-4.3691,-4.3691,-4.3691,-4.3691,-4.3691,-4.3691,-4.3691,-4.3691,-4.3691,-4.3691,-4.3691,-4.3691,-4.3691,-4.3691,-4.3691,-4.3691,-4.3691,-4.2243,-3.948,-3.7518,-3.5462,-3.2602,-3.0616,-2.9913,-2.9913,-2.9913,-2.9913,-2.9913,-2.9913,-2.9913,-2.9913,-2.9913,-2.9913,-2.9927,-2.9927,-2.9953,-2.9993,-3.014,-3.0247,-3.0287,-3.0434,-3.0448,-3.0274,-3.0247,-3.0154,-2.9927,-2.9913,-2.9913,-2.9541,-2.8346,-2.6048,-2.3014,-2.0899,-1.8414,-1.5924,-1.5181,-1.5181,-1.5181,-1.5181,-1.5181,-1.5181,-1.5181,-1.5181,-1.5181,-1.5181,-1.5181,-1.5181,-1.5181,-1.5181,-1.5181,-1.5181,-1.5181,-1.5181,-1.5181,-1.5181,-1.5181,-1.5181,-1.5181,-1.5181,-1.5181,-1.5181,-1.5181,-1.5181,-1.5181,-1.5181,-1.5181,-1.5181,-1.5181,-1.5187,-1.5281,-1.5295,-1.5303,-1.5404,-1.5554,-1.5662,-1.5723,-5.209,-5.0297,-4.7804,-4.6324,-4.5454,-4.4186,-4.3691,-4.3691,-4.3691,-4.3691,-4.3691,-4.3691,-4.3691,-4.3691,-4.3691,-4.3691,-4.3691,-4.3691,-4.3691,-4.3691,-4.3691,-4.3691,-4.3691,-4.3691,-4.3691,-4.3691,-4.3691,-4.3691,-4.3691,-4.3691,-4.3691,-4.3691,-4.3691,-4.3691,-4.3691,-4.3609,-4.2057,-3.914,-3.7347,-3.5375,-3.2086,-3.0602,-3.0187,-3.0034,-3.0007,-2.9953,-3.0074,-3.01,-3.006,-2.9953,-2.9913,-2.9967,-3.0087,-3.01,-3.0154,-3.0274,-3.0461,-3.0541,-3.0568,-3.0702,-3.0715,-3.0581,-3.0541,-3.0394,-3.0181,-3.01,-3.0087,-2.9747,-2.7612,-2.5218,-2.2556,-1.952,-1.6939,-1.5455,-1.5181,-1.5181,-1.5181,-1.5181,-1.5181,-1.5181,-1.5181,-1.5181,-1.5181,-1.5181,-1.5181,-1.5181,-1.5181,-1.5181,-1.5181,-1.5181,-1.5181,-1.5181,-1.5181,-1.5181,-1.5181,-1.5181,-1.5181,-1.5181,-1.5181,-1.5181,-1.5181,-1.5181,-1.5181,-1.5181,-1.5181,-1.5187,-1.5201,-1.5221,-1.5336,-1.5391,-1.5404,-1.5567,-1.5737,-1.5791,-1.5866,-5.0452,-4.6786,-4.6647,-4.5454,-4.3939,-4.3691,-4.3691,-4.3691,-4.3691,-4.3691,-4.3691,-4.3691,-4.3691,-4.3691,-4.3691,-4.3691,-4.3691,-4.3691,-4.3691,-4.3691,-4.3691,-4.3691,-4.3691,-4.3691,-4.3691,-4.3691,-4.3691,-4.3691,-4.3691,-4.3691,-4.3691,-4.3691,-4.3691,-4.3691,-4.3691,-4.3691,-4.1472,-3.8885,-3.7347,-3.5336,-3.2261,-3.0815,-3.014,-3.0341,-3.0221,-3.0207,-3.0341,-3.0394,-3.0301,-3.0034,-3.0007,-3.0181,-3.0381,-3.0408,-3.0501,-3.0702,-3.0782,-3.0835,-3.0849,-3.0902,-3.0889,-3.0849,-3.0835,-3.0715,-3.0488,-3.0394,-3.0301,-3.0074,-2.748,-2.435,-2.1175,-1.7584,-1.583,-1.5181,-1.5181,-1.5181,-1.5181,-1.5181,-1.5181,-1.5181,-1.5181,-1.5181,-1.5181,-1.5181,-1.5181,-1.5181,-1.5181,-1.5181,-1.5181,-1.5181,-1.5181,-1.5181,-1.5181,-1.5181,-1.5181,-1.5181,-1.5181,-1.5181,-1.5181,-1.5181,-1.5181,-1.5181,-1.5181,-1.5181,-1.5181,-1.5208,-1.5255,-1.5276,-1.5411,-1.5507,-1.5636,-1.5757,-1.5869,-1.5927,-1.5947,-4.9227,-4.6727,-4.5047,-4.4103,-4.3691,-4.3691,-4.3691,-4.3691,-4.3691,-4.3691,-4.3691,-4.3691,-4.3691,-4.3691,-4.3691,-4.3691,-4.3691,-4.3691,-4.3691,-4.3691,-4.3691,-4.3691,-4.3691,-4.3691,-4.3691,-4.3691,-4.3691,-4.3691,-4.3691,-4.3691,-4.3691,-4.3691,-4.3691,-4.3691,-4.3691,-4.3609,-4.3443,-4.1639,-3.8732,-3.6475,-3.4771,-3.1755,-3.0394,-3.0635,-3.0608,-3.0635,-3.0675,-3.0702,-3.0662,-3.0621,-3.0608,-3.0648,-3.0688,-3.0702,-3.0755,-3.0862,-3.1036,-3.1129,-3.1169,-3.1303,-3.137,-3.1156,-3.1116,-3.1009,-3.0742,-3.0702,-3.0595,-2.956,-2.6294,-2.2192,-1.7997,-1.6112,-1.5275,-1.5181,-1.5181,-1.5181,-1.5181,-1.5181,-1.5181,-1.5181,-1.5181,-1.5181,-1.5181,-1.5181,-1.5181,-1.5181,-1.5181,-1.5181,-1.5181,-1.5181,-1.5181,-1.5181,-1.5181,-1.5181,-1.5181,-1.5181,-1.5181,-1.5181,-1.5181,-1.5181,-1.5181,-1.5208,-1.5221,-1.5208,-1.5181,-1.5228,-1.5303,-1.5398,-1.5548,-1.5657,-1.5766,-1.5866,-1.6001,-1.6001,-1.6008,-4.7267,-4.5291,-4.4186,-4.3691,-4.3691,-4.3691,-4.3691,-4.3691,-4.3691,-4.3691,-4.3691,-4.3691,-4.3691,-4.3691,-4.3691,-4.3691,-4.3691,-4.3691,-4.3691,-4.3691,-4.3691,-4.3691,-4.3691,-4.3691,-4.3691,-4.3691,-4.3691,-4.3691,-4.3691,-4.3691,-4.3691,-4.3691,-4.3691,-4.3691,-4.3691,-4.3691,-4.301,-4.1509,-3.8906,-3.6671,-3.516,-3.2537,-3.0608,-3.0808,-3.0915,-3.0996,-3.0996,-3.0996,-3.1076,-3.1169,-3.1196,-3.1129,-3.1022,-3.0996,-3.1062,-3.1223,-3.1316,-3.1436,-3.149,-3.1557,-3.1583,-3.145,-3.1436,-3.1263,-3.1089,-3.0996,-3.0822,-2.9663,-2.5994,-2.0982,-1.6052,-1.5208,-1.5194,-1.5181,-1.5187,-1.5181,-1.5181,-1.5181,-1.5181,-1.5181,-1.5181,-1.5181,-1.5181,-1.5181,-1.5181,-1.5181,-1.5181,-1.5181,-1.5181,-1.5181,-1.5181,-1.5181,-1.5181,-1.5181,-1.5181,-1.5181,-1.5181,-1.5181,-1.5181,-1.5181,-1.5181,-1.5228,-1.5276,-1.5255,-1.5242,-1.5309,-1.5384,-1.5486,-1.5601,-1.5793,-1.5909,-1.6053,-1.6029,-1.6035,-1.6049,-4.5596,-4.3691,-4.3691,-4.3691,-4.3691,-4.3691,-4.3691,-4.3691,-4.3691,-4.3691,-4.3691,-4.3691,-4.3691,-4.3691,-4.3691,-4.3691,-4.3691,-4.3691,-4.3691,-4.3691,-4.3691,-4.3691,-4.3691,-4.3691,-4.3691,-4.3691,-4.3691,-4.3691,-4.3691,-4.3691,-4.3691,-4.3691,-4.3691,-4.3691,-4.3691,-4.3609,-4.3068,-4.1555,-3.8856,-3.6772,-3.4799,-3.2457,-3.0981,-3.1036,-3.1169,-3.1289,-3.1289,-3.1303,-3.1396,-3.165,-3.1677,-3.1543,-3.1383,-3.1316,-3.1383,-3.1637,-3.1623,-3.1623,-3.161,-3.165,-3.1664,-3.1677,-3.1664,-3.1557,-3.1356,-3.1276,-3.1129,-2.9373,-2.6254,-2.1028,-1.623,-1.5371,-1.5289,-1.5276,-1.5262,-1.5242,-1.5221,-1.5215,-1.5228,-1.5181,-1.5181,-1.5181,-1.5181,-1.5181,-1.5181,-1.5181,-1.5187,-1.5194,-1.5194,-1.5194,-1.5201,-1.5181,-1.5181,-1.5181,-1.5181,-1.5276,-1.5262,-1.5269,-1.5255,-1.5276,-1.5276,-1.5357,-1.5411,-1.533,-1.533,-1.5418,-1.5527,-1.5649,-1.575,-1.593,-1.6012,-1.6022,-1.6062,-1.6076,-1.6083,-4.5596,-4.3691,-4.3691,-4.3691,-4.3691,-4.3691,-4.3691,-4.3691,-4.3691,-4.3691,-4.3691,-4.3691,-4.3691,-4.3691,-4.3691,-4.3691,-4.3691,-4.3691,-4.3691,-4.3691,-4.3691,-4.3691,-4.3691,-4.3691,-4.3691,-4.3691,-4.3691,-4.3691,-4.3691,-4.3691,-4.3691,-4.3691,-4.3691,-4.3691,-4.375,-4.373,-4.3779,-4.2669,-3.9548,-3.7264,-3.6384,-3.3349,-3.1249,-3.141,-3.1503,-3.1543,-3.157,-3.1583,-3.1623,-3.1664,-3.1677,-3.1637,-3.1583,-3.1557,-3.1597,-3.165,-3.1677,-3.1677,-3.1677,-3.1677,-3.1677,-3.1677,-3.1677,-3.1677,-3.1597,-3.1475,-3.1059,-2.9367,-2.6053,-2.1129,-1.6215,-1.554,-1.5554,-1.5554,-1.552,-1.5486,-1.5404,-1.5364,-1.533,-1.5269,-1.5228,-1.5181,-1.5181,-1.5187,-1.5208,-1.5221,-1.5242,-1.5262,-1.5282,-1.5262,-1.5235,-1.5215,-1.5181,-1.5181,-1.5181,-1.5316,-1.5391,-1.5418,-1.5432,-1.5493,-1.5513,-1.556,-1.556,-1.5499,-1.5513,-1.5608,-1.5723,-1.5811,-1.5893,-1.6053,-1.6022,-1.6083,-1.6083,-1.6083,-1.6083,-4.4576,-4.3691,-4.3691,-4.3691,-4.3691,-4.3691,-4.3691,-4.3691,-4.3691,-4.3691,-4.3691,-4.3691,-4.3691,-4.3691,-4.3691,-4.3691,-4.373,-4.3691,-4.3691,-4.3691,-4.3691,-4.3691,-4.373,-4.3711,-4.3691,-4.3691,-4.3691,-4.373,-4.3691,-4.3691,-4.3711,-4.3691,-4.3711,-4.3808,-4.4023,-4.4101,-4.4316,-4.3594,-4.0385,-3.7874,-3.7818,-3.3715,-3.1827,-3.1623,-3.1677,-3.1677,-3.1677,-3.1677,-3.1677,-3.1677,-3.1677,-3.1677,-3.1677,-3.1677,-3.1677,-3.1677,-3.1677,-3.1677,-3.1677,-3.1677,-3.1677,-3.1677,-3.1677,-3.1677,-3.1677,-3.146,-3.0483,-2.7588,-2.5871,-2.1307,-1.6349,-1.5793,-1.5642,-1.5635,-1.5642,-1.5615,-1.5554,-1.5533,-1.5472,-1.5384,-1.5289,-1.5228,-1.5181,-1.5201,-1.5228,-1.5262,-1.5296,-1.5337,-1.5377,-1.5371,-1.5357,-1.5364,-1.5357,-1.5357,-1.5357,-1.5438,-1.5527,-1.5554,-1.5601,-1.5669,-1.5696,-1.5716,-1.5723,-1.5689,-1.5744,-1.5791,-1.5832,-1.59,-1.5988,-1.6062,-1.6069,-1.6083,-1.6083,-1.6083,-1.6083,-4.3691,-4.3691,-4.3691,-4.3691,-4.3711,-4.3808,-4.3848,-4.3848,-4.3965,-4.3984,-4.3989,-4.3984,-4.4043,-4.394,-4.4023,-4.4004,-4.3965,-4.4004,-4.4043,-4.4062,-4.4062,-4.4004,-4.3965,-4.3911,-4.4033,-4.4141,-4.4082,-4.3867,-4.3711,-4.3691,-4.375,-4.3867,-4.3867,-4.4062,-4.4433,-4.4531,-4.4785,-4.3671,-4.0667,-3.8259,-3.625,-3.3729,-3.1677,-3.1677,-3.1677,-3.1677,-3.1677,-3.1677,-3.1677,-3.1677,-3.1677,-3.1677,-3.1677,-3.1677,-3.1677,-3.1677,-3.1677,-3.1677,-3.1677,-3.1677,-3.1677,-3.1677,-3.1677,-3.1677,-3.1677,-3.1175,-2.9708,-2.5206,-2.3732,-2.1518,-1.6973,-1.5805,-1.5757,-1.575,-1.575,-1.5723,-1.5696,-1.5669,-1.5649,-1.5533,-1.5377,-1.5337,-1.5343,-1.5391,-1.5363,-1.5425,-1.5459,-1.5472,-1.5513,-1.5547,-1.5547,-1.5574,-1.5581,-1.5574,-1.5588,-1.5615,-1.5669,-1.5689,-1.5757,-1.5825,-1.5839,-1.5845,-1.5845,-1.5859,-1.5886,-1.5927,-1.5954,-1.5974,-1.6035,-1.6069,-1.6076,-1.6083,-1.6083,-1.6083,-1.6083,-4.3691,-4.3711,-4.3711,-4.3691,-4.3789,-4.416,-4.4316,-4.4355,-4.4668,-4.4831,-4.4719,-4.4831,-4.4798,-4.4771,-4.4759,-4.4824,-4.4805,-4.4746,-4.4707,-4.4687,-4.4726,-4.4726,-4.4811,-4.4802,-4.471,-4.4648,-4.472,-4.4394,-4.4023,-4.3848,-4.3965,-4.4238,-4.4336,-4.4531,-4.4902,-4.4961,-4.5176,-4.4655,-4.0632,-3.6408,-3.3341,-3.211,-3.1758,-3.1677,-3.1677,-3.1677,-3.1677,-3.1677,-3.1677,-3.1677,-3.1677,-3.1677,-3.1677,-3.1677,-3.1677,-3.1677,-3.1677,-3.1677,-3.1677,-3.1677,-3.1677,-3.1677,-3.1677,-3.1677,-3.1677,-3.1379,-2.9517,-2.456,-2.392,-2.1477,-1.7407,-1.6121,-1.6015,-1.5995,-1.5961,-1.5913,-1.5866,-1.5832,-1.5798,-1.575,-1.5622,-1.5601,-1.5601,-1.5559,-1.5592,-1.5552,-1.5615,-1.5635,-1.5669,-1.5716,-1.573,-1.575,-1.5764,-1.5764,-1.5771,-1.5805,-1.5811,-1.5825,-1.5886,-1.5961,-1.5954,-1.5961,-1.6001,-1.6015,-1.6029,-1.6022,-1.6029,-1.6042,-1.6076,-1.6083,-1.6083,-1.6083,-1.6083,-1.6083,-1.6083,-4.3867,-4.4101,-4.4101,-4.4238,-4.4473,-4.4668,-4.4746,-4.4785,-4.4941,-4.5039,-4.5039,-4.5019,-4.4993,-4.509,-4.4973,-4.5019,-4.5039,-4.5058,-4.5039,-4.5058,-4.5078,-4.5058,-4.4941,-4.4999,-4.5013,-4.5058,-4.5036,-4.4834,-4.4499,-4.4473,-4.459,-4.4707,-4.4785,-4.4961,-4.5351,-4.5391,-4.4741,-4.2861,-3.9171,-3.5054,-3.2608,-3.1677,-3.1677,-3.1677,-3.1677,-3.1677,-3.1677,-3.1677,-3.1677,-3.1677,-3.1677,-3.1677,-3.1677,-3.1677,-3.1677,-3.1677,-3.1677,-3.1677,-3.1677,-3.1677,-3.1677,-3.1677,-3.1677,-3.1677,-3.1677,-3.1474,-2.9517,-2.4355,-2.392,-2.1388,-1.7466,-1.6282,-1.6083,-1.6083,-1.6083,-1.6049,-1.5995,-1.5995,-1.5961,-1.592,-1.5872,-1.5845,-1.5791,-1.575,-1.568,-1.5791,-1.5778,-1.5805,-1.5859,-1.5934,-1.5934,-1.5927,-1.5934,-1.5927,-1.5947,-1.5967,-1.5961,-1.5967,-1.5974,-1.6035,-1.6049,-1.6069,-1.6083,-1.6083,-1.6062,-1.6062,-1.6083,-1.6083,-1.6083,-1.6083,-1.6083,-1.6083,-1.6083,-1.6083,-1.6083,-4.3965,-4.4394,-4.4394,-4.4629,-4.5039,-4.5137,-4.5195,-4.5195,-4.5332,-4.5363,-4.5316,-4.5363,-4.5371,-4.5351,-4.541,-4.5449,-4.5391,-4.5351,-4.5351,-4.5351,-4.5351,-4.5391,-4.543,-4.5371,-4.5351,-4.5332,-4.5454,-4.5396,-4.5336,-4.5332,-4.5293,-4.5195,-4.5195,-4.543,-4.5723,-4.558,-4.4717,-4.1351,-3.7632,-3.4283,-3.2124,-3.1677,-3.1677,-3.1677,-3.1677,-3.1677,-3.1677,-3.1677,-3.1677,-3.1677,-3.1677,-3.1677,-3.1677,-3.1677,-3.1677,-3.1677,-3.1677,-3.1677,-3.1677,-3.1677,-3.1677,-3.1677,-3.1677,-3.1677,-3.1677,-3.1569,-2.9517,-2.4355,-2.388,-2.1165,-1.765,-1.6083,-1.6083,-1.6083,-1.6083,-1.6083,-1.6076,-1.6056,-1.6042,-1.6015,-1.5988,-1.6022,-1.5954,-1.5845,-1.5845,-1.59,-1.5934,-1.5967,-1.6008,-1.6062,-1.6049,-1.6015,-1.6015,-1.6015,-1.6029,-1.6056,-1.6076,-1.6083,-1.6083,-1.6083,-1.6083,-1.6083,-1.6083,-1.6083,-1.6083,-1.6083,-1.6083,-1.6083,-1.6083,-1.6083,-1.6083,-1.6083,-1.6083,-1.6083,-1.609,-4.3965,-4.4394,-4.4394,-4.4668,-4.5078,-4.5469,-4.5625,-4.5664,-4.6016,-4.6133,-4.6046,-4.6172,-4.6094,-4.6133,-4.6074,-4.6094,-4.6172,-4.6211,-4.6113,-4.6113,-4.6191,-4.6074,-4.6055,-4.6035,-4.6113,-4.6113,-4.6036,-4.6017,-4.6152,-4.5976,-4.5879,-4.5683,-4.5625,-4.5898,-4.5725,-4.5239,-4.2869,-3.9597,-3.6128,-3.3966,-3.2313,-3.1677,-3.1677,-3.1677,-3.1677,-3.1677,-3.1677,-3.1677,-3.1677,-3.1677,-3.1677,-3.1677,-3.1677,-3.1677,-3.1677,-3.1677,-3.1677,-3.1677,-3.1677,-3.1677,-3.1677,-3.1677,-3.1677,-3.1677,-3.1677,-3.1677,-2.9122,-2.484,-2.3977,-2.1352,-1.8038,-1.6083,-1.6083,-1.6083,-1.6083,-1.6083,-1.6083,-1.6076,-1.6069,-1.6076,-1.6083,-1.6083,-1.6076,-1.5961,-1.5934,-1.5988,-1.6001,-1.6029,-1.6035,-1.6076,-1.6076,-1.6062,-1.6069,-1.6069,-1.6069,-1.6083,-1.6083,-1.6083,-1.6083,-1.6083,-1.6083,-1.6083,-1.6083,-1.6083,-1.6083,-1.6083,-1.6083,-1.6083,-1.6083,-1.6083,-1.6083,-1.6083,-1.6083,-1.6083,-1.6096,-4.3984,-4.4414,-4.4668,-4.5019,-4.5469,-4.5879,-4.6055,-4.6074,-4.623,-4.6308,-4.6308,-4.6308,-4.6308,-4.6308,-4.6308,-4.6308,-4.6308,-4.6308,-4.6308,-4.6308,-4.6289,-4.6308,-4.6308,-4.6308,-4.6289,-4.6308,-4.6308,-4.6308,-4.6269,-4.6308,-4.625,-4.6094,-4.6016,-4.6133,-4.5812,-4.353,-4.0124,-3.7341,-3.4549,-3.2502,-3.2138,-3.1677,-3.1677,-3.1677,-3.1677,-3.1677,-3.1677,-3.1677,-3.1677,-3.1677,-3.1677,-3.1677,-3.1677,-3.1677,-3.1677,-3.1677,-3.1677,-3.1677,-3.1677,-3.1677,-3.1677,-3.1677,-3.1677,-3.1677,-3.1677,-3.1677,-2.8943,-2.5915,-2.388,-2.1548,-1.7353,-1.6182,-1.6083,-1.6083,-1.6083,-1.6083,-1.6083,-1.6083,-1.6083,-1.6083,-1.6083,-1.6083,-1.6083,-1.6069,-1.6062,-1.6069,-1.6076,-1.6083,-1.6083,-1.6083,-1.6083,-1.6083,-1.6083,-1.6083,-1.6083,-1.6083,-1.6083,-1.6083,-1.6083,-1.6083,-1.6083,-1.6083,-1.6083,-1.6083,-1.6083,-1.6083,-1.6083,-1.6083,-1.6083,-1.6083,-1.6083,-1.6083,-1.6083,-1.6096,-1.6151,-4.3887,-4.4238,-4.4668,-4.5176,-4.5703,-4.6113,-4.6308,-4.6308,-4.6308,-4.6308,-4.6308,-4.6308,-4.6308,-4.6308,-4.6308,-4.6308,-4.6308,-4.6308,-4.6308,-4.6308,-4.6308,-4.6308,-4.6308,-4.6308,-4.6308,-4.6308,-4.6308,-4.6308,-4.6308,-4.6308,-4.6269,-4.6269,-4.6308,-4.6289,-4.5197,-4.1618,-3.7815,-3.5374,-3.3159,-3.1758,-3.1677,-3.1677,-3.1677,-3.1677,-3.1677,-3.1677,-3.1677,-3.1677,-3.1677,-3.1677,-3.1677,-3.1677,-3.1677,-3.1677,-3.1677,-3.1677,-3.1677,-3.1677,-3.1677,-3.1677,-3.1677,-3.1677,-3.1677,-3.1677,-3.1677,-3.1582,-2.9517,-2.6119,-2.4463,-2.2028,-1.7452,-1.6864,-1.6275,-1.6083,-1.6083,-1.6083,-1.6083,-1.6083,-1.6083,-1.6083,-1.6083,-1.6083,-1.6083,-1.6083,-1.6083,-1.6083,-1.6083,-1.6083,-1.6083,-1.6083,-1.6083,-1.6083,-1.6083,-1.6083,-1.6083,-1.6083,-1.6083,-1.6083,-1.6083,-1.6083,-1.6083,-1.6083,-1.6083,-1.6083,-1.6083,-1.6083,-1.6103,-1.6137,-1.6117,-1.609,-1.6123,-1.6178,-1.6205,-1.6239,-1.63,-4.3711,-4.3769,-4.4258,-4.4922,-4.5644,-4.6113,-4.6289,-4.6308,-4.6308,-4.6308,-4.6308,-4.6308,-4.6308,-4.6308,-4.6308,-4.6308,-4.6308,-4.6308,-4.6308,-4.6308,-4.6308,-4.6308,-4.6308,-4.6308,-4.6308,-4.6308,-4.6308,-4.6308,-4.6308,-4.6308,-4.6308,-4.6114,-4.5939,-4.548,-4.5656,-4.1456,-3.7815,-3.5252,-3.273,-3.1935,-3.1677,-3.1677,-3.1677,-3.1677,-3.1677,-3.1677,-3.1677,-3.1677,-3.1677,-3.1677,-3.1677,-3.1677,-3.1677,-3.1677,-3.1677,-3.1677,-3.1677,-3.1677,-3.1677,-3.1677,-3.1677,-3.1677,-3.1677,-3.1677,-3.1677,-3.1474,-3.0496,-2.7095,-2.5141,-2.2809,-1.9987,-1.7642,-1.6665,-1.6083,-1.6083,-1.6083,-1.6083,-1.6083,-1.6083,-1.6083,-1.6083,-1.6083,-1.6083,-1.6083,-1.6083,-1.6083,-1.6083,-1.6083,-1.6083,-1.6083,-1.6083,-1.6083,-1.6083,-1.6083,-1.6083,-1.6083,-1.6083,-1.6083,-1.6083,-1.6083,-1.6083,-1.6083,-1.6083,-1.6083,-1.609,-1.609,-1.6151,-1.6205,-1.6218,-1.6246,-1.6273,-1.6313,-1.6347,-1.6374,-1.6429,-4.3691,-4.3769,-4.4492,-4.498,-4.5293,-4.5703,-4.6035,-4.6269,-4.6308,-4.6308,-4.6308,-4.6308,-4.6308,-4.6308,-4.6308,-4.6308,-4.6308,-4.6308,-4.6308,-4.6308,-4.6308,-4.6308,-4.6308,-4.6308,-4.6308,-4.6308,-4.6308,-4.6308,-4.6308,-4.6308,-4.6308,-4.6114,-4.4826,-4.2907,-4.1636,-3.9084,-3.7204,-3.3534,-3.2016,-3.1677,-3.1677,-3.1677,-3.1677,-3.1677,-3.1677,-3.1677,-3.1677,-3.1677,-3.1677,-3.1677,-3.1677,-3.1677,-3.1677,-3.1677,-3.1677,-3.1677,-3.1677,-3.1677,-3.1677,-3.1677,-3.1677,-3.1677,-3.1677,-3.1677,-3.1677,-3.1677,-3.021,-2.8068,-2.5529,-2.2906,-2.0175,-1.7642,-1.6374,-1.6182,-1.6083,-1.6083,-1.6083,-1.6083,-1.6083,-1.6083,-1.6083,-1.6083,-1.6083,-1.6083,-1.6083,-1.6083,-1.6083,-1.6083,-1.6083,-1.6083,-1.6083,-1.6083,-1.6083,-1.6083,-1.6083,-1.6083,-1.6083,-1.6083,-1.6083,-1.6083,-1.6083,-1.6083,-1.6083,-1.6083,-1.6096,-1.6117,-1.6246,-1.6361,-1.6395,-1.6422,-1.6469,-1.6469,-1.6469,-1.6497,-1.653,-4.3691,-4.3769,-4.4316,-4.4746,-4.5098,-4.5644,-4.6055,-4.6269,-4.6308,-4.6308,-4.6308,-4.6308,-4.6308,-4.6308,-4.6308,-4.6308,-4.6308,-4.6308,-4.6308,-4.6308,-4.6308,-4.6308,-4.6308,-4.6308,-4.6308,-4.6308,-4.6308,-4.6308,-4.6308,-4.6308,-4.6308,-4.5656,-4.3815,-4.1726,-3.9795,-3.7987,-3.5788,-3.2758,-3.1677,-3.1677,-3.1677,-3.1677,-3.1677,-3.1677,-3.1677,-3.1677,-3.1677,-3.1677,-3.1677,-3.1677,-3.1677,-3.1677,-3.1677,-3.1677,-3.1677,-3.1677,-3.1677,-3.1677,-3.1677,-3.1677,-3.1677,-3.1677,-3.1677,-3.1677,-3.1677,-3.1677,-3.0985,-2.8943,-2.6012,-2.3676,-2.1343,-1.8623,-1.6474,-1.6275,-1.6083,-1.6083,-1.6083,-1.6083,-1.6083,-1.6083,-1.6083,-1.6083,-1.6083,-1.6083,-1.6083,-1.6083,-1.6083,-1.6083,-1.6083,-1.6083,-1.6083,-1.6083,-1.6083,-1.6083,-1.6083,-1.6083,-1.6083,-1.6083,-1.6083,-1.6083,-1.6083,-1.6083,-1.6083,-1.6103,-1.6164,-1.6259,-1.6422,-1.653,-1.6585,-1.6646,-1.6707,-1.668,-1.6619,-1.6639,-1.6686,-4.3691,-4.3711,-4.3711,-4.4258,-4.5058,-4.582,-4.623,-4.6289,-4.6308,-4.6308,-4.6308,-4.6308,-4.6308,-4.6308,-4.6308,-4.6308,-4.6308,-4.6308,-4.6308,-4.6308,-4.6308,-4.6308,-4.6308,-4.6308,-4.6308,-4.6308,-4.6308,-4.6308,-4.6308,-4.6308,-4.6308,-4.5568,-4.3282,-4.0988,-3.8885,-3.6344,-3.4139,-3.2219,-3.1677,-3.1677,-3.1677,-3.1677,-3.1677,-3.1677,-3.1677,-3.1677,-3.1677,-3.1677,-3.1677,-3.1677,-3.1677,-3.1677,-3.1677,-3.1677,-3.1677,-3.1677,-3.1677,-3.1677,-3.1677,-3.1677,-3.1677,-3.1677,-3.1677,-3.1677,-3.1677,-3.1677,-3.1284,-2.9911,-2.7372,-2.5432,-2.3199,-1.9888,-1.6665,-1.6374,-1.6182,-1.6083,-1.6083,-1.6083,-1.6083,-1.6083,-1.6083,-1.6083,-1.6083,-1.6083,-1.6083,-1.6083,-1.6083,-1.6083,-1.6083,-1.6083,-1.6083,-1.6083,-1.6083,-1.6083,-1.6083,-1.6083,-1.6083,-1.6083,-1.6083,-1.6083,-1.6083,-1.609,-1.6117,-1.6164,-1.6266,-1.6395,-1.6558,-1.6693,-1.6788,-1.6849,-1.6863,-1.6842,-1.6768,-1.6829,-1.6883,-4.3691,-4.373,-4.4062,-4.4355,-4.4687,-4.5488,-4.6016,-4.6269,-4.6308,-4.6308,-4.6308,-4.6308,-4.6308,-4.6308,-4.6308,-4.6308,-4.6308,-4.6308,-4.6308,-4.6308,-4.6308,-4.6308,-4.6308,-4.6308,-4.6308,-4.6308,-4.6308,-4.6308,-4.6308,-4.6308,-4.6308,-4.5763,-4.2282,-4.0084,-3.7787,-3.4872,-3.3041,-3.1948,-3.1772,-3.1677,-3.1677,-3.1677,-3.1677,-3.1677,-3.1677,-3.1677,-3.1677,-3.1677,-3.1677,-3.1677,-3.1677,-3.1677,-3.1677,-3.1677,-3.1677,-3.1677,-3.1677,-3.1677,-3.1677,-3.1677,-3.1677,-3.1677,-3.1677,-3.1677,-3.1677,-3.1677,-3.1677,-3.0306,-2.8056,-2.5625,-2.3394,-2.0371,-1.7551,-1.6374,-1.6182,-1.6083,-1.6083,-1.6083,-1.6083,-1.6083,-1.6083,-1.6083,-1.6083,-1.6083,-1.6083,-1.6083,-1.6083,-1.6083,-1.6083,-1.6083,-1.6083,-1.6083,-1.6083,-1.6083,-1.6083,-1.6083,-1.6083,-1.6083,-1.6083,-1.6083,-1.6083,-1.6103,-1.6144,-1.6259,-1.6422,-1.6558,-1.6693,-1.6809,-1.6897,-1.6924,-1.6937,-1.6937,-1.6937,-1.6965,-1.6978,-4.3691,-4.375,-4.4004,-4.4219,-4.4531,-4.5312,-4.584,-4.6074,-4.623,-4.6308,-4.6308,-4.6308,-4.6308,-4.6308,-4.6308,-4.6308,-4.6308,-4.6308,-4.6308,-4.6308,-4.6308,-4.6308,-4.6308,-4.6308,-4.6308,-4.6308,-4.6308,-4.6308,-4.6308,-4.6114,-4.6114,-4.4365,-4.0627,-3.8811,-3.6698,-3.3966,-3.2219,-3.1772,-3.1677,-3.1677,-3.1677,-3.1677,-3.1677,-3.1677,-3.1677,-3.1677,-3.1677,-3.1677,-3.1677,-3.1677,-3.1677,-3.1677,-3.1677,-3.1677,-3.1677,-3.1677,-3.1677,-3.1677,-3.1677,-3.1677,-3.1677,-3.1677,-3.1677,-3.1677,-3.1677,-3.1677,-3.1677,-3.0985,-2.8056,-2.5335,-2.3101,-2.0764,-1.8426,-1.6282,-1.6182,-1.6083,-1.6083,-1.6083,-1.6083,-1.6083,-1.6083,-1.6083,-1.6083,-1.6083,-1.6083,-1.6083,-1.6083,-1.6083,-1.6083,-1.6083,-1.6083,-1.6083,-1.6083,-1.6083,-1.6083,-1.6083,-1.6083,-1.6083,-1.6083,-1.6083,-1.609,-1.6185,-1.6286,-1.6442,-1.6619,-1.6727,-1.6815,-1.689,-1.6965,-1.6978,-1.6978,-1.6965,-1.6958,-1.6965,-1.6978,-4.3691,-4.3691,-4.3691,-4.4004,-4.4492,-4.5254,-4.5625,-4.5723,-4.6133,-4.6308,-4.6308,-4.6308,-4.6308,-4.6308,-4.6308,-4.6308,-4.6308,-4.6308,-4.6308,-4.6308,-4.6308,-4.6308,-4.6308,-4.6308,-4.6308,-4.6308,-4.6308,-4.6308,-4.6308,-4.6201,-4.5285,-4.2729,-4.0265,-3.8337,-3.6514,-3.3323,-3.1772,-3.1677,-3.1677,-3.1677,-3.1677,-3.1677,-3.1677,-3.1677,-3.1677,-3.1677,-3.1677,-3.1677,-3.1677,-3.1677,-3.1677,-3.1677,-3.1677,-3.1677,-3.1677,-3.1677,-3.1677,-3.1677,-3.1677,-3.1677,-3.1677,-3.1677,-3.1677,-3.1677,-3.1677,-3.1677,-3.1677,-3.108,-2.8452,-2.5829,-2.3491,-2.0764,-1.8228,-1.6665,-1.6182,-1.6083,-1.6083,-1.6083,-1.6083,-1.6083,-1.6083,-1.6083,-1.6083,-1.6083,-1.6083,-1.6083,-1.6083,-1.6083,-1.6083,-1.6083,-1.6083,-1.6083,-1.6083,-1.6083,-1.6083,-1.6083,-1.6083,-1.6083,-1.6083,-1.6123,-1.6164,-1.6293,-1.6442,-1.6592,-1.6734,-1.6829,-1.6917,-1.6965,-1.6978,-1.6978,-1.6978,-1.6978,-1.6978,-1.6978,-1.6978,-4.3691,-4.3691,-4.3691,-4.3965,-4.4433,-4.4961,-4.5391,-4.5703,-4.6113,-4.6308,-4.6308,-4.6308,-4.6308,-4.6308,-4.6308,-4.6308,-4.6308,-4.6308,-4.6308,-4.6308,-4.6308,-4.6308,-4.6308,-4.6308,-4.6308,-4.6308,-4.6308,-4.6308,-4.6308,-4.6221,-4.5939,-4.4649,-4.1349,-3.8246,-3.6791,-3.3605,-3.1772,-3.1677,-3.1677,-3.1677,-3.1677,-3.1677,-3.1677,-3.1677,-3.1677,-3.1677,-3.1677,-3.1677,-3.1677,-3.1677,-3.1677,-3.1677,-3.1677,-3.1677,-3.1677,-3.1677,-3.1677,-3.1677,-3.1677,-3.1677,-3.1677,-3.1677,-3.1677,-3.1677,-3.1677,-3.1677,-3.1379,-3.0496,-2.8847,-2.6216,-2.3686,-2.0666,-1.8129,-1.7055,-1.6083,-1.6083,-1.6083,-1.6083,-1.6083,-1.6083,-1.6083,-1.6083,-1.6083,-1.6083,-1.6083,-1.6083,-1.6083,-1.6083,-1.6083,-1.6083,-1.6083,-1.6083,-1.6083,-1.6083,-1.6083,-1.6083,-1.6083,-1.6083,-1.6083,-1.6144,-1.6232,-1.6422,-1.6605,-1.6707,-1.6829,-1.6904,-1.6951,-1.6965,-1.6978,-1.6978,-1.6978,-1.6978,-1.6978,-1.6978,-1.6978,-4.3691,-4.3691,-4.3691,-4.3848,-4.418,-4.4746,-4.5176,-4.5469,-4.6035,-4.6308,-4.6308,-4.6308,-4.6308,-4.6308,-4.6308,-4.6308,-4.6308,-4.6308,-4.6308,-4.6308,-4.6308,-4.6308,-4.6308,-4.6308,-4.6308,-4.6308,-4.6308,-4.6308,-4.6308,-4.6026,-4.5656,-4.346,-3.9994,-3.7971,-3.6344,-3.296,-3.1677,-3.1677,-3.1677,-3.1677,-3.1677,-3.1677,-3.1677,-3.1677,-3.1677,-3.1677,-3.1677,-3.1677,-3.1677,-3.1677,-3.1677,-3.1677,-3.1677,-3.1677,-3.1677,-3.1677,-3.1677,-3.1677,-3.1677,-3.1677,-3.1677,-3.1677,-3.1677,-3.1677,-3.1677,-3.1677,-3.1677,-3.07,-2.718,-2.4463,-2.2906,-2.0371,-1.7939,-1.6374,-1.6083,-1.6083,-1.6083,-1.6083,-1.6083,-1.6083,-1.6083,-1.6083,-1.6083,-1.6083,-1.6083,-1.6083,-1.6083,-1.6083,-1.6083,-1.6083,-1.6083,-1.6083,-1.6083,-1.6083,-1.6083,-1.6083,-1.6083,-1.6083,-1.609,-1.6218,-1.6354,-1.6578,-1.6657,-1.6836,-1.6897,-1.6937,-1.6978,-1.6978,-1.6978,-1.6978,-1.6978,-1.6978,-1.6978,-1.6978,-1.6978,-4.3691,-4.3691,-4.3691,-4.3711,-4.3848,-4.4648,-4.5039,-4.5195,-4.5937,-4.6308,-4.6308,-4.6308,-4.6308,-4.6308,-4.6308,-4.6308,-4.6308,-4.6308,-4.6308,-4.6308,-4.6308,-4.6308,-4.6308,-4.6308,-4.6308,-4.6308,-4.6308,-4.6308,-4.6308,-4.6026,-4.4296,-4.0356,-3.8262,-3.6791,-3.3417,-3.1758,-3.1677,-3.1677,-3.1677,-3.1677,-3.1677,-3.1677,-3.1677,-3.1677,-3.1677,-3.1677,-3.1677,-3.1677,-3.1677,-3.1677,-3.1677,-3.1677,-3.1677,-3.1677,-3.1677,-3.1677,-3.1677,-3.1677,-3.1677,-3.1677,-3.1677,-3.1677,-3.1677,-3.1677,-3.1677,-3.1677,-3.1677,-3.0007,-2.6591,-2.387,-2.2321,-1.9987,-1.765,-1.6182,-1.6182,-1.6083,-1.6083,-1.6083,-1.6083,-1.6083,-1.6083,-1.6083,-1.6083,-1.6083,-1.6083,-1.6083,-1.6083,-1.6083,-1.6083,-1.6083,-1.6083,-1.6083,-1.6083,-1.6083,-1.6083,-1.6083,-1.6083,-1.6117,-1.6151,-1.6307,-1.6483,-1.67,-1.6856,-1.6924,-1.6971,-1.6978,-1.6978,-1.6978,-1.6978,-1.6978,-1.6978,-1.6978,-1.6978,-1.6978,-1.6978,-4.3691,-4.3691,-4.3691,-4.3691,-4.3848,-4.4648,-4.5039,-4.5176,-4.5918,-4.6308,-4.6308,-4.6308,-4.6308,-4.6308,-4.6308,-4.6308,-4.6308,-4.6308,-4.6308,-4.6308,-4.6308,-4.6308,-4.6308,-4.6308,-4.6308,-4.6308,-4.6308,-4.6308,-4.6114,-4.6026,-4.4826,-4.1546,-3.925,-3.7344,-3.4872,-3.3229,-3.1677,-3.1677,-3.1677,-3.1677,-3.1677,-3.1677,-3.1677,-3.1677,-3.1677,-3.1677,-3.1677,-3.1677,-3.1677,-3.1677,-3.1677,-3.1677,-3.1677,-3.1677,-3.1677,-3.1677,-3.1677,-3.1677,-3.1677,-3.1677,-3.1677,-3.1677,-3.1677,-3.1677,-3.1677,-3.1677,-3.1474,-3.089,-2.7768,-2.4754,-2.2614,-1.9207,-1.6665,-1.6275,-1.6083,-1.6083,-1.6083,-1.6083,-1.6083,-1.6083,-1.6083,-1.6083,-1.6083,-1.6083,-1.6083,-1.6083,-1.6083,-1.6083,-1.6083,-1.6083,-1.6083,-1.6083,-1.6083,-1.6083,-1.6083,-1.6083,-1.609,-1.613,-1.6232,-1.6429,-1.6619,-1.6815,-1.6944,-1.6971,-1.6978,-1.6978,-1.6978,-1.6978,-1.6978,-1.6978,-1.6978,-1.6978,-1.6978,-1.6978,-1.6978]}]]